Time,TemperatureF,DewpointF,PressureIn,WindDirection,WindDirectionDegrees,WindSpeedMPH,WindSpeedGustMPH,Humidity,HourlyPrecipIn,Conditions,Clouds,dailyrainin,SoftwareType,DateUTC
2013-06-20 00:00:00,59.1,52.3,30.11,SE,128,0.0,3.0,78,0.00,,---,0.00,VWS V14.01,2013-06-20 04:00:00,
2013-06-20 00:01:00,59.1,52.3,30.11,SSW,205,0.0,0.0,78,0.00,,---,0.00,VWS V14.01,2013-06-20 04:01:00,
2013-06-20 00:02:00,59.1,52.6,30.11,SSW,205,0.0,0.0,79,0.00,,---,0.00,VWS V14.01,2013-06-20 04:02:00,
2013-06-20 00:03:00,59.1,52.3,30.11,SSE,158,0.0,1.0,78,0.00,,---,0.00,VWS V14.01,2013-06-20 04:03:00,
2013-06-20 00:04:00,59.1,52.3,30.11,SSE,158,0.0,1.0,78,0.00,,---,0.00,VWS V14.01,2013-06-20 04:04:00,
2013-06-20 00:05:00,59.1,52.6,30.11,SSE,158,0.0,1.0,79,0.00,,---,0.00,VWS V14.01,2013-06-20 04:05:00,
2013-06-20 00:06:00,59.1,52.3,30.11,SSE,158,0.0,1.0,78,0.00,,---,0.00,VWS V14.01,2013-06-20 04:06:00,
2013-06-20 00:07:00,59.1,52.3,30.11,SSE,158,0.0,1.0,78,0.00,,---,0.00,VWS V14.01,2013-06-20 04:07:00,
2013-06-20 00:08:00,59.1,52.6,30.12,WNW,298,0.0,1.0,79,0.00,,---,0.00,VWS V14.01,2013-06-20 04:08:00,
2013-06-20 00:09:00,59.0,52.2,30.11,WNW,298,0.0,1.0,78,0.00,,---,0.00,VWS V14.01,2013-06-20 04:09:00,
2013-06-20 00:10:00,59.0,52.2,30.11,WNW,298,0.0,1.0,78,0.00,,---,0.00,VWS V14.01,2013-06-20 04:10:00,
2013-06-20 00:11:00,59.0,52.2,30.12,WNW,298,0.0,1.0,78,0.00,,---,0.00,VWS V14.01,2013-06-20 04:11:00,
2013-06-20 00:12:00,59.0,52.2,30.12,WNW,298,0.0,1.0,78,0.00,,---,0.00,VWS V14.01,2013-06-20 04:12:00,
2013-06-20 00:13:00,58.9,52.1,30.12,WNW,298,0.0,1.0,78,0.00,,---,0.00,VWS V14.01,2013-06-20 04:13:00,
2013-06-20 00:14:00,58.8,52.0,30.11,WNW,297,0.0,1.0,78,0.00,,---,0.00,VWS V14.01,2013-06-20 04:14:00,
2013-06-20 00:15:00,58.8,52.0,30.12,WNW,298,0.0,1.0,78,0.00,,---,0.00,VWS V14.01,2013-06-20 04:15:00,
2013-06-20 00:16:00,58.8,52.0,30.11,SE,141,1.0,2.0,78,0.00,,---,0.00,VWS V14.01,2013-06-20 04:16:00,
2013-06-20 00:17:00,58.8,52.0,30.11,SE,141,0.0,2.0,78,0.00,,---,0.00,VWS V14.01,2013-06-20 04:17:00,
2013-06-20 00:18:00,58.8,52.0,30.12,SE,141,0.0,2.0,78,0.00,,---,0.00,VWS V14.01,2013-06-20 04:18:00,
2013-06-20 00:19:00,58.8,52.0,30.12,SE,141,0.0,2.0,78,0.00,,---,0.00,VWS V14.01,2013-06-20 04:19:00,
2013-06-20 00:20:00,58.8,52.0,30.12,SE,141,0.0,2.0,78,0.00,,---,0.00,VWS V14.01,2013-06-20 04:20:00,
2013-06-20 00:21:00,58.7,52.2,30.12,South,174,0.0,2.0,79,0.00,,---,0.00,VWS V14.01,2013-06-20 04:21:00,
2013-06-20 00:22:00,58.7,52.2,30.12,South,174,0.0,2.0,79,0.00,,---,0.00,VWS V14.01,2013-06-20 04:22:00,
2013-06-20 00:23:00,58.6,52.1,30.12,South,184,0.0,2.0,79,0.00,,---,0.00,VWS V14.01,2013-06-20 04:23:00,
2013-06-20 00:24:00,58.6,52.1,30.12,ESE,103,0.0,2.0,79,0.00,,---,0.00,VWS V14.01,2013-06-20 04:24:00,
2013-06-20 00:25:00,58.6,52.1,30.12,ESE,110,0.0,2.0,79,0.00,,---,0.00,VWS V14.01,2013-06-20 04:25:00,
2013-06-20 00:26:00,58.6,52.1,30.12,ESE,110,0.0,2.0,79,0.00,,---,0.00,VWS V14.01,2013-06-20 04:26:00,
2013-06-20 00:27:00,58.5,52.0,30.12,ESE,110,0.0,2.0,79,0.00,,---,0.00,VWS V14.01,2013-06-20 04:27:00,
2013-06-20 00:28:00,58.5,52.4,30.12,ESE,110,0.0,2.0,80,0.00,,---,0.00,VWS V14.01,2013-06-20 04:28:00,
2013-06-20 00:29:00,58.4,52.3,30.12,ESE,110,0.0,2.0,80,0.00,,---,0.00,VWS V14.01,2013-06-20 04:29:00,
2013-06-20 00:30:00,58.3,52.2,30.12,ESE,110,0.0,2.0,80,0.00,,---,0.00,VWS V14.01,2013-06-20 04:30:00,
2013-06-20 00:31:00,58.3,52.2,30.12,ESE,110,0.0,0.0,80,0.00,,---,0.00,VWS V14.01,2013-06-20 04:31:00,
2013-06-20 00:32:00,58.2,51.7,30.12,ESE,110,0.0,0.0,79,0.00,,---,0.00,VWS V14.01,2013-06-20 04:32:00,
2013-06-20 00:33:00,58.2,51.7,30.12,ESE,110,0.0,0.0,79,0.00,,---,0.00,VWS V14.01,2013-06-20 04:33:00,
2013-06-20 00:34:00,58.1,51.6,30.12,ESE,110,0.0,0.0,79,0.00,,---,0.00,VWS V14.01,2013-06-20 04:34:00,
2013-06-20 00:35:00,58.1,52.0,30.12,ESE,110,0.0,0.0,80,0.00,,---,0.00,VWS V14.01,2013-06-20 04:35:00,
2013-06-20 00:36:00,58.0,51.9,30.12,SSW,205,0.0,0.0,80,0.00,,---,0.00,VWS V14.01,2013-06-20 04:36:00,
2013-06-20 00:37:00,58.0,51.9,30.12,SSW,205,0.0,0.0,80,0.00,,---,0.00,VWS V14.01,2013-06-20 04:37:00,
2013-06-20 00:38:00,57.9,51.8,30.12,SSW,205,0.0,0.0,80,0.00,,---,0.00,VWS V14.01,2013-06-20 04:38:00,
2013-06-20 00:39:00,57.9,51.8,30.12,SSW,205,0.0,0.0,80,0.00,,---,0.00,VWS V14.01,2013-06-20 04:39:00,
2013-06-20 00:40:00,57.9,51.8,30.12,SSW,205,0.0,0.0,80,0.00,,---,0.00,VWS V14.01,2013-06-20 04:40:00,
2013-06-20 00:41:00,57.8,52.0,30.12,SSW,205,0.0,0.0,81,0.00,,---,0.00,VWS V14.01,2013-06-20 04:41:00,
2013-06-20 00:42:00,57.8,52.0,30.12,SSW,205,0.0,0.0,81,0.00,,---,0.00,VWS V14.01,2013-06-20 04:42:00,
2013-06-20 00:43:00,57.7,51.9,30.12,SSW,205,0.0,0.0,81,0.00,,---,0.00,VWS V14.01,2013-06-20 04:43:00,
2013-06-20 00:44:00,57.7,51.9,30.12,SSW,205,0.0,0.0,81,0.00,,---,0.00,VWS V14.01,2013-06-20 04:44:00,
2013-06-20 00:45:00,57.6,51.8,30.12,SSW,205,0.0,0.0,81,0.00,,---,0.00,VWS V14.01,2013-06-20 04:45:00,
2013-06-20 00:46:00,57.5,51.7,30.12,SSW,205,0.0,0.0,81,0.00,,---,0.00,VWS V14.01,2013-06-20 04:46:00,
2013-06-20 00:47:00,57.5,51.7,30.12,SSW,205,0.0,0.0,81,0.00,,---,0.00,VWS V14.01,2013-06-20 04:47:00,
2013-06-20 00:48:00,57.4,51.6,30.12,SSW,205,0.0,0.0,81,0.00,,---,0.00,VWS V14.01,2013-06-20 04:48:00,
2013-06-20 00:49:00,57.3,51.5,30.12,SSW,205,0.0,0.0,81,0.00,,---,0.00,VWS V14.01,2013-06-20 04:49:00,
2013-06-20 00:50:00,57.2,51.4,30.12,SSW,205,0.0,0.0,81,0.00,,---,0.00,VWS V14.01,2013-06-20 04:50:00,
2013-06-20 00:51:00,57.2,51.8,30.12,SSW,205,0.0,0.0,82,0.00,,---,0.00,VWS V14.01,2013-06-20 04:51:00,
2013-06-20 00:52:00,57.2,51.8,30.12,SSW,205,0.0,0.0,82,0.00,,---,0.00,VWS V14.01,2013-06-20 04:52:00,
2013-06-20 00:53:00,57.1,51.7,30.12,SSW,205,0.0,0.0,82,0.00,,---,0.00,VWS V14.01,2013-06-20 04:53:00,
2013-06-20 00:54:00,57.1,51.7,30.12,SSW,205,0.0,0.0,82,0.00,,---,0.00,VWS V14.01,2013-06-20 04:54:00,
2013-06-20 00:55:00,57.0,51.6,30.12,SSW,205,0.0,0.0,82,0.00,,---,0.00,VWS V14.01,2013-06-20 04:55:00,
2013-06-20 00:56:00,57.0,51.6,30.12,SSW,205,0.0,0.0,82,0.00,,---,0.00,VWS V14.01,2013-06-20 04:56:00,
2013-06-20 00:57:00,57.0,51.6,30.12,SSW,205,0.0,0.0,82,0.00,,---,0.00,VWS V14.01,2013-06-20 04:57:00,
2013-06-20 00:58:00,56.9,51.5,30.12,SSW,205,0.0,0.0,82,0.00,,---,0.00,VWS V14.01,2013-06-20 04:58:00,
2013-06-20 00:59:00,56.9,51.8,30.12,SSW,205,0.0,0.0,83,0.00,,---,0.00,VWS V14.01,2013-06-20 04:59:00,
2013-06-20 01:00:00,56.8,51.7,30.12,SSW,205,0.0,0.0,83,0.00,,---,0.00,VWS V14.01,2013-06-20 05:00:00,
2013-06-20 01:01:00,56.8,51.7,30.12,SSW,205,0.0,0.0,83,0.00,,---,0.00,VWS V14.01,2013-06-20 05:01:00,
2013-06-20 01:02:00,56.7,51.6,30.12,SSW,205,0.0,0.0,83,0.00,,---,0.00,VWS V14.01,2013-06-20 05:02:00,
2013-06-20 01:03:00,56.7,51.6,30.12,SSW,205,0.0,0.0,83,0.00,,---,0.00,VWS V14.01,2013-06-20 05:03:00,
2013-06-20 01:04:00,56.6,51.5,30.12,SSW,205,0.0,0.0,83,0.00,,---,0.00,VWS V14.01,2013-06-20 05:04:00,
2013-06-20 01:05:00,56.6,51.5,30.13,SSW,205,0.0,0.0,83,0.00,,---,0.00,VWS V14.01,2013-06-20 05:05:00,
2013-06-20 01:06:00,56.5,51.4,30.13,SSW,205,0.0,0.0,83,0.00,,---,0.00,VWS V14.01,2013-06-20 05:06:00,
2013-06-20 01:07:00,56.5,51.4,30.13,SSW,205,0.0,0.0,83,0.00,,---,0.00,VWS V14.01,2013-06-20 05:07:00,
2013-06-20 01:08:00,56.4,51.6,30.13,SSW,205,0.0,0.0,84,0.00,,---,0.00,VWS V14.01,2013-06-20 05:08:00,
2013-06-20 01:09:00,56.3,51.5,30.12,SSW,205,0.0,0.0,84,0.00,,---,0.00,VWS V14.01,2013-06-20 05:09:00,
2013-06-20 01:10:00,56.2,51.4,30.12,SSW,205,0.0,0.0,84,0.00,,---,0.00,VWS V14.01,2013-06-20 05:10:00,
2013-06-20 01:11:00,56.2,51.8,30.12,SSW,205,0.0,0.0,85,0.00,,---,0.00,VWS V14.01,2013-06-20 05:11:00,
2013-06-20 01:12:00,56.1,51.7,30.12,SSW,205,0.0,0.0,85,0.00,,---,0.00,VWS V14.01,2013-06-20 05:12:00,
2013-06-20 01:13:00,56.1,51.3,30.12,SSW,205,0.0,0.0,84,0.00,,---,0.00,VWS V14.01,2013-06-20 05:13:00,
2013-06-20 01:14:00,56.0,51.2,30.12,SSW,205,0.0,0.0,84,0.00,,---,0.00,VWS V14.01,2013-06-20 05:14:00,
2013-06-20 01:15:00,56.0,51.2,30.12,SSW,205,0.0,0.0,84,0.00,,---,0.00,VWS V14.01,2013-06-20 05:15:00,
2013-06-20 01:16:00,55.9,51.5,30.12,SSW,205,0.0,0.0,85,0.00,,---,0.00,VWS V14.01,2013-06-20 05:16:00,
2013-06-20 01:17:00,55.9,51.5,30.12,SSW,205,0.0,0.0,85,0.00,,---,0.00,VWS V14.01,2013-06-20 05:17:00,
2013-06-20 01:18:00,55.9,51.5,30.12,SSW,205,0.0,0.0,85,0.00,,---,0.00,VWS V14.01,2013-06-20 05:18:00,
2013-06-20 01:19:00,55.9,51.5,30.12,SSW,204,0.0,0.0,85,0.00,,---,0.00,VWS V14.01,2013-06-20 05:19:00,
2013-06-20 01:20:00,55.9,51.5,30.12,SSW,205,0.0,0.0,85,0.00,,---,0.00,VWS V14.01,2013-06-20 05:20:00,
2013-06-20 01:21:00,55.9,51.5,30.12,SSW,205,0.0,0.0,85,0.00,,---,0.00,VWS V14.01,2013-06-20 05:21:00,
2013-06-20 01:22:00,55.9,51.5,30.12,SSW,205,0.0,0.0,85,0.00,,---,0.00,VWS V14.01,2013-06-20 05:22:00,
2013-06-20 01:23:00,55.9,51.5,30.12,SSW,204,0.0,0.0,85,0.00,,---,0.00,VWS V14.01,2013-06-20 05:23:00,
2013-06-20 01:24:00,55.9,51.5,30.12,SSW,205,0.0,0.0,85,0.00,,---,0.00,VWS V14.01,2013-06-20 05:24:00,
2013-06-20 01:25:00,55.8,51.4,30.12,SSW,204,0.0,0.0,85,0.00,,---,0.00,VWS V14.01,2013-06-20 05:25:00,
2013-06-20 01:26:00,55.8,51.4,30.12,SSW,204,0.0,0.0,85,0.00,,---,0.00,VWS V14.01,2013-06-20 05:26:00,
2013-06-20 01:27:00,55.7,51.3,30.12,SSW,204,0.0,0.0,85,0.00,,---,0.00,VWS V14.01,2013-06-20 05:27:00,
2013-06-20 01:28:00,55.6,51.2,30.12,SSW,205,0.0,0.0,85,0.00,,---,0.00,VWS V14.01,2013-06-20 05:28:00,
2013-06-20 01:29:00,55.5,51.4,30.12,SSW,204,0.0,0.0,86,0.00,,---,0.00,VWS V14.01,2013-06-20 05:29:00,
2013-06-20 01:30:00,55.5,51.4,30.12,SSW,204,0.0,0.0,86,0.00,,---,0.00,VWS V14.01,2013-06-20 05:30:00,
2013-06-20 01:31:00,55.4,51.3,30.12,SSW,204,0.0,0.0,86,0.00,,---,0.00,VWS V14.01,2013-06-20 05:31:00,
2013-06-20 01:32:00,55.4,51.3,30.12,SSW,204,0.0,0.0,86,0.00,,---,0.00,VWS V14.01,2013-06-20 05:32:00,
2013-06-20 01:33:00,55.3,51.2,30.12,SSW,204,0.0,0.0,86,0.00,,---,0.00,VWS V14.01,2013-06-20 05:33:00,
2013-06-20 01:34:00,55.3,51.2,30.12,SSW,204,0.0,0.0,86,0.00,,---,0.00,VWS V14.01,2013-06-20 05:34:00,
2013-06-20 01:35:00,55.2,51.1,30.12,SSW,204,0.0,0.0,86,0.00,,---,0.00,VWS V14.01,2013-06-20 05:35:00,
2013-06-20 01:36:00,55.1,51.0,30.12,SSW,204,0.0,0.0,86,0.00,,---,0.00,VWS V14.01,2013-06-20 05:36:00,
2013-06-20 01:37:00,55.1,51.0,30.12,SSW,204,0.0,0.0,86,0.00,,---,0.00,VWS V14.01,2013-06-20 05:37:00,
2013-06-20 01:38:00,55.1,51.0,30.12,SSW,204,0.0,0.0,86,0.00,,---,0.00,VWS V14.01,2013-06-20 05:38:00,
2013-06-20 01:39:00,55.0,50.9,30.12,SSW,204,0.0,0.0,86,0.00,,---,0.00,VWS V14.01,2013-06-20 05:39:00,
2013-06-20 01:40:00,54.9,50.8,30.13,SSW,205,0.0,0.0,86,0.00,,---,0.00,VWS V14.01,2013-06-20 05:40:00,
2013-06-20 01:41:00,54.9,50.8,30.13,SSW,204,0.0,0.0,86,0.00,,---,0.00,VWS V14.01,2013-06-20 05:41:00,
2013-06-20 01:42:00,54.8,51.0,30.12,SSW,204,0.0,0.0,87,0.00,,---,0.00,VWS V14.01,2013-06-20 05:42:00,
2013-06-20 01:43:00,54.8,51.0,30.13,SSW,204,0.0,0.0,87,0.00,,---,0.00,VWS V14.01,2013-06-20 05:43:00,
2013-06-20 01:44:00,54.7,50.9,30.13,SSW,204,0.0,0.0,87,0.00,,---,0.00,VWS V14.01,2013-06-20 05:44:00,
2013-06-20 01:45:00,54.7,50.9,30.12,SSW,204,0.0,0.0,87,0.00,,---,0.00,VWS V14.01,2013-06-20 05:45:00,
2013-06-20 01:46:00,54.6,50.8,30.13,SSW,204,0.0,0.0,87,0.00,,---,0.00,VWS V14.01,2013-06-20 05:46:00,
2013-06-20 01:47:00,54.6,50.8,30.13,SSW,205,0.0,0.0,87,0.00,,---,0.00,VWS V14.01,2013-06-20 05:47:00,
2013-06-20 01:48:00,54.5,50.7,30.13,SSW,205,0.0,0.0,87,0.00,,---,0.00,VWS V14.01,2013-06-20 05:48:00,
2013-06-20 01:49:00,54.5,50.7,30.13,SSW,204,0.0,0.0,87,0.00,,---,0.00,VWS V14.01,2013-06-20 05:49:00,
2013-06-20 01:50:00,54.4,50.9,30.13,SSW,205,0.0,0.0,88,0.00,,---,0.00,VWS V14.01,2013-06-20 05:50:00,
2013-06-20 01:51:00,54.3,50.8,30.13,SSW,205,0.0,0.0,88,0.00,,---,0.00,VWS V14.01,2013-06-20 05:51:00,
2013-06-20 01:52:00,54.3,50.8,30.13,SSW,204,0.0,0.0,88,0.00,,---,0.00,VWS V14.01,2013-06-20 05:52:00,
2013-06-20 01:53:00,54.2,50.7,30.13,SSW,205,0.0,0.0,88,0.00,,---,0.00,VWS V14.01,2013-06-20 05:53:00,
2013-06-20 01:54:00,54.1,50.6,30.13,SSW,204,0.0,0.0,88,0.00,,---,0.00,VWS V14.01,2013-06-20 05:54:00,
2013-06-20 01:55:00,54.1,50.6,30.13,SSW,204,0.0,0.0,88,0.00,,---,0.00,VWS V14.01,2013-06-20 05:55:00,
2013-06-20 01:56:00,54.0,50.5,30.13,SSW,205,0.0,0.0,88,0.00,,---,0.00,VWS V14.01,2013-06-20 05:56:00,
2013-06-20 01:57:00,53.9,50.4,30.13,SSW,204,0.0,0.0,88,0.00,,---,0.00,VWS V14.01,2013-06-20 05:57:00,
2013-06-20 01:58:00,53.8,50.3,30.13,SSW,204,0.0,0.0,88,0.00,,---,0.00,VWS V14.01,2013-06-20 05:58:00,
2013-06-20 01:59:00,53.8,50.3,30.13,SSW,205,0.0,0.0,88,0.00,,---,0.00,VWS V14.01,2013-06-20 05:59:00,
2013-06-20 02:00:00,53.7,50.5,30.13,SSW,204,0.0,0.0,89,0.00,,---,0.00,VWS V14.01,2013-06-20 06:00:00,
2013-06-20 02:01:00,53.7,50.5,30.13,SSW,204,0.0,0.0,89,0.00,,---,0.00,VWS V14.01,2013-06-20 06:01:00,
2013-06-20 02:02:00,53.7,50.5,30.13,SSW,204,0.0,0.0,89,0.00,,---,0.00,VWS V14.01,2013-06-20 06:02:00,
2013-06-20 02:03:00,53.6,50.4,30.13,SSW,204,0.0,0.0,89,0.00,,---,0.00,VWS V14.01,2013-06-20 06:03:00,
2013-06-20 02:04:00,53.5,50.3,30.13,SSW,204,0.0,0.0,89,0.00,,---,0.00,VWS V14.01,2013-06-20 06:04:00,
2013-06-20 02:05:00,53.4,50.2,30.13,SSW,204,0.0,0.0,89,0.00,,---,0.00,VWS V14.01,2013-06-20 06:05:00,
2013-06-20 02:06:00,53.4,50.5,30.13,SSW,204,0.0,0.0,90,0.00,,---,0.00,VWS V14.01,2013-06-20 06:06:00,
2013-06-20 02:07:00,53.4,50.5,30.13,SSW,204,0.0,0.0,90,0.00,,---,0.00,VWS V14.01,2013-06-20 06:07:00,
2013-06-20 02:08:00,53.4,50.5,30.13,SSW,205,0.0,0.0,90,0.00,,---,0.00,VWS V14.01,2013-06-20 06:08:00,
2013-06-20 02:09:00,53.5,50.9,30.13,SSW,204,0.0,0.0,91,0.00,,---,0.00,VWS V14.01,2013-06-20 06:09:00,
2013-06-20 02:10:00,53.5,50.9,30.13,SSW,204,0.0,0.0,91,0.00,,---,0.00,VWS V14.01,2013-06-20 06:10:00,
2013-06-20 02:11:00,53.5,50.9,30.13,SSW,205,0.0,0.0,91,0.00,,---,0.00,VWS V14.01,2013-06-20 06:11:00,
2013-06-20 02:12:00,53.5,50.9,30.13,SSW,204,0.0,0.0,91,0.00,,---,0.00,VWS V14.01,2013-06-20 06:12:00,
2013-06-20 02:13:00,53.6,51.3,30.12,SSW,204,0.0,0.0,92,0.00,,---,0.00,VWS V14.01,2013-06-20 06:13:00,
2013-06-20 02:14:00,53.7,51.4,30.12,SSW,204,0.0,0.0,92,0.00,,---,0.00,VWS V14.01,2013-06-20 06:14:00,
2013-06-20 02:15:00,53.8,51.5,30.12,SSW,204,0.0,0.0,92,0.00,,---,0.00,VWS V14.01,2013-06-20 06:15:00,
2013-06-20 02:16:00,53.8,51.5,30.12,SSW,204,0.0,0.0,92,0.00,,---,0.00,VWS V14.01,2013-06-20 06:16:00,
2013-06-20 02:17:00,53.9,51.6,30.12,SSW,204,0.0,0.0,92,0.00,,---,0.00,VWS V14.01,2013-06-20 06:17:00,
2013-06-20 02:18:00,53.9,51.6,30.13,SSW,204,0.0,0.0,92,0.00,,---,0.00,VWS V14.01,2013-06-20 06:18:00,
2013-06-20 02:19:00,53.9,51.6,30.13,SSW,204,0.0,0.0,92,0.00,,---,0.00,VWS V14.01,2013-06-20 06:19:00,
2013-06-20 02:20:00,53.9,51.6,30.12,SSW,204,0.0,0.0,92,0.00,,---,0.00,VWS V14.01,2013-06-20 06:20:00,
2013-06-20 02:21:00,53.9,51.6,30.13,SSW,205,0.0,0.0,92,0.00,,---,0.00,VWS V14.01,2013-06-20 06:21:00,
2013-06-20 02:22:00,53.9,51.6,30.13,SSW,204,0.0,0.0,92,0.00,,---,0.00,VWS V14.01,2013-06-20 06:22:00,
2013-06-20 02:23:00,53.9,51.6,30.13,SSW,204,0.0,0.0,92,0.00,,---,0.00,VWS V14.01,2013-06-20 06:23:00,
2013-06-20 02:24:00,53.8,51.2,30.13,SSW,205,0.0,0.0,91,0.00,,---,0.00,VWS V14.01,2013-06-20 06:24:00,
2013-06-20 02:25:00,53.8,51.2,30.13,SSW,204,0.0,0.0,91,0.00,,---,0.00,VWS V14.01,2013-06-20 06:25:00,
2013-06-20 02:26:00,53.7,51.1,30.13,SSW,204,0.0,0.0,91,0.00,,---,0.00,VWS V14.01,2013-06-20 06:26:00,
2013-06-20 02:27:00,53.6,51.0,30.13,SSW,205,0.0,0.0,91,0.00,,---,0.00,VWS V14.01,2013-06-20 06:27:00,
2013-06-20 02:28:00,53.6,51.0,30.13,SSW,205,0.0,0.0,91,0.00,,---,0.00,VWS V14.01,2013-06-20 06:28:00,
2013-06-20 02:29:00,53.5,50.9,30.13,SSW,204,0.0,0.0,91,0.00,,---,0.00,VWS V14.01,2013-06-20 06:29:00,
2013-06-20 02:30:00,53.4,50.8,30.13,SSW,204,0.0,0.0,91,0.00,,---,0.00,VWS V14.01,2013-06-20 06:30:00,
2013-06-20 02:31:00,53.3,50.7,30.13,SSW,204,0.0,0.0,91,0.00,,---,0.00,VWS V14.01,2013-06-20 06:31:00,
2013-06-20 02:32:00,53.3,50.7,30.13,SSW,204,0.0,0.0,91,0.00,,---,0.00,VWS V14.01,2013-06-20 06:32:00,
2013-06-20 02:33:00,53.2,50.9,30.13,SSW,204,0.0,0.0,92,0.00,,---,0.00,VWS V14.01,2013-06-20 06:33:00,
2013-06-20 02:34:00,53.1,50.8,30.13,SSW,204,0.0,0.0,92,0.00,,---,0.00,VWS V14.01,2013-06-20 06:34:00,
2013-06-20 02:35:00,53.0,50.7,30.13,SSW,204,0.0,0.0,92,0.00,,---,0.00,VWS V14.01,2013-06-20 06:35:00,
2013-06-20 02:36:00,53.0,50.7,30.13,SSW,204,0.0,0.0,92,0.00,,---,0.00,VWS V14.01,2013-06-20 06:36:00,
2013-06-20 02:37:00,52.9,50.6,30.13,SSW,205,0.0,0.0,92,0.00,,---,0.00,VWS V14.01,2013-06-20 06:37:00,
2013-06-20 02:38:00,52.8,50.5,30.13,SSW,204,0.0,0.0,92,0.00,,---,0.00,VWS V14.01,2013-06-20 06:38:00,
2013-06-20 02:39:00,52.7,50.5,30.13,SSW,204,0.0,0.0,92,0.00,,---,0.00,VWS V14.01,2013-06-20 06:39:00,
2013-06-20 02:40:00,52.7,50.5,30.13,SSW,204,0.0,0.0,92,0.00,,---,0.00,VWS V14.01,2013-06-20 06:40:00,
2013-06-20 02:41:00,52.7,50.5,30.13,SSW,204,0.0,0.0,92,0.00,,---,0.00,VWS V14.01,2013-06-20 06:41:00,
2013-06-20 02:42:00,52.6,50.6,30.13,SSW,204,0.0,0.0,93,0.00,,---,0.00,VWS V14.01,2013-06-20 06:42:00,
2013-06-20 02:43:00,52.6,50.6,30.13,SSW,204,0.0,0.0,93,0.00,,---,0.00,VWS V14.01,2013-06-20 06:43:00,
2013-06-20 02:44:00,52.6,50.6,30.13,SSW,204,0.0,0.0,93,0.00,,---,0.00,VWS V14.01,2013-06-20 06:44:00,
2013-06-20 02:45:00,52.5,50.5,30.13,SSW,205,0.0,0.0,93,0.00,,---,0.00,VWS V14.01,2013-06-20 06:45:00,
2013-06-20 02:46:00,52.5,50.5,30.13,SSW,205,0.0,0.0,93,0.00,,---,0.00,VWS V14.01,2013-06-20 06:46:00,
2013-06-20 02:47:00,52.4,50.4,30.13,SSW,205,0.0,0.0,93,0.00,,---,0.00,VWS V14.01,2013-06-20 06:47:00,
2013-06-20 02:48:00,52.4,50.4,30.13,SSW,204,0.0,0.0,93,0.00,,---,0.00,VWS V14.01,2013-06-20 06:48:00,
2013-06-20 02:49:00,52.3,50.3,30.13,SSW,204,0.0,0.0,93,0.00,,---,0.00,VWS V14.01,2013-06-20 06:49:00,
2013-06-20 02:50:00,52.2,50.2,30.13,SSW,204,0.0,0.0,93,0.00,,---,0.00,VWS V14.01,2013-06-20 06:50:00,
2013-06-20 02:51:00,52.1,50.1,30.13,SSW,204,0.0,0.0,93,0.00,,---,0.00,VWS V14.01,2013-06-20 06:51:00,
2013-06-20 02:52:00,52.1,50.1,30.13,SSW,205,0.0,0.0,93,0.00,,---,0.00,VWS V14.01,2013-06-20 06:52:00,
2013-06-20 02:53:00,52.0,50.0,30.13,SSW,205,0.0,0.0,93,0.00,,---,0.00,VWS V14.01,2013-06-20 06:53:00,
2013-06-20 02:54:00,51.9,49.9,30.13,SSW,204,0.0,0.0,93,0.00,,---,0.00,VWS V14.01,2013-06-20 06:54:00,
2013-06-20 02:55:00,51.8,49.8,30.13,SSW,205,0.0,0.0,93,0.00,,---,0.00,VWS V14.01,2013-06-20 06:55:00,
2013-06-20 02:56:00,51.8,49.8,30.13,SSW,204,0.0,0.0,93,0.00,,---,0.00,VWS V14.01,2013-06-20 06:56:00,
2013-06-20 02:57:00,51.7,49.8,30.13,SSW,204,0.0,0.0,93,0.00,,---,0.00,VWS V14.01,2013-06-20 06:57:00,
2013-06-20 02:58:00,51.7,49.8,30.13,SSW,204,0.0,0.0,93,0.00,,---,0.00,VWS V14.01,2013-06-20 06:58:00,
2013-06-20 02:59:00,51.6,49.7,30.13,SSW,204,0.0,0.0,93,0.00,,---,0.00,VWS V14.01,2013-06-20 06:59:00,
2013-06-20 03:00:00,51.7,49.8,30.13,SSW,204,0.0,0.0,93,0.00,,---,0.00,VWS V14.01,2013-06-20 07:00:00,
2013-06-20 03:01:00,51.7,50.0,30.13,SSW,204,0.0,0.0,94,0.00,,---,0.00,VWS V14.01,2013-06-20 07:01:00,
2013-06-20 03:02:00,51.7,50.0,30.14,SSW,205,0.0,0.0,94,0.00,,---,0.00,VWS V14.01,2013-06-20 07:02:00,
2013-06-20 03:03:00,51.8,50.1,30.14,SSW,204,0.0,0.0,94,0.00,,---,0.00,VWS V14.01,2013-06-20 07:03:00,
2013-06-20 03:04:00,51.8,50.1,30.14,SSW,204,0.0,0.0,94,0.00,,---,0.00,VWS V14.01,2013-06-20 07:04:00,
2013-06-20 03:05:00,51.8,50.1,30.14,SSW,204,0.0,0.0,94,0.00,,---,0.00,VWS V14.01,2013-06-20 07:05:00,
2013-06-20 03:06:00,51.7,50.0,30.14,SSW,205,0.0,0.0,94,0.00,,---,0.00,VWS V14.01,2013-06-20 07:06:00,
2013-06-20 03:07:00,51.7,50.0,30.14,SSW,205,0.0,0.0,94,0.00,,---,0.00,VWS V14.01,2013-06-20 07:07:00,
2013-06-20 03:08:00,51.7,50.0,30.14,SSW,204,0.0,0.0,94,0.00,,---,0.00,VWS V14.01,2013-06-20 07:08:00,
2013-06-20 03:09:00,51.6,49.9,30.14,SSW,204,0.0,0.0,94,0.00,,---,0.00,VWS V14.01,2013-06-20 07:09:00,
2013-06-20 03:10:00,51.5,49.8,30.14,SSW,204,0.0,0.0,94,0.00,,---,0.00,VWS V14.01,2013-06-20 07:10:00,
2013-06-20 03:11:00,51.5,49.8,30.14,SSW,204,0.0,0.0,94,0.00,,---,0.00,VWS V14.01,2013-06-20 07:11:00,
2013-06-20 03:12:00,51.5,49.8,30.14,SSW,204,0.0,0.0,94,0.00,,---,0.00,VWS V14.01,2013-06-20 07:12:00,
2013-06-20 03:13:00,51.4,49.7,30.14,SSW,204,0.0,0.0,94,0.00,,---,0.00,VWS V14.01,2013-06-20 07:13:00,
2013-06-20 03:14:00,51.4,49.7,30.14,SSW,205,0.0,0.0,94,0.00,,---,0.00,VWS V14.01,2013-06-20 07:14:00,
2013-06-20 03:15:00,51.4,49.7,30.14,SSW,205,0.0,0.0,94,0.00,,---,0.00,VWS V14.01,2013-06-20 07:15:00,
2013-06-20 03:16:00,51.4,49.7,30.14,SSW,204,0.0,0.0,94,0.00,,---,0.00,VWS V14.01,2013-06-20 07:16:00,
2013-06-20 03:17:00,51.4,49.7,30.13,SSW,205,0.0,0.0,94,0.00,,---,0.00,VWS V14.01,2013-06-20 07:17:00,
2013-06-20 03:18:00,51.3,49.6,30.13,SSW,204,0.0,0.0,94,0.00,,---,0.00,VWS V14.01,2013-06-20 07:18:00,
2013-06-20 03:19:00,51.3,49.6,30.13,SSW,204,0.0,0.0,94,0.00,,---,0.00,VWS V14.01,2013-06-20 07:19:00,
2013-06-20 03:20:00,51.3,49.6,30.14,SSW,204,0.0,0.0,94,0.00,,---,0.00,VWS V14.01,2013-06-20 07:20:00,
2013-06-20 03:21:00,51.2,49.5,30.13,SSW,204,0.0,0.0,94,0.00,,---,0.00,VWS V14.01,2013-06-20 07:21:00,
2013-06-20 03:22:00,51.3,49.6,30.13,SSW,205,0.0,0.0,94,0.00,,---,0.00,VWS V14.01,2013-06-20 07:22:00,
2013-06-20 03:23:00,51.3,49.9,30.13,SSW,204,0.0,0.0,95,0.00,,---,0.00,VWS V14.01,2013-06-20 07:23:00,
2013-06-20 03:24:00,51.3,49.9,30.13,SSW,204,0.0,0.0,95,0.00,,---,0.00,VWS V14.01,2013-06-20 07:24:00,
2013-06-20 03:25:00,51.3,49.9,30.13,SSW,205,0.0,0.0,95,0.00,,---,0.00,VWS V14.01,2013-06-20 07:25:00,
2013-06-20 03:26:00,51.2,49.8,30.13,SSW,204,0.0,0.0,95,0.00,,---,0.00,VWS V14.01,2013-06-20 07:26:00,
2013-06-20 03:27:00,51.2,49.8,30.13,SSW,205,0.0,0.0,95,0.00,,---,0.00,VWS V14.01,2013-06-20 07:27:00,
2013-06-20 03:28:00,51.3,49.9,30.13,SSW,204,0.0,0.0,95,0.00,,---,0.00,VWS V14.01,2013-06-20 07:28:00,
2013-06-20 03:29:00,51.3,49.9,30.13,SSW,204,0.0,0.0,95,0.00,,---,0.00,VWS V14.01,2013-06-20 07:29:00,
2013-06-20 03:30:00,51.3,49.9,30.14,SSW,204,0.0,0.0,95,0.00,,---,0.00,VWS V14.01,2013-06-20 07:30:00,
2013-06-20 03:31:00,51.3,49.9,30.13,SSW,204,0.0,0.0,95,0.00,,---,0.00,VWS V14.01,2013-06-20 07:31:00,
2013-06-20 03:32:00,51.3,49.9,30.14,SSW,204,0.0,0.0,95,0.00,,---,0.00,VWS V14.01,2013-06-20 07:32:00,
2013-06-20 03:33:00,51.2,49.8,30.14,SSW,205,0.0,0.0,95,0.00,,---,0.00,VWS V14.01,2013-06-20 07:33:00,
2013-06-20 03:34:00,51.2,49.8,30.13,SSW,204,0.0,0.0,95,0.00,,---,0.00,VWS V14.01,2013-06-20 07:34:00,
2013-06-20 03:35:00,51.2,49.8,30.13,SSW,204,0.0,0.0,95,0.00,,---,0.00,VWS V14.01,2013-06-20 07:35:00,
2013-06-20 03:36:00,51.3,49.9,30.13,SSW,205,0.0,0.0,95,0.00,,---,0.00,VWS V14.01,2013-06-20 07:36:00,
2013-06-20 03:37:00,51.3,49.9,30.14,SSW,204,0.0,0.0,95,0.00,,---,0.00,VWS V14.01,2013-06-20 07:37:00,
2013-06-20 03:38:00,51.3,49.9,30.13,SSW,204,0.0,0.0,95,0.00,,---,0.00,VWS V14.01,2013-06-20 07:38:00,
2013-06-20 03:39:00,51.3,49.9,30.13,SSW,204,0.0,0.0,95,0.00,,---,0.00,VWS V14.01,2013-06-20 07:39:00,
2013-06-20 03:40:00,51.2,49.8,30.14,SSW,204,0.0,0.0,95,0.00,,---,0.00,VWS V14.01,2013-06-20 07:40:00,
2013-06-20 03:41:00,51.2,49.8,30.14,SSW,204,0.0,0.0,95,0.00,,---,0.00,VWS V14.01,2013-06-20 07:41:00,
2013-06-20 03:42:00,51.2,49.8,30.13,SSW,204,0.0,0.0,95,0.00,,---,0.00,VWS V14.01,2013-06-20 07:42:00,
2013-06-20 03:43:00,51.1,49.7,30.13,SSW,204,0.0,0.0,95,0.00,,---,0.00,VWS V14.01,2013-06-20 07:43:00,
2013-06-20 03:44:00,51.0,49.6,30.14,SSW,205,0.0,0.0,95,0.00,,---,0.00,VWS V14.01,2013-06-20 07:44:00,
2013-06-20 03:45:00,51.0,49.6,30.14,SSW,204,0.0,0.0,95,0.00,,---,0.00,VWS V14.01,2013-06-20 07:45:00,
2013-06-20 03:46:00,51.0,49.6,30.14,SSW,204,0.0,0.0,95,0.00,,---,0.00,VWS V14.01,2013-06-20 07:46:00,
2013-06-20 03:47:00,51.0,49.6,30.14,SSW,205,0.0,0.0,95,0.00,,---,0.00,VWS V14.01,2013-06-20 07:47:00,
2013-06-20 03:48:00,51.0,49.6,30.14,SSW,204,0.0,0.0,95,0.00,,---,0.00,VWS V14.01,2013-06-20 07:48:00,
2013-06-20 03:49:00,51.0,49.6,30.14,SSW,204,0.0,0.0,95,0.00,,---,0.00,VWS V14.01,2013-06-20 07:49:00,
2013-06-20 03:50:00,51.0,49.6,30.14,SSW,204,0.0,0.0,95,0.00,,---,0.00,VWS V14.01,2013-06-20 07:50:00,
2013-06-20 03:51:00,50.9,49.5,30.14,SSW,205,0.0,0.0,95,0.00,,---,0.00,VWS V14.01,2013-06-20 07:51:00,
2013-06-20 03:52:00,50.9,49.5,30.14,SSW,205,0.0,0.0,95,0.00,,---,0.00,VWS V14.01,2013-06-20 07:52:00,
2013-06-20 03:53:00,50.9,49.5,30.14,SSW,204,0.0,0.0,95,0.00,,---,0.00,VWS V14.01,2013-06-20 07:53:00,
2013-06-20 03:54:00,50.9,49.5,30.14,SSW,204,0.0,0.0,95,0.00,,---,0.00,VWS V14.01,2013-06-20 07:54:00,
2013-06-20 03:55:00,50.9,49.5,30.14,SSW,204,0.0,0.0,95,0.00,,---,0.00,VWS V14.01,2013-06-20 07:55:00,
2013-06-20 03:56:00,50.9,49.5,30.14,SSW,204,0.0,0.0,95,0.00,,---,0.00,VWS V14.01,2013-06-20 07:56:00,
2013-06-20 03:57:00,50.9,49.5,30.14,SSW,204,0.0,0.0,95,0.00,,---,0.00,VWS V14.01,2013-06-20 07:57:00,
2013-06-20 03:58:00,50.8,49.4,30.14,SSW,205,0.0,0.0,95,0.00,,---,0.00,VWS V14.01,2013-06-20 07:58:00,
2013-06-20 03:59:00,50.8,49.4,30.14,SSW,204,0.0,0.0,95,0.00,,---,0.00,VWS V14.01,2013-06-20 07:59:00,
2013-06-20 04:00:00,50.8,49.4,30.14,SSW,205,0.0,0.0,95,0.00,,---,0.00,VWS V14.01,2013-06-20 08:00:00,
2013-06-20 04:01:00,50.8,49.4,30.14,SSW,205,0.0,0.0,95,0.00,,---,0.00,VWS V14.01,2013-06-20 08:01:00,
2013-06-20 04:02:00,50.8,49.4,30.14,SSW,204,0.0,0.0,95,0.00,,---,0.00,VWS V14.01,2013-06-20 08:02:00,
2013-06-20 04:03:00,50.8,49.4,30.14,SSW,205,0.0,0.0,95,0.00,,---,0.00,VWS V14.01,2013-06-20 08:03:00,
2013-06-20 04:04:00,50.8,49.4,30.14,SSW,205,0.0,0.0,95,0.00,,---,0.00,VWS V14.01,2013-06-20 08:04:00,
2013-06-20 04:05:00,50.7,49.3,30.14,SSW,204,0.0,0.0,95,0.00,,---,0.00,VWS V14.01,2013-06-20 08:05:00,
2013-06-20 04:06:00,50.7,49.3,30.14,SSW,204,0.0,0.0,95,0.00,,---,0.00,VWS V14.01,2013-06-20 08:06:00,
2013-06-20 04:07:00,50.7,49.3,30.14,SSW,204,0.0,0.0,95,0.00,,---,0.00,VWS V14.01,2013-06-20 08:07:00,
2013-06-20 04:08:00,50.7,49.6,30.14,SSW,204,0.0,0.0,96,0.00,,---,0.00,VWS V14.01,2013-06-20 08:08:00,
2013-06-20 04:09:00,50.8,49.7,30.15,SSW,204,0.0,0.0,96,0.00,,---,0.00,VWS V14.01,2013-06-20 08:09:00,
2013-06-20 04:10:00,50.7,49.6,30.15,SSW,204,0.0,0.0,96,0.00,,---,0.00,VWS V14.01,2013-06-20 08:10:00,
2013-06-20 04:11:00,50.7,49.6,30.14,SSW,205,0.0,0.0,96,0.00,,---,0.00,VWS V14.01,2013-06-20 08:11:00,
2013-06-20 04:12:00,50.6,49.5,30.15,SSW,204,0.0,0.0,96,0.00,,---,0.00,VWS V14.01,2013-06-20 08:12:00,
2013-06-20 04:13:00,50.6,49.5,30.15,SSW,205,0.0,0.0,96,0.00,,---,0.00,VWS V14.01,2013-06-20 08:13:00,
2013-06-20 04:14:00,50.7,49.6,30.15,SSW,204,0.0,0.0,96,0.00,,---,0.00,VWS V14.01,2013-06-20 08:14:00,
2013-06-20 04:15:00,50.7,49.6,30.15,SSW,204,0.0,0.0,96,0.00,,---,0.00,VWS V14.01,2013-06-20 08:15:00,
2013-06-20 04:16:00,50.7,49.6,30.15,SSW,204,0.0,0.0,96,0.00,,---,0.00,VWS V14.01,2013-06-20 08:16:00,
2013-06-20 04:17:00,50.6,49.5,30.15,SSW,205,0.0,0.0,96,0.00,,---,0.00,VWS V14.01,2013-06-20 08:17:00,
2013-06-20 04:18:00,50.6,49.5,30.15,SSW,204,0.0,0.0,96,0.00,,---,0.00,VWS V14.01,2013-06-20 08:18:00,
2013-06-20 04:19:00,50.6,49.5,30.15,SSW,204,0.0,0.0,96,0.00,,---,0.00,VWS V14.01,2013-06-20 08:19:00,
2013-06-20 04:20:00,50.6,49.5,30.15,SSW,204,0.0,0.0,96,0.00,,---,0.00,VWS V14.01,2013-06-20 08:20:00,
2013-06-20 04:21:00,50.6,49.5,30.14,SSW,205,0.0,0.0,96,0.00,,---,0.00,VWS V14.01,2013-06-20 08:21:00,
2013-06-20 04:22:00,50.7,49.6,30.14,SSW,204,0.0,0.0,96,0.00,,---,0.00,VWS V14.01,2013-06-20 08:22:00,
2013-06-20 04:23:00,50.8,49.7,30.14,SSW,204,0.0,0.0,96,0.00,,---,0.00,VWS V14.01,2013-06-20 08:23:00,
2013-06-20 04:24:00,50.9,49.8,30.14,SSW,205,0.0,0.0,96,0.00,,---,0.00,VWS V14.01,2013-06-20 08:24:00,
2013-06-20 04:25:00,51.0,49.9,30.14,SSW,204,0.0,0.0,96,0.00,,---,0.00,VWS V14.01,2013-06-20 08:25:00,
2013-06-20 04:26:00,51.0,49.9,30.14,SSW,205,0.0,0.0,96,0.00,,---,0.00,VWS V14.01,2013-06-20 08:26:00,
2013-06-20 04:27:00,51.1,50.0,30.14,SSW,205,0.0,0.0,96,0.00,,---,0.00,VWS V14.01,2013-06-20 08:27:00,
2013-06-20 04:28:00,51.1,50.0,30.14,SSW,204,0.0,0.0,96,0.00,,---,0.00,VWS V14.01,2013-06-20 08:28:00,
2013-06-20 04:29:00,51.0,49.9,30.14,SSW,204,0.0,0.0,96,0.00,,---,0.00,VWS V14.01,2013-06-20 08:29:00,
2013-06-20 04:30:00,51.0,49.9,30.14,SSW,204,0.0,0.0,96,0.00,,---,0.00,VWS V14.01,2013-06-20 08:30:00,
2013-06-20 04:31:00,51.0,49.9,30.14,SSW,205,0.0,0.0,96,0.00,,---,0.00,VWS V14.01,2013-06-20 08:31:00,
2013-06-20 04:32:00,50.9,49.8,30.15,SSW,204,0.0,0.0,96,0.00,,---,0.00,VWS V14.01,2013-06-20 08:32:00,
2013-06-20 04:33:00,50.9,49.8,30.15,SSW,204,0.0,0.0,96,0.00,,---,0.00,VWS V14.01,2013-06-20 08:33:00,
2013-06-20 04:34:00,50.9,49.8,30.14,SSW,204,0.0,0.0,96,0.00,,---,0.00,VWS V14.01,2013-06-20 08:34:00,
2013-06-20 04:35:00,50.9,49.8,30.15,SSW,204,0.0,0.0,96,0.00,,---,0.00,VWS V14.01,2013-06-20 08:35:00,
2013-06-20 04:36:00,51.0,49.9,30.15,SSW,205,0.0,0.0,96,0.00,,---,0.00,VWS V14.01,2013-06-20 08:36:00,
2013-06-20 04:37:00,51.0,49.9,30.15,SSW,204,0.0,0.0,96,0.00,,---,0.00,VWS V14.01,2013-06-20 08:37:00,
2013-06-20 04:38:00,51.0,49.9,30.15,SSW,204,0.0,0.0,96,0.00,,---,0.00,VWS V14.01,2013-06-20 08:38:00,
2013-06-20 04:39:00,50.9,49.8,30.15,SSW,204,0.0,0.0,96,0.00,,---,0.00,VWS V14.01,2013-06-20 08:39:00,
2013-06-20 04:40:00,50.9,49.8,30.15,SSW,204,0.0,0.0,96,0.00,,---,0.00,VWS V14.01,2013-06-20 08:40:00,
2013-06-20 04:41:00,50.9,49.8,30.15,SSW,204,0.0,0.0,96,0.00,,---,0.00,VWS V14.01,2013-06-20 08:41:00,
2013-06-20 04:42:00,50.9,49.8,30.15,SSW,205,0.0,0.0,96,0.00,,---,0.00,VWS V14.01,2013-06-20 08:42:00,
2013-06-20 04:43:00,50.8,49.7,30.15,SSW,204,0.0,0.0,96,0.00,,---,0.00,VWS V14.01,2013-06-20 08:43:00,
2013-06-20 04:44:00,50.8,49.7,30.15,SSW,205,0.0,0.0,96,0.00,,---,0.00,VWS V14.01,2013-06-20 08:44:00,
2013-06-20 04:45:00,50.8,49.7,30.15,SSW,205,0.0,0.0,96,0.00,,---,0.00,VWS V14.01,2013-06-20 08:45:00,
2013-06-20 04:46:00,50.9,49.8,30.15,SSW,204,0.0,0.0,96,0.00,,---,0.00,VWS V14.01,2013-06-20 08:46:00,
2013-06-20 04:47:00,51.0,49.9,30.15,SSW,205,0.0,0.0,96,0.00,,---,0.00,VWS V14.01,2013-06-20 08:47:00,
2013-06-20 04:48:00,51.1,50.0,30.15,SSW,205,0.0,0.0,96,0.00,,---,0.00,VWS V14.01,2013-06-20 08:48:00,
2013-06-20 04:49:00,51.1,50.0,30.15,SSW,204,0.0,0.0,96,0.00,,---,0.00,VWS V14.01,2013-06-20 08:49:00,
2013-06-20 04:50:00,51.2,50.1,30.15,SSW,204,0.0,0.0,96,0.00,,---,0.00,VWS V14.01,2013-06-20 08:50:00,
2013-06-20 04:51:00,51.2,50.1,30.15,SSW,204,0.0,0.0,96,0.00,,---,0.00,VWS V14.01,2013-06-20 08:51:00,
2013-06-20 04:52:00,51.2,50.1,30.15,SSW,204,0.0,0.0,96,0.00,,---,0.00,VWS V14.01,2013-06-20 08:52:00,
2013-06-20 04:53:00,51.2,50.1,30.15,SSW,205,0.0,0.0,96,0.00,,---,0.00,VWS V14.01,2013-06-20 08:53:00,
2013-06-20 04:54:00,51.2,50.1,30.15,SSW,205,0.0,0.0,96,0.00,,---,0.00,VWS V14.01,2013-06-20 08:54:00,
2013-06-20 04:55:00,51.1,50.0,30.15,SSW,204,0.0,0.0,96,0.00,,---,0.00,VWS V14.01,2013-06-20 08:55:00,
2013-06-20 04:56:00,51.1,50.0,30.15,SSW,204,0.0,0.0,96,0.00,,---,0.00,VWS V14.01,2013-06-20 08:56:00,
2013-06-20 04:57:00,51.1,50.0,30.15,SSW,204,0.0,0.0,96,0.00,,---,0.00,VWS V14.01,2013-06-20 08:57:00,
2013-06-20 04:58:00,51.0,49.9,30.15,SSW,204,0.0,0.0,96,0.00,,---,0.00,VWS V14.01,2013-06-20 08:58:00,
2013-06-20 04:59:00,51.0,49.9,30.15,SSW,204,0.0,0.0,96,0.00,,---,0.00,VWS V14.01,2013-06-20 08:59:00,
2013-06-20 05:00:00,51.0,49.9,30.16,SSW,204,0.0,0.0,96,0.00,,---,0.00,VWS V14.01,2013-06-20 09:00:00,
2013-06-20 05:01:00,51.0,49.9,30.15,SSW,204,0.0,0.0,96,0.00,,---,0.00,VWS V14.01,2013-06-20 09:01:00,
2013-06-20 05:02:00,50.9,49.8,30.15,SSW,205,0.0,0.0,96,0.00,,---,0.00,VWS V14.01,2013-06-20 09:02:00,
2013-06-20 05:03:00,50.9,49.8,30.15,SSW,204,0.0,0.0,96,0.00,,---,0.00,VWS V14.01,2013-06-20 09:03:00,
2013-06-20 05:04:00,50.9,49.8,30.15,SSW,204,0.0,0.0,96,0.00,,---,0.00,VWS V14.01,2013-06-20 09:04:00,
2013-06-20 05:05:00,51.0,49.9,30.15,SSW,205,0.0,0.0,96,0.00,,---,0.00,VWS V14.01,2013-06-20 09:05:00,
2013-06-20 05:06:00,51.0,49.9,30.15,SSW,205,0.0,0.0,96,0.00,,---,0.00,VWS V14.01,2013-06-20 09:06:00,
2013-06-20 05:07:00,51.0,49.9,30.15,SSW,204,0.0,0.0,96,0.00,,---,0.00,VWS V14.01,2013-06-20 09:07:00,
2013-06-20 05:08:00,51.0,49.9,30.15,SSW,204,0.0,0.0,96,0.00,,---,0.00,VWS V14.01,2013-06-20 09:08:00,
2013-06-20 05:09:00,51.0,49.9,30.15,SSW,204,0.0,0.0,96,0.00,,---,0.00,VWS V14.01,2013-06-20 09:09:00,
2013-06-20 05:10:00,51.0,49.9,30.15,SSW,204,0.0,0.0,96,0.00,,---,0.00,VWS V14.01,2013-06-20 09:10:00,
2013-06-20 05:11:00,51.0,49.9,30.15,SSW,204,0.0,0.0,96,0.00,,---,0.00,VWS V14.01,2013-06-20 09:11:00,
2013-06-20 05:12:00,50.9,49.8,30.15,SSW,204,0.0,0.0,96,0.00,,---,0.00,VWS V14.01,2013-06-20 09:12:00,
2013-06-20 05:13:00,50.9,49.8,30.15,SSW,204,0.0,0.0,96,0.00,,---,0.00,VWS V14.01,2013-06-20 09:13:00,
2013-06-20 05:14:00,50.9,49.8,30.15,SSW,204,0.0,0.0,96,0.00,,---,0.00,VWS V14.01,2013-06-20 09:14:00,
2013-06-20 05:15:00,50.9,49.8,30.15,SSW,204,0.0,0.0,96,0.00,,---,0.00,VWS V14.01,2013-06-20 09:15:00,
2013-06-20 05:16:00,50.9,49.8,30.15,SSW,204,0.0,0.0,96,0.00,,---,0.00,VWS V14.01,2013-06-20 09:16:00,
2013-06-20 05:17:00,50.8,49.7,30.15,SSW,204,0.0,0.0,96,0.00,,---,0.00,VWS V14.01,2013-06-20 09:17:00,
2013-06-20 05:18:00,50.8,49.7,30.15,SSW,204,0.0,0.0,96,0.00,,---,0.00,VWS V14.01,2013-06-20 09:18:00,
2013-06-20 05:19:00,50.8,49.7,30.15,SSW,204,0.0,0.0,96,0.00,,---,0.00,VWS V14.01,2013-06-20 09:19:00,
2013-06-20 05:20:00,50.8,49.7,30.15,SSW,205,0.0,0.0,96,0.00,,---,0.00,VWS V14.01,2013-06-20 09:20:00,
2013-06-20 05:21:00,50.7,49.6,30.15,SSW,204,0.0,0.0,96,0.00,,---,0.00,VWS V14.01,2013-06-20 09:21:00,
2013-06-20 05:22:00,50.7,49.6,30.16,SSW,204,0.0,0.0,96,0.00,,---,0.00,VWS V14.01,2013-06-20 09:22:00,
2013-06-20 05:23:00,50.7,49.6,30.15,SSW,204,0.0,0.0,96,0.00,,---,0.00,VWS V14.01,2013-06-20 09:23:00,
2013-06-20 05:24:00,50.7,49.6,30.15,SSW,205,0.0,0.0,96,0.00,,---,0.00,VWS V14.01,2013-06-20 09:24:00,
2013-06-20 05:25:00,50.6,49.5,30.16,SSW,204,0.0,0.0,96,0.00,,---,0.00,VWS V14.01,2013-06-20 09:25:00,
2013-06-20 05:26:00,50.6,49.5,30.15,SSW,205,0.0,0.0,96,0.00,,---,0.00,VWS V14.01,2013-06-20 09:26:00,
2013-06-20 05:27:00,50.6,49.5,30.15,SSW,205,0.0,0.0,96,0.00,,---,0.00,VWS V14.01,2013-06-20 09:27:00,
2013-06-20 05:28:00,50.7,49.6,30.15,SSW,205,0.0,0.0,96,0.00,,---,0.00,VWS V14.01,2013-06-20 09:28:00,
2013-06-20 05:29:00,50.8,49.7,30.15,SSW,205,0.0,0.0,96,0.00,,---,0.00,VWS V14.01,2013-06-20 09:29:00,
2013-06-20 05:30:00,50.8,49.7,30.16,SSW,205,0.0,0.0,96,0.00,,---,0.00,VWS V14.01,2013-06-20 09:30:00,
2013-06-20 05:31:00,50.8,49.7,30.15,SSW,200,0.0,0.0,96,0.00,,---,0.00,VWS V14.01,2013-06-20 09:31:00,
2013-06-20 05:32:00,50.8,49.7,30.15,SSW,200,0.0,0.0,96,0.00,,---,0.00,VWS V14.01,2013-06-20 09:32:00,
2013-06-20 05:33:00,50.8,49.7,30.16,SSW,200,0.0,0.0,96,0.00,,---,0.00,VWS V14.01,2013-06-20 09:33:00,
2013-06-20 05:34:00,50.8,49.7,30.16,SSW,200,0.0,0.0,96,0.00,,---,0.00,VWS V14.01,2013-06-20 09:34:00,
2013-06-20 05:35:00,50.8,49.7,30.16,SSW,200,0.0,0.0,96,0.00,,---,0.00,VWS V14.01,2013-06-20 09:35:00,
2013-06-20 05:36:00,50.8,49.7,30.15,SSW,200,0.0,0.0,96,0.00,,---,0.00,VWS V14.01,2013-06-20 09:36:00,
2013-06-20 05:37:00,50.8,49.7,30.15,SSW,200,0.0,0.0,96,0.00,,---,0.00,VWS V14.01,2013-06-20 09:37:00,
2013-06-20 05:38:00,50.8,49.7,30.15,SSW,200,0.0,0.0,96,0.00,,---,0.00,VWS V14.01,2013-06-20 09:38:00,
2013-06-20 05:39:00,50.9,49.8,30.16,SSW,200,0.0,0.0,96,0.00,,---,0.00,VWS V14.01,2013-06-20 09:39:00,
2013-06-20 05:40:00,50.9,49.8,30.15,SSW,200,0.0,0.0,96,0.00,,---,0.00,VWS V14.01,2013-06-20 09:40:00,
2013-06-20 05:41:00,51.0,49.9,30.15,SSW,200,0.0,0.0,96,0.00,,---,0.00,VWS V14.01,2013-06-20 09:41:00,
2013-06-20 05:42:00,51.1,50.0,30.16,SSW,200,0.0,0.0,96,0.00,,---,0.00,VWS V14.01,2013-06-20 09:42:00,
2013-06-20 05:43:00,51.2,50.1,30.16,SSW,200,0.0,0.0,96,0.00,,---,0.00,VWS V14.01,2013-06-20 09:43:00,
2013-06-20 05:44:00,51.4,50.3,30.16,SSW,200,0.0,0.0,96,0.00,,---,0.00,VWS V14.01,2013-06-20 09:44:00,
2013-06-20 05:45:00,51.5,50.7,30.15,SSW,200,0.0,0.0,97,0.00,,---,0.00,VWS V14.01,2013-06-20 09:45:00,
2013-06-20 05:46:00,51.5,50.7,30.15,SSW,200,0.0,0.0,97,0.00,,---,0.00,VWS V14.01,2013-06-20 09:46:00,
2013-06-20 05:47:00,51.6,50.8,30.15,SSW,200,0.0,0.0,97,0.00,,---,0.00,VWS V14.01,2013-06-20 09:47:00,
2013-06-20 05:48:00,51.6,50.8,30.15,SSW,200,0.0,0.0,97,0.00,,---,0.00,VWS V14.01,2013-06-20 09:48:00,
2013-06-20 05:49:00,51.6,50.8,30.15,SSW,200,0.0,0.0,97,0.00,,---,0.00,VWS V14.01,2013-06-20 09:49:00,
2013-06-20 05:50:00,51.6,50.8,30.15,SSW,200,0.0,0.0,97,0.00,,---,0.00,VWS V14.01,2013-06-20 09:50:00,
2013-06-20 05:51:00,51.7,50.9,30.15,SSW,200,0.0,0.0,97,0.00,,---,0.00,VWS V14.01,2013-06-20 09:51:00,
2013-06-20 05:52:00,51.7,50.9,30.15,SSW,200,0.0,0.0,97,0.00,,---,0.00,VWS V14.01,2013-06-20 09:52:00,
2013-06-20 05:53:00,51.8,51.0,30.15,SSW,200,0.0,0.0,97,0.00,,---,0.00,VWS V14.01,2013-06-20 09:53:00,
2013-06-20 05:54:00,51.8,51.0,30.15,SSW,200,0.0,0.0,97,0.00,,---,0.00,VWS V14.01,2013-06-20 09:54:00,
2013-06-20 05:55:00,51.9,51.1,30.15,SSW,200,0.0,0.0,97,0.00,,---,0.00,VWS V14.01,2013-06-20 09:55:00,
2013-06-20 05:56:00,52.0,51.2,30.15,SSW,200,0.0,0.0,97,0.00,,---,0.00,VWS V14.01,2013-06-20 09:56:00,
2013-06-20 05:57:00,52.1,51.3,30.15,SSW,200,0.0,0.0,97,0.00,,---,0.00,VWS V14.01,2013-06-20 09:57:00,
2013-06-20 05:58:00,52.2,51.4,30.15,SSW,200,0.0,0.0,97,0.00,,---,0.00,VWS V14.01,2013-06-20 09:58:00,
2013-06-20 05:59:00,52.2,51.4,30.15,SSW,200,0.0,0.0,97,0.00,,---,0.00,VWS V14.01,2013-06-20 09:59:00,
2013-06-20 06:00:00,52.3,51.5,30.15,SSW,200,0.0,0.0,97,0.00,,---,0.00,VWS V14.01,2013-06-20 10:00:00,
2013-06-20 06:01:00,52.3,51.5,30.15,SSW,200,0.0,0.0,97,0.00,,---,0.00,VWS V14.01,2013-06-20 10:01:00,
2013-06-20 06:02:00,52.4,51.6,30.15,SSW,200,0.0,0.0,97,0.00,,---,0.00,VWS V14.01,2013-06-20 10:02:00,
2013-06-20 06:03:00,52.4,51.6,30.15,SSW,200,0.0,0.0,97,0.00,,---,0.00,VWS V14.01,2013-06-20 10:03:00,
2013-06-20 06:04:00,52.5,51.7,30.15,SSW,200,0.0,0.0,97,0.00,,---,0.00,VWS V14.01,2013-06-20 10:04:00,
2013-06-20 06:05:00,52.5,51.7,30.15,SSW,200,0.0,0.0,97,0.00,,---,0.00,VWS V14.01,2013-06-20 10:05:00,
2013-06-20 06:06:00,52.6,51.8,30.15,SSW,200,0.0,0.0,97,0.00,,---,0.00,VWS V14.01,2013-06-20 10:06:00,
2013-06-20 06:07:00,52.7,51.9,30.16,SSW,200,0.0,0.0,97,0.00,,---,0.00,VWS V14.01,2013-06-20 10:07:00,
2013-06-20 06:08:00,52.8,52.0,30.16,SSW,200,0.0,0.0,97,0.00,,---,0.00,VWS V14.01,2013-06-20 10:08:00,
2013-06-20 06:09:00,52.9,52.1,30.16,SSW,200,0.0,0.0,97,0.00,,---,0.00,VWS V14.01,2013-06-20 10:09:00,
2013-06-20 06:10:00,52.9,52.1,30.16,SSW,200,0.0,0.0,97,0.00,,---,0.00,VWS V14.01,2013-06-20 10:10:00,
2013-06-20 06:11:00,53.0,52.2,30.16,SSW,200,0.0,0.0,97,0.00,,---,0.00,VWS V14.01,2013-06-20 10:11:00,
2013-06-20 06:12:00,53.0,52.2,30.16,SSW,200,0.0,0.0,97,0.00,,---,0.00,VWS V14.01,2013-06-20 10:12:00,
2013-06-20 06:13:00,53.2,52.4,30.16,SSW,200,0.0,0.0,97,0.00,,---,0.00,VWS V14.01,2013-06-20 10:13:00,
2013-06-20 06:14:00,53.3,52.5,30.16,SSW,200,0.0,0.0,97,0.00,,---,0.00,VWS V14.01,2013-06-20 10:14:00,
2013-06-20 06:15:00,53.3,52.5,30.16,SSW,200,0.0,0.0,97,0.00,,---,0.00,VWS V14.01,2013-06-20 10:15:00,
2013-06-20 06:16:00,53.4,52.6,30.16,SSW,200,0.0,0.0,97,0.00,,---,0.00,VWS V14.01,2013-06-20 10:16:00,
2013-06-20 06:17:00,53.5,52.7,30.16,SSW,200,0.0,0.0,97,0.00,,---,0.00,VWS V14.01,2013-06-20 10:17:00,
2013-06-20 06:18:00,53.6,52.8,30.16,SSW,200,0.0,0.0,97,0.00,,---,0.00,VWS V14.01,2013-06-20 10:18:00,
2013-06-20 06:19:00,53.7,52.9,30.16,SSW,200,0.0,0.0,97,0.00,,---,0.00,VWS V14.01,2013-06-20 10:19:00,
2013-06-20 06:20:00,53.8,53.0,30.16,SSW,200,0.0,0.0,97,0.00,,---,0.00,VWS V14.01,2013-06-20 10:20:00,
2013-06-20 06:21:00,53.9,53.1,30.16,SSW,200,0.0,0.0,97,0.00,,---,0.00,VWS V14.01,2013-06-20 10:21:00,
2013-06-20 06:22:00,54.0,53.2,30.16,SSW,200,0.0,0.0,97,0.00,,---,0.00,VWS V14.01,2013-06-20 10:22:00,
2013-06-20 06:23:00,54.1,53.3,30.16,SSW,200,0.0,0.0,97,0.00,,---,0.00,VWS V14.01,2013-06-20 10:23:00,
2013-06-20 06:24:00,54.3,53.5,30.16,SSW,200,0.0,0.0,97,0.00,,---,0.00,VWS V14.01,2013-06-20 10:24:00,
2013-06-20 06:25:00,54.5,53.7,30.16,SSW,203,0.0,0.0,97,0.00,,---,0.00,VWS V14.01,2013-06-20 10:25:00,
2013-06-20 06:26:00,54.7,53.9,30.16,SSW,203,0.0,0.0,97,0.00,,---,0.00,VWS V14.01,2013-06-20 10:26:00,
2013-06-20 06:27:00,54.9,54.1,30.16,SSW,203,0.0,0.0,97,0.00,,---,0.00,VWS V14.01,2013-06-20 10:27:00,
2013-06-20 06:28:00,55.1,54.3,30.16,SSW,203,0.0,0.0,97,0.00,,---,0.00,VWS V14.01,2013-06-20 10:28:00,
2013-06-20 06:29:00,55.4,54.6,30.16,SSW,203,0.0,0.0,97,0.00,,---,0.00,VWS V14.01,2013-06-20 10:29:00,
2013-06-20 06:30:00,55.7,54.9,30.16,SSW,203,0.0,0.0,97,0.00,,---,0.00,VWS V14.01,2013-06-20 10:30:00,
2013-06-20 06:31:00,55.9,55.1,30.16,SSW,203,0.0,0.0,97,0.00,,---,0.00,VWS V14.01,2013-06-20 10:31:00,
2013-06-20 06:32:00,56.0,55.2,30.16,SSW,203,0.0,0.0,97,0.00,,---,0.00,VWS V14.01,2013-06-20 10:32:00,
2013-06-20 06:33:00,56.1,55.3,30.16,SSW,203,0.0,0.0,97,0.00,,---,0.00,VWS V14.01,2013-06-20 10:33:00,
2013-06-20 06:34:00,56.3,55.5,30.16,SSW,203,0.0,0.0,97,0.00,,---,0.00,VWS V14.01,2013-06-20 10:34:00,
2013-06-20 06:35:00,56.5,55.7,30.16,SSW,203,0.0,0.0,97,0.00,,---,0.00,VWS V14.01,2013-06-20 10:35:00,
2013-06-20 06:36:00,56.7,55.9,30.16,SSW,203,0.0,0.0,97,0.00,,---,0.00,VWS V14.01,2013-06-20 10:36:00,
2013-06-20 06:37:00,56.8,56.0,30.16,South,188,0.0,0.0,97,0.00,,---,0.00,VWS V14.01,2013-06-20 10:37:00,
2013-06-20 06:38:00,57.0,56.2,30.16,SSE,150,0.0,0.0,97,0.00,,---,0.00,VWS V14.01,2013-06-20 10:38:00,
2013-06-20 06:39:00,57.3,56.5,30.16,SSE,151,0.0,0.0,97,0.00,,---,0.00,VWS V14.01,2013-06-20 10:39:00,
2013-06-20 06:40:00,57.6,56.8,30.16,SSE,150,0.0,0.0,97,0.00,,---,0.00,VWS V14.01,2013-06-20 10:40:00,
2013-06-20 06:41:00,57.9,57.1,30.16,SSE,150,0.0,0.0,97,0.00,,---,0.00,VWS V14.01,2013-06-20 10:41:00,
2013-06-20 06:42:00,58.3,57.5,30.16,SSE,149,0.0,0.0,97,0.00,,---,0.00,VWS V14.01,2013-06-20 10:42:00,
2013-06-20 06:43:00,58.5,57.7,30.16,South,174,0.0,1.0,97,0.00,,---,0.00,VWS V14.01,2013-06-20 10:43:00,
2013-06-20 06:44:00,58.8,58.0,30.16,South,174,0.0,1.0,97,0.00,,---,0.00,VWS V14.01,2013-06-20 10:44:00,
2013-06-20 06:45:00,59.0,58.2,30.16,South,174,0.0,1.0,97,0.00,,---,0.00,VWS V14.01,2013-06-20 10:45:00,
2013-06-20 06:46:00,59.3,58.2,30.16,SSE,150,0.0,1.0,96,0.00,,---,0.00,VWS V14.01,2013-06-20 10:46:00,
2013-06-20 06:47:00,59.6,57.6,30.16,SSE,150,0.0,1.0,93,0.00,,---,0.00,VWS V14.01,2013-06-20 10:47:00,
2013-06-20 06:48:00,59.9,57.3,30.16,SSE,151,0.0,1.0,91,0.00,,---,0.00,VWS V14.01,2013-06-20 10:48:00,
2013-06-20 06:49:00,60.3,57.4,30.16,SSE,162,1.0,1.0,90,0.00,,---,0.00,VWS V14.01,2013-06-20 10:49:00,
2013-06-20 06:50:00,60.5,56.9,30.16,SSE,161,0.0,1.0,88,0.00,,---,0.00,VWS V14.01,2013-06-20 10:50:00,
2013-06-20 06:51:00,60.8,57.2,30.16,SSE,160,0.0,1.0,88,0.00,,---,0.00,VWS V14.01,2013-06-20 10:51:00,
2013-06-20 06:52:00,61.1,57.2,30.16,SSE,160,0.0,1.0,87,0.00,,---,0.00,VWS V14.01,2013-06-20 10:52:00,
2013-06-20 06:53:00,61.4,57.2,30.16,SSE,160,0.0,1.0,86,0.00,,---,0.00,VWS V14.01,2013-06-20 10:53:00,
2013-06-20 06:54:00,61.7,56.8,30.16,SSW,196,0.0,1.0,84,0.00,,---,0.00,VWS V14.01,2013-06-20 10:54:00,
2013-06-20 06:55:00,62.0,56.8,30.16,SSW,197,0.0,1.0,83,0.00,,---,0.00,VWS V14.01,2013-06-20 10:55:00,
2013-06-20 06:56:00,62.2,56.6,30.16,SSW,197,0.0,1.0,82,0.00,,---,0.00,VWS V14.01,2013-06-20 10:56:00,
2013-06-20 06:57:00,62.5,56.9,30.16,SSW,197,0.0,1.0,82,0.00,,---,0.00,VWS V14.01,2013-06-20 10:57:00,
2013-06-20 06:58:00,62.9,57.7,30.16,SSW,197,0.0,1.0,83,0.00,,---,0.00,VWS V14.01,2013-06-20 10:58:00,
2013-06-20 06:59:00,63.2,56.9,30.16,SE,146,1.0,2.0,80,0.00,,---,0.00,VWS V14.01,2013-06-20 10:59:00,
2013-06-20 07:00:00,63.4,56.4,30.16,SE,144,0.0,2.0,78,0.00,,---,0.00,VWS V14.01,2013-06-20 11:00:00,
2013-06-20 07:01:00,63.6,57.0,30.16,SE,129,1.0,1.0,79,0.00,,---,0.00,VWS V14.01,2013-06-20 11:01:00,
2013-06-20 07:02:00,63.7,56.7,30.17,SSW,205,3.0,3.0,78,0.00,,---,0.00,VWS V14.01,2013-06-20 11:02:00,
2013-06-20 07:03:00,63.8,56.1,30.17,ESE,122,0.0,3.0,76,0.00,,---,0.00,VWS V14.01,2013-06-20 11:03:00,
2013-06-20 07:04:00,63.9,57.3,30.17,ESE,120,0.0,3.0,79,0.00,,---,0.00,VWS V14.01,2013-06-20 11:04:00,
2013-06-20 07:05:00,64.0,56.7,30.17,SSE,148,2.0,3.0,77,0.00,,---,0.00,VWS V14.01,2013-06-20 11:05:00,
2013-06-20 07:06:00,64.1,56.0,30.17,SSE,165,0.0,3.0,75,0.00,,---,0.00,VWS V14.01,2013-06-20 11:06:00,
2013-06-20 07:07:00,64.2,56.1,30.17,SSE,160,0.0,3.0,75,0.00,,---,0.00,VWS V14.01,2013-06-20 11:07:00,
2013-06-20 07:08:00,64.3,55.8,30.17,SSE,165,0.0,3.0,74,0.00,,---,0.00,VWS V14.01,2013-06-20 11:08:00,
2013-06-20 07:09:00,64.5,56.0,30.17,SE,136,1.0,3.0,74,0.00,,---,0.00,VWS V14.01,2013-06-20 11:09:00,
2013-06-20 07:10:00,64.5,56.0,30.17,SE,146,0.0,3.0,74,0.00,,---,0.00,VWS V14.01,2013-06-20 11:10:00,
2013-06-20 07:11:00,64.7,56.2,30.17,SSE,148,0.0,3.0,74,0.00,,---,0.00,VWS V14.01,2013-06-20 11:11:00,
2013-06-20 07:12:00,64.8,56.3,30.17,SSE,150,0.0,3.0,74,0.00,,---,0.00,VWS V14.01,2013-06-20 11:12:00,
2013-06-20 07:13:00,64.9,56.4,30.17,SSE,150,0.0,3.0,74,0.00,,---,0.00,VWS V14.01,2013-06-20 11:13:00,
2013-06-20 07:14:00,65.1,56.6,30.17,SSE,150,0.0,3.0,74,0.00,,---,0.00,VWS V14.01,2013-06-20 11:14:00,
2013-06-20 07:15:00,65.3,57.2,30.17,SW,218,2.0,3.0,75,0.00,,---,0.00,VWS V14.01,2013-06-20 11:15:00,
2013-06-20 07:16:00,65.3,56.0,30.17,SE,138,2.0,3.0,72,0.00,,---,0.00,VWS V14.01,2013-06-20 11:16:00,
2013-06-20 07:17:00,65.2,56.3,30.17,SE,145,1.0,3.0,73,0.00,,---,0.00,VWS V14.01,2013-06-20 11:17:00,
2013-06-20 07:18:00,65.2,56.0,30.17,SSE,165,2.0,3.0,72,0.00,,---,0.00,VWS V14.01,2013-06-20 11:18:00,
2013-06-20 07:19:00,65.3,56.0,30.17,SE,125,1.0,3.0,72,0.00,,---,0.00,VWS V14.01,2013-06-20 11:19:00,
2013-06-20 07:20:00,65.4,56.5,30.17,SE,126,0.0,3.0,73,0.00,,---,0.00,VWS V14.01,2013-06-20 11:20:00,
2013-06-20 07:21:00,65.4,56.5,30.17,East,88,0.0,3.0,73,0.00,,---,0.00,VWS V14.01,2013-06-20 11:21:00,
2013-06-20 07:22:00,65.5,56.6,30.17,SE,134,0.0,3.0,73,0.00,,---,0.00,VWS V14.01,2013-06-20 11:22:00,
2013-06-20 07:23:00,65.6,57.1,30.17,SE,134,0.0,3.0,74,0.00,,---,0.00,VWS V14.01,2013-06-20 11:23:00,
2013-06-20 07:24:00,65.7,57.6,30.17,SE,134,0.0,3.0,75,0.00,,---,0.00,VWS V14.01,2013-06-20 11:24:00,
2013-06-20 07:25:00,65.8,57.7,30.16,SE,134,0.0,3.0,75,0.00,,---,0.00,VWS V14.01,2013-06-20 11:25:00,
2013-06-20 07:26:00,65.9,58.5,30.17,SE,146,0.0,3.0,77,0.00,,---,0.00,VWS V14.01,2013-06-20 11:26:00,
2013-06-20 07:27:00,66.0,57.9,30.17,SE,146,0.0,3.0,75,0.00,,---,0.00,VWS V14.01,2013-06-20 11:27:00,
2013-06-20 07:28:00,66.1,58.0,30.17,SE,146,0.0,3.0,75,0.00,,---,0.00,VWS V14.01,2013-06-20 11:28:00,
2013-06-20 07:29:00,66.2,57.3,30.17,SSW,194,0.0,3.0,73,0.00,,---,0.00,VWS V14.01,2013-06-20 11:29:00,
2013-06-20 07:30:00,66.4,57.1,30.17,ESE,109,0.0,3.0,72,0.00,,---,0.00,VWS V14.01,2013-06-20 11:30:00,
2013-06-20 07:31:00,66.4,57.1,30.17,SSW,203,0.0,0.0,72,0.00,,---,0.00,VWS V14.01,2013-06-20 11:31:00,
2013-06-20 07:32:00,66.6,57.3,30.17,South,184,0.0,0.0,72,0.00,,---,0.00,VWS V14.01,2013-06-20 11:32:00,
2013-06-20 07:33:00,66.6,57.3,30.17,South,184,0.0,0.0,72,0.00,,---,0.00,VWS V14.01,2013-06-20 11:33:00,
2013-06-20 07:34:00,66.8,57.1,30.17,South,184,0.0,0.0,71,0.00,,---,0.00,VWS V14.01,2013-06-20 11:34:00,
2013-06-20 07:35:00,66.9,57.6,30.17,South,184,0.0,0.0,72,0.00,,---,0.00,VWS V14.01,2013-06-20 11:35:00,
2013-06-20 07:36:00,67.0,57.7,30.17,ENE,74,1.0,1.0,72,0.00,,---,0.00,VWS V14.01,2013-06-20 11:36:00,
2013-06-20 07:37:00,67.0,57.7,30.17,SSE,156,0.0,1.0,72,0.00,,---,0.00,VWS V14.01,2013-06-20 11:37:00,
2013-06-20 07:38:00,67.0,57.3,30.17,ENE,77,0.0,1.0,71,0.00,,---,0.00,VWS V14.01,2013-06-20 11:38:00,
2013-06-20 07:39:00,67.1,57.0,30.17,ENE,60,0.0,1.0,70,0.00,,---,0.00,VWS V14.01,2013-06-20 11:39:00,
2013-06-20 07:40:00,67.1,57.4,30.17,ENE,59,0.0,1.0,71,0.00,,---,0.00,VWS V14.01,2013-06-20 11:40:00,
2013-06-20 07:41:00,67.2,58.3,30.17,ENE,60,0.0,1.0,73,0.00,,---,0.00,VWS V14.01,2013-06-20 11:41:00,
2013-06-20 07:42:00,67.3,58.0,30.17,ENE,59,0.0,1.0,72,0.00,,---,0.00,VWS V14.01,2013-06-20 11:42:00,
2013-06-20 07:43:00,67.4,58.1,30.17,ENE,59,0.0,1.0,72,0.00,,---,0.00,VWS V14.01,2013-06-20 11:43:00,
2013-06-20 07:44:00,67.6,58.7,30.17,ENE,59,0.0,1.0,73,0.00,,---,0.00,VWS V14.01,2013-06-20 11:44:00,
2013-06-20 07:45:00,67.8,58.1,30.17,SE,144,0.0,1.0,71,0.00,,---,0.00,VWS V14.01,2013-06-20 11:45:00,
2013-06-20 07:46:00,68.1,58.0,30.17,SE,143,0.0,1.0,70,0.00,,---,0.00,VWS V14.01,2013-06-20 11:46:00,
2013-06-20 07:47:00,68.3,57.8,30.17,SE,144,0.0,1.0,69,0.00,,---,0.00,VWS V14.01,2013-06-20 11:47:00,
2013-06-20 07:48:00,68.5,57.9,30.17,SE,143,0.0,1.0,69,0.00,,---,0.00,VWS V14.01,2013-06-20 11:48:00,
2013-06-20 07:49:00,68.7,58.5,30.17,ESE,110,0.0,1.0,70,0.00,,---,0.00,VWS V14.01,2013-06-20 11:49:00,
2013-06-20 07:50:00,68.9,58.3,30.17,SE,131,1.0,2.0,69,0.00,,---,0.00,VWS V14.01,2013-06-20 11:50:00,
2013-06-20 07:51:00,69.0,57.6,30.17,SE,142,2.0,2.0,67,0.00,,---,0.00,VWS V14.01,2013-06-20 11:51:00,
2013-06-20 07:52:00,69.0,57.2,30.17,SE,138,0.0,2.0,66,0.00,,---,0.00,VWS V14.01,2013-06-20 11:52:00,
2013-06-20 07:53:00,69.1,57.3,30.18,SW,236,2.0,2.0,66,0.00,,---,0.00,VWS V14.01,2013-06-20 11:53:00,
2013-06-20 07:54:00,69.1,56.8,30.18,SSW,205,2.0,3.0,65,0.00,,---,0.00,VWS V14.01,2013-06-20 11:54:00,
2013-06-20 07:55:00,69.0,56.8,30.18,SW,215,2.0,4.0,65,0.00,,---,0.00,VWS V14.01,2013-06-20 11:55:00,
2013-06-20 07:56:00,68.9,56.7,30.17,SSE,148,1.0,4.0,65,0.00,,---,0.00,VWS V14.01,2013-06-20 11:56:00,
2013-06-20 07:57:00,68.9,56.7,30.17,SSW,210,2.0,4.0,65,0.00,,---,0.00,VWS V14.01,2013-06-20 11:57:00,
2013-06-20 07:58:00,68.9,56.7,30.17,SSW,193,0.0,4.0,65,0.00,,---,0.00,VWS V14.01,2013-06-20 11:58:00,
2013-06-20 07:59:00,68.9,57.1,30.17,SE,140,2.0,4.0,66,0.00,,---,0.00,VWS V14.01,2013-06-20 11:59:00,
2013-06-20 08:00:00,68.9,56.2,30.17,ESE,113,2.0,4.0,64,0.00,,---,0.00,VWS V14.01,2013-06-20 12:00:00,
2013-06-20 08:01:00,69.0,56.3,30.17,SE,130,0.0,2.0,64,0.00,,---,0.00,VWS V14.01,2013-06-20 12:01:00,
2013-06-20 08:02:00,69.1,56.4,30.17,SW,221,2.0,2.0,64,0.00,,---,0.00,VWS V14.01,2013-06-20 12:02:00,
2013-06-20 08:03:00,69.2,57.0,30.17,ESE,115,0.0,3.0,65,0.00,,---,0.00,VWS V14.01,2013-06-20 12:03:00,
2013-06-20 08:04:00,69.2,56.5,30.17,SE,125,1.0,3.0,64,0.00,,---,0.00,VWS V14.01,2013-06-20 12:04:00,
2013-06-20 08:05:00,69.3,56.2,30.17,SE,138,2.0,4.0,63,0.00,,---,0.00,VWS V14.01,2013-06-20 12:05:00,
2013-06-20 08:06:00,69.3,56.2,30.17,SE,140,1.0,4.0,63,0.00,,---,0.00,VWS V14.01,2013-06-20 12:06:00,
2013-06-20 08:07:00,69.4,56.7,30.17,SE,132,1.0,4.0,64,0.00,,---,0.00,VWS V14.01,2013-06-20 12:07:00,
2013-06-20 08:08:00,69.5,56.8,30.17,SW,219,4.0,4.0,64,0.00,,---,0.00,VWS V14.01,2013-06-20 12:08:00,
2013-06-20 08:09:00,69.6,56.5,30.17,SSW,205,3.0,4.0,63,0.00,,---,0.00,VWS V14.01,2013-06-20 12:09:00,
2013-06-20 08:10:00,69.6,56.0,30.17,SE,133,4.0,4.0,62,0.00,,---,0.00,VWS V14.01,2013-06-20 12:10:00,
2013-06-20 08:11:00,69.6,55.6,30.17,SE,138,3.0,6.0,61,0.00,,---,0.00,VWS V14.01,2013-06-20 12:11:00,
2013-06-20 08:12:00,69.5,55.5,30.17,SE,143,4.0,6.0,61,0.00,,---,0.00,VWS V14.01,2013-06-20 12:12:00,
2013-06-20 08:13:00,69.5,55.9,30.17,SE,129,2.0,6.0,62,0.00,,---,0.00,VWS V14.01,2013-06-20 12:13:00,
2013-06-20 08:14:00,69.5,55.9,30.17,SE,132,1.0,6.0,62,0.00,,---,0.00,VWS V14.01,2013-06-20 12:14:00,
2013-06-20 08:15:00,69.6,56.5,30.17,SW,214,1.0,6.0,63,0.00,,---,0.00,VWS V14.01,2013-06-20 12:15:00,
2013-06-20 08:16:00,69.7,57.4,30.17,SE,144,1.0,6.0,65,0.00,,---,0.00,VWS V14.01,2013-06-20 12:16:00,
2013-06-20 08:17:00,69.8,56.7,30.17,SE,131,0.0,6.0,63,0.00,,---,0.00,VWS V14.01,2013-06-20 12:17:00,
2013-06-20 08:18:00,69.9,56.3,30.17,SE,133,1.0,6.0,62,0.00,,---,0.00,VWS V14.01,2013-06-20 12:18:00,
2013-06-20 08:19:00,70.1,56.5,30.17,SE,145,3.0,6.0,62,0.00,,---,0.00,VWS V14.01,2013-06-20 12:19:00,
2013-06-20 08:20:00,70.1,56.5,30.17,SE,129,2.0,6.0,62,0.00,,---,0.00,VWS V14.01,2013-06-20 12:20:00,
2013-06-20 08:21:00,70.1,56.0,30.17,SE,130,1.0,6.0,61,0.00,,---,0.00,VWS V14.01,2013-06-20 12:21:00,
2013-06-20 08:22:00,70.1,56.0,30.17,SE,127,1.0,6.0,61,0.00,,---,0.00,VWS V14.01,2013-06-20 12:22:00,
2013-06-20 08:23:00,70.2,56.1,30.17,SE,141,1.0,6.0,61,0.00,,---,0.00,VWS V14.01,2013-06-20 12:23:00,
2013-06-20 08:24:00,70.3,56.7,30.17,SE,139,2.0,6.0,62,0.00,,---,0.00,VWS V14.01,2013-06-20 12:24:00,
2013-06-20 08:25:00,70.5,56.9,30.17,SE,136,1.0,6.0,62,0.00,,---,0.00,VWS V14.01,2013-06-20 12:25:00,
2013-06-20 08:26:00,70.6,56.5,30.17,SE,136,0.0,6.0,61,0.00,,---,0.00,VWS V14.01,2013-06-20 12:26:00,
2013-06-20 08:27:00,70.7,56.2,30.17,SE,137,1.0,6.0,60,0.00,,---,0.00,VWS V14.01,2013-06-20 12:27:00,
2013-06-20 08:28:00,70.9,56.8,30.17,SSW,212,0.0,6.0,61,0.00,,---,0.00,VWS V14.01,2013-06-20 12:28:00,
2013-06-20 08:29:00,71.0,56.4,30.17,SW,217,1.0,6.0,60,0.00,,---,0.00,VWS V14.01,2013-06-20 12:29:00,
2013-06-20 08:30:00,71.1,56.5,30.17,SSE,152,2.0,6.0,60,0.00,,---,0.00,VWS V14.01,2013-06-20 12:30:00,
2013-06-20 08:31:00,71.2,56.6,30.17,SE,132,2.0,3.0,60,0.00,,---,0.00,VWS V14.01,2013-06-20 12:31:00,
2013-06-20 08:32:00,71.2,56.2,30.17,SE,133,2.0,3.0,59,0.00,,---,0.00,VWS V14.01,2013-06-20 12:32:00,
2013-06-20 08:33:00,71.2,56.2,30.17,ESE,110,1.0,3.0,59,0.00,,---,0.00,VWS V14.01,2013-06-20 12:33:00,
2013-06-20 08:34:00,71.2,57.5,30.17,SW,231,2.0,3.0,62,0.00,,---,0.00,VWS V14.01,2013-06-20 12:34:00,
2013-06-20 08:35:00,71.2,56.6,30.17,WSW,238,1.0,3.0,60,0.00,,---,0.00,VWS V14.01,2013-06-20 12:35:00,
2013-06-20 08:36:00,71.2,56.6,30.17,WSW,238,0.0,3.0,60,0.00,,---,0.00,VWS V14.01,2013-06-20 12:36:00,
2013-06-20 08:37:00,71.2,58.0,30.17,SE,136,0.0,3.0,63,0.00,,---,0.00,VWS V14.01,2013-06-20 12:37:00,
2013-06-20 08:38:00,71.3,57.6,30.17,SSE,150,1.0,3.0,62,0.00,,---,0.00,VWS V14.01,2013-06-20 12:38:00,
2013-06-20 08:39:00,71.4,56.8,30.17,SSE,150,2.0,4.0,60,0.00,,---,0.00,VWS V14.01,2013-06-20 12:39:00,
2013-06-20 08:40:00,71.5,57.8,30.17,SW,225,3.0,4.0,62,0.00,,---,0.00,VWS V14.01,2013-06-20 12:40:00,
2013-06-20 08:41:00,71.6,58.3,30.17,SSW,200,3.0,4.0,63,0.00,,---,0.00,VWS V14.01,2013-06-20 12:41:00,
2013-06-20 08:42:00,71.7,57.5,30.17,SW,221,2.0,4.0,61,0.00,,---,0.00,VWS V14.01,2013-06-20 12:42:00,
2013-06-20 08:43:00,71.7,57.1,30.17,WSW,244,2.0,4.0,60,0.00,,---,0.00,VWS V14.01,2013-06-20 12:43:00,
2013-06-20 08:44:00,71.7,57.5,30.17,WSW,240,1.0,4.0,61,0.00,,---,0.00,VWS V14.01,2013-06-20 12:44:00,
2013-06-20 08:45:00,71.8,56.7,30.17,SSW,201,2.0,4.0,59,0.00,,---,0.00,VWS V14.01,2013-06-20 12:45:00,
2013-06-20 08:46:00,71.8,57.6,30.17,SSW,203,3.0,4.0,61,0.00,,---,0.00,VWS V14.01,2013-06-20 12:46:00,
2013-06-20 08:47:00,71.9,58.2,30.17,SSW,203,2.0,4.0,62,0.00,,---,0.00,VWS V14.01,2013-06-20 12:47:00,
2013-06-20 08:48:00,72.0,58.3,30.17,SW,222,0.0,4.0,62,0.00,,---,0.00,VWS V14.01,2013-06-20 12:48:00,
2013-06-20 08:49:00,72.1,57.5,30.17,ESE,118,1.0,4.0,60,0.00,,---,0.00,VWS V14.01,2013-06-20 12:49:00,
2013-06-20 08:50:00,72.2,58.0,30.17,SSE,155,1.0,4.0,61,0.00,,---,0.00,VWS V14.01,2013-06-20 12:50:00,
2013-06-20 08:51:00,72.3,57.2,30.17,SW,231,0.0,4.0,59,0.00,,---,0.00,VWS V14.01,2013-06-20 12:51:00,
2013-06-20 08:52:00,72.4,57.8,30.17,SW,231,1.0,4.0,60,0.00,,---,0.00,VWS V14.01,2013-06-20 12:52:00,
2013-06-20 08:53:00,72.6,58.4,30.17,South,190,1.0,4.0,61,0.00,,---,0.00,VWS V14.01,2013-06-20 12:53:00,
2013-06-20 08:54:00,72.8,58.1,30.17,SSW,210,0.0,4.0,60,0.00,,---,0.00,VWS V14.01,2013-06-20 12:54:00,
2013-06-20 08:55:00,72.9,58.7,30.17,SSW,210,0.0,4.0,61,0.00,,---,0.00,VWS V14.01,2013-06-20 12:55:00,
2013-06-20 08:56:00,73.1,60.7,30.17,WSW,249,1.0,4.0,65,0.00,,---,0.00,VWS V14.01,2013-06-20 12:56:00,
2013-06-20 08:57:00,73.3,59.0,30.17,SSW,205,0.0,4.0,61,0.00,,---,0.00,VWS V14.01,2013-06-20 12:57:00,
2013-06-20 08:58:00,73.5,58.8,30.17,SSW,203,1.0,4.0,60,0.00,,---,0.00,VWS V14.01,2013-06-20 12:58:00,
2013-06-20 08:59:00,73.6,58.4,30.17,SSW,201,0.0,4.0,59,0.00,,---,0.00,VWS V14.01,2013-06-20 12:59:00,
2013-06-20 09:00:00,73.8,58.1,30.17,SE,124,1.0,4.0,58,0.00,,---,0.00,VWS V14.01,2013-06-20 13:00:00,
2013-06-20 09:01:00,74.0,60.6,30.17,SSW,205,1.0,1.0,63,0.00,,---,0.00,VWS V14.01,2013-06-20 13:01:00,
2013-06-20 09:02:00,74.2,59.0,30.17,SSW,198,0.0,2.0,59,0.00,,---,0.00,VWS V14.01,2013-06-20 13:02:00,
2013-06-20 09:03:00,74.3,59.5,30.17,SSW,199,0.0,2.0,60,0.00,,---,0.00,VWS V14.01,2013-06-20 13:03:00,
2013-06-20 09:04:00,74.5,59.2,30.17,SSW,198,0.0,2.0,59,0.00,,---,0.00,VWS V14.01,2013-06-20 13:04:00,
2013-06-20 09:05:00,74.8,59.5,30.17,SSW,198,1.0,2.0,59,0.00,,---,0.00,VWS V14.01,2013-06-20 13:05:00,
2013-06-20 09:06:00,74.9,59.6,30.17,ESE,105,1.0,2.0,59,0.00,,---,0.00,VWS V14.01,2013-06-20 13:06:00,
2013-06-20 09:07:00,75.0,59.2,30.17,SSE,148,2.0,3.0,58,0.00,,---,0.00,VWS V14.01,2013-06-20 13:07:00,
2013-06-20 09:08:00,75.0,59.2,30.17,South,174,1.0,3.0,58,0.00,,---,0.00,VWS V14.01,2013-06-20 13:08:00,
2013-06-20 09:09:00,75.0,59.2,30.17,SSW,200,2.0,3.0,58,0.00,,---,0.00,VWS V14.01,2013-06-20 13:09:00,
2013-06-20 09:10:00,75.0,58.8,30.17,WSW,253,2.0,3.0,57,0.00,,---,0.00,VWS V14.01,2013-06-20 13:10:00,
2013-06-20 09:11:00,74.9,58.2,30.17,West,269,0.0,3.0,56,0.00,,---,0.00,VWS V14.01,2013-06-20 13:11:00,
2013-06-20 09:12:00,74.8,58.6,30.17,West,269,0.0,3.0,57,0.00,,---,0.00,VWS V14.01,2013-06-20 13:12:00,
2013-06-20 09:13:00,74.8,60.5,30.17,West,269,0.0,3.0,61,0.00,,---,0.00,VWS V14.01,2013-06-20 13:13:00,
2013-06-20 09:14:00,74.9,60.6,30.17,WNW,287,1.0,3.0,61,0.00,,---,0.00,VWS V14.01,2013-06-20 13:14:00,
2013-06-20 09:15:00,74.9,60.1,30.17,WNW,287,0.0,3.0,60,0.00,,---,0.00,VWS V14.01,2013-06-20 13:15:00,
2013-06-20 09:16:00,74.9,59.6,30.17,WNW,302,1.0,3.0,59,0.00,,---,0.00,VWS V14.01,2013-06-20 13:16:00,
2013-06-20 09:17:00,74.9,59.1,30.17,SW,225,2.0,3.0,58,0.00,,---,0.00,VWS V14.01,2013-06-20 13:17:00,
2013-06-20 09:18:00,75.0,59.2,30.17,SSW,208,2.0,3.0,58,0.00,,---,0.00,VWS V14.01,2013-06-20 13:18:00,
2013-06-20 09:19:00,75.0,59.2,30.17,SW,228,1.0,3.0,58,0.00,,---,0.00,VWS V14.01,2013-06-20 13:19:00,
2013-06-20 09:20:00,75.0,58.8,30.17,WSW,240,0.0,3.0,57,0.00,,---,0.00,VWS V14.01,2013-06-20 13:20:00,
2013-06-20 09:21:00,75.0,59.7,30.17,SSW,205,1.0,3.0,59,0.00,,---,0.00,VWS V14.01,2013-06-20 13:21:00,
2013-06-20 09:22:00,75.1,59.3,30.17,SE,134,1.0,3.0,58,0.00,,---,0.00,VWS V14.01,2013-06-20 13:22:00,
2013-06-20 09:23:00,75.3,60.0,30.17,SE,145,2.0,3.0,59,0.00,,---,0.00,VWS V14.01,2013-06-20 13:23:00,
2013-06-20 09:24:00,75.3,60.0,30.17,SSE,147,2.0,3.0,59,0.00,,---,0.00,VWS V14.01,2013-06-20 13:24:00,
2013-06-20 09:25:00,75.4,58.6,30.17,ESE,111,1.0,3.0,56,0.00,,---,0.00,VWS V14.01,2013-06-20 13:25:00,
2013-06-20 09:26:00,75.4,58.6,30.17,SE,129,0.0,3.0,56,0.00,,---,0.00,VWS V14.01,2013-06-20 13:26:00,
2013-06-20 09:27:00,75.5,59.7,30.17,SSW,201,3.0,4.0,58,0.00,,---,0.00,VWS V14.01,2013-06-20 13:27:00,
2013-06-20 09:28:00,75.6,59.8,30.17,SSW,196,1.0,4.0,58,0.00,,---,0.00,VWS V14.01,2013-06-20 13:28:00,
2013-06-20 09:29:00,75.7,59.4,30.17,SW,214,1.0,4.0,57,0.00,,---,0.00,VWS V14.01,2013-06-20 13:29:00,
2013-06-20 09:30:00,75.8,60.0,30.17,SW,214,0.0,4.0,58,0.00,,---,0.00,VWS V14.01,2013-06-20 13:30:00,
2013-06-20 09:31:00,75.9,58.6,30.17,WSW,248,0.0,1.0,55,0.00,,---,0.00,VWS V14.01,2013-06-20 13:31:00,
2013-06-20 09:32:00,76.0,58.7,30.17,SW,231,1.0,1.0,55,0.00,,---,0.00,VWS V14.01,2013-06-20 13:32:00,
2013-06-20 09:33:00,76.0,59.2,30.17,SE,141,1.0,2.0,56,0.00,,---,0.00,VWS V14.01,2013-06-20 13:33:00,
2013-06-20 09:34:00,76.1,58.8,30.17,SSW,210,1.0,2.0,55,0.00,,---,0.00,VWS V14.01,2013-06-20 13:34:00,
2013-06-20 09:35:00,76.1,58.8,30.17,SSW,210,0.0,2.0,55,0.00,,---,0.00,VWS V14.01,2013-06-20 13:35:00,
2013-06-20 09:36:00,76.1,59.8,30.17,South,172,2.0,2.0,57,0.00,,---,0.00,VWS V14.01,2013-06-20 13:36:00,
2013-06-20 09:37:00,76.1,59.3,30.17,SSW,195,1.0,2.0,56,0.00,,---,0.00,VWS V14.01,2013-06-20 13:37:00,
2013-06-20 09:38:00,76.1,58.8,30.17,SW,214,1.0,3.0,55,0.00,,---,0.00,VWS V14.01,2013-06-20 13:38:00,
2013-06-20 09:39:00,76.1,59.3,30.17,SW,229,1.0,3.0,56,0.00,,---,0.00,VWS V14.01,2013-06-20 13:39:00,
2013-06-20 09:40:00,76.2,59.9,30.17,SW,221,1.0,3.0,57,0.00,,---,0.00,VWS V14.01,2013-06-20 13:40:00,
2013-06-20 09:41:00,76.3,60.0,30.17,South,188,1.0,3.0,57,0.00,,---,0.00,VWS V14.01,2013-06-20 13:41:00,
2013-06-20 09:42:00,76.3,59.0,30.17,SE,128,1.0,3.0,55,0.00,,---,0.00,VWS V14.01,2013-06-20 13:42:00,
2013-06-20 09:43:00,76.4,59.1,30.17,ESE,118,0.0,3.0,55,0.00,,---,0.00,VWS V14.01,2013-06-20 13:43:00,
2013-06-20 09:44:00,76.4,59.6,30.17,SSW,205,1.0,3.0,56,0.00,,---,0.00,VWS V14.01,2013-06-20 13:44:00,
2013-06-20 09:45:00,76.6,61.7,30.17,ENE,76,1.0,3.0,60,0.00,,---,0.00,VWS V14.01,2013-06-20 13:45:00,
2013-06-20 09:46:00,76.7,60.3,30.17,ENE,62,3.0,3.0,57,0.00,,---,0.00,VWS V14.01,2013-06-20 13:46:00,
2013-06-20 09:47:00,76.7,59.8,30.17,ENE,77,1.0,3.0,56,0.00,,---,0.00,VWS V14.01,2013-06-20 13:47:00,
2013-06-20 09:48:00,76.7,59.8,30.17,SSE,150,2.0,3.0,56,0.00,,---,0.00,VWS V14.01,2013-06-20 13:48:00,
2013-06-20 09:49:00,76.7,59.3,30.17,SE,142,2.0,3.0,55,0.00,,---,0.00,VWS V14.01,2013-06-20 13:49:00,
2013-06-20 09:50:00,76.7,58.8,30.17,SE,143,0.0,3.0,54,0.00,,---,0.00,VWS V14.01,2013-06-20 13:50:00,
2013-06-20 09:51:00,76.8,58.9,30.17,SE,142,0.0,3.0,54,0.00,,---,0.00,VWS V14.01,2013-06-20 13:51:00,
2013-06-20 09:52:00,77.0,59.6,30.17,SE,138,1.0,3.0,55,0.00,,---,0.00,VWS V14.01,2013-06-20 13:52:00,
2013-06-20 09:53:00,77.1,60.2,30.17,SE,127,1.0,3.0,56,0.00,,---,0.00,VWS V14.01,2013-06-20 13:53:00,
2013-06-20 09:54:00,77.1,59.7,30.17,SE,127,1.0,3.0,55,0.00,,---,0.00,VWS V14.01,2013-06-20 13:54:00,
2013-06-20 09:55:00,77.1,59.7,30.17,East,86,1.0,3.0,55,0.00,,---,0.00,VWS V14.01,2013-06-20 13:55:00,
2013-06-20 09:56:00,77.2,61.8,30.17,NNW,338,1.0,3.0,59,0.00,,---,0.00,VWS V14.01,2013-06-20 13:56:00,
2013-06-20 09:57:00,77.2,61.8,30.17,North,360,2.0,3.0,59,0.00,,---,0.00,VWS V14.01,2013-06-20 13:57:00,
2013-06-20 09:58:00,77.3,61.4,30.17,North,4,2.0,3.0,58,0.00,,---,0.00,VWS V14.01,2013-06-20 13:58:00,
2013-06-20 09:59:00,77.2,60.3,30.17,NNW,339,2.0,3.0,56,0.00,,---,0.00,VWS V14.01,2013-06-20 13:59:00,
2013-06-20 10:00:00,77.2,59.8,30.17,NNW,338,0.0,3.0,55,0.00,,---,0.00,VWS V14.01,2013-06-20 14:00:00,
2013-06-20 10:01:00,77.2,59.8,30.17,NNW,342,0.0,1.0,55,0.00,,---,0.00,VWS V14.01,2013-06-20 14:01:00,
2013-06-20 10:02:00,77.2,60.3,30.17,SW,225,1.0,1.0,56,0.00,,---,0.00,VWS V14.01,2013-06-20 14:02:00,
2013-06-20 10:03:00,77.2,59.8,30.17,WSW,245,1.0,2.0,55,0.00,,---,0.00,VWS V14.01,2013-06-20 14:03:00,
2013-06-20 10:04:00,77.2,59.3,30.17,WSW,242,2.0,2.0,54,0.00,,---,0.00,VWS V14.01,2013-06-20 14:04:00,
2013-06-20 10:05:00,77.2,59.3,30.17,WSW,246,0.0,2.0,54,0.00,,---,0.00,VWS V14.01,2013-06-20 14:05:00,
2013-06-20 10:06:00,77.2,60.3,30.17,SSW,211,1.0,3.0,56,0.00,,---,0.00,VWS V14.01,2013-06-20 14:06:00,
2013-06-20 10:07:00,77.2,60.8,30.17,WSW,243,2.0,3.0,57,0.00,,---,0.00,VWS V14.01,2013-06-20 14:07:00,
2013-06-20 10:08:00,77.1,59.2,30.17,WSW,250,1.0,3.0,54,0.00,,---,0.00,VWS V14.01,2013-06-20 14:08:00,
2013-06-20 10:09:00,77.0,60.1,30.17,WSW,250,0.0,3.0,56,0.00,,---,0.00,VWS V14.01,2013-06-20 14:09:00,
2013-06-20 10:10:00,77.0,59.1,30.17,ENE,58,1.0,3.0,54,0.00,,---,0.00,VWS V14.01,2013-06-20 14:10:00,
2013-06-20 10:11:00,77.0,59.1,30.17,NE,53,1.0,3.0,54,0.00,,---,0.00,VWS V14.01,2013-06-20 14:11:00,
2013-06-20 10:12:00,76.9,59.5,30.17,NE,37,2.0,3.0,55,0.00,,---,0.00,VWS V14.01,2013-06-20 14:12:00,
2013-06-20 10:13:00,76.9,59.0,30.16,NNE,26,1.0,3.0,54,0.00,,---,0.00,VWS V14.01,2013-06-20 14:13:00,
2013-06-20 10:14:00,76.8,58.4,30.16,NNE,26,1.0,3.0,53,0.00,,---,0.00,VWS V14.01,2013-06-20 14:14:00,
2013-06-20 10:15:00,76.8,59.4,30.17,NNE,32,1.0,3.0,55,0.00,,---,0.00,VWS V14.01,2013-06-20 14:15:00,
2013-06-20 10:16:00,76.7,60.3,30.17,NNE,30,2.0,3.0,57,0.00,,---,0.00,VWS V14.01,2013-06-20 14:16:00,
2013-06-20 10:17:00,76.7,60.8,30.17,NNE,16,1.0,3.0,58,0.00,,---,0.00,VWS V14.01,2013-06-20 14:17:00,
2013-06-20 10:18:00,76.8,59.9,30.16,NNE,12,2.0,3.0,56,0.00,,---,0.00,VWS V14.01,2013-06-20 14:18:00,
2013-06-20 10:19:00,76.8,60.4,30.16,North,11,1.0,3.0,57,0.00,,---,0.00,VWS V14.01,2013-06-20 14:19:00,
2013-06-20 10:20:00,76.8,60.9,30.17,NNE,12,1.0,3.0,58,0.00,,---,0.00,VWS V14.01,2013-06-20 14:20:00,
2013-06-20 10:21:00,76.8,61.4,30.16,North,8,0.0,3.0,59,0.00,,---,0.00,VWS V14.01,2013-06-20 14:21:00,
2013-06-20 10:22:00,76.8,60.4,30.16,North,6,3.0,3.0,57,0.00,,---,0.00,VWS V14.01,2013-06-20 14:22:00,
2013-06-20 10:23:00,76.9,61.5,30.16,NNE,26,0.0,3.0,59,0.00,,---,0.00,VWS V14.01,2013-06-20 14:23:00,
2013-06-20 10:24:00,77.0,62.5,30.16,NNE,26,0.0,3.0,61,0.00,,---,0.00,VWS V14.01,2013-06-20 14:24:00,
2013-06-20 10:25:00,77.1,62.6,30.16,NNE,27,1.0,3.0,61,0.00,,---,0.00,VWS V14.01,2013-06-20 14:25:00,
2013-06-20 10:26:00,77.2,62.2,30.16,East,98,1.0,3.0,60,0.00,,---,0.00,VWS V14.01,2013-06-20 14:26:00,
2013-06-20 10:27:00,77.3,60.4,30.16,SSW,212,1.0,3.0,56,0.00,,---,0.00,VWS V14.01,2013-06-20 14:27:00,
2013-06-20 10:28:00,77.4,61.0,30.16,SSW,208,2.0,3.0,57,0.00,,---,0.00,VWS V14.01,2013-06-20 14:28:00,
2013-06-20 10:29:00,77.4,60.5,30.16,SSW,207,2.0,3.0,56,0.00,,---,0.00,VWS V14.01,2013-06-20 14:29:00,
2013-06-20 10:30:00,77.5,60.6,30.16,SW,221,1.0,3.0,56,0.00,,---,0.00,VWS V14.01,2013-06-20 14:30:00,
2013-06-20 10:31:00,77.5,61.1,30.16,ESE,122,1.0,2.0,57,0.00,,---,0.00,VWS V14.01,2013-06-20 14:31:00,
2013-06-20 10:32:00,77.6,61.7,30.16,ESE,122,1.0,2.0,58,0.00,,---,0.00,VWS V14.01,2013-06-20 14:32:00,
2013-06-20 10:33:00,77.7,60.8,30.16,SSE,153,2.0,3.0,56,0.00,,---,0.00,VWS V14.01,2013-06-20 14:33:00,
2013-06-20 10:34:00,77.7,60.3,30.16,SE,134,1.0,3.0,55,0.00,,---,0.00,VWS V14.01,2013-06-20 14:34:00,
2013-06-20 10:35:00,77.7,60.3,30.16,SE,133,0.0,3.0,55,0.00,,---,0.00,VWS V14.01,2013-06-20 14:35:00,
2013-06-20 10:36:00,77.8,59.8,30.16,East,98,0.0,3.0,54,0.00,,---,0.00,VWS V14.01,2013-06-20 14:36:00,
2013-06-20 10:37:00,77.8,59.8,30.16,ENE,74,1.0,3.0,54,0.00,,---,0.00,VWS V14.01,2013-06-20 14:37:00,
2013-06-20 10:38:00,77.9,61.5,30.16,SE,127,0.0,3.0,57,0.00,,---,0.00,VWS V14.01,2013-06-20 14:38:00,
2013-06-20 10:39:00,78.0,60.0,30.16,SE,129,0.0,3.0,54,0.00,,---,0.00,VWS V14.01,2013-06-20 14:39:00,
2013-06-20 10:40:00,78.1,60.1,30.16,ENE,60,0.0,3.0,54,0.00,,---,0.00,VWS V14.01,2013-06-20 14:40:00,
2013-06-20 10:41:00,78.2,60.2,30.16,ENE,76,1.0,3.0,54,0.00,,---,0.00,VWS V14.01,2013-06-20 14:41:00,
2013-06-20 10:42:00,78.2,60.7,30.16,ENE,57,2.0,3.0,55,0.00,,---,0.00,VWS V14.01,2013-06-20 14:42:00,
2013-06-20 10:43:00,78.2,59.2,30.16,North,1,1.0,3.0,52,0.00,,---,0.00,VWS V14.01,2013-06-20 14:43:00,
2013-06-20 10:44:00,78.1,59.6,30.16,NNW,347,1.0,3.0,53,0.00,,---,0.00,VWS V14.01,2013-06-20 14:44:00,
2013-06-20 10:45:00,78.1,59.6,30.16,North,359,1.0,3.0,53,0.00,,---,0.00,VWS V14.01,2013-06-20 14:45:00,
2013-06-20 10:46:00,78.2,60.2,30.16,North,356,0.0,3.0,54,0.00,,---,0.00,VWS V14.01,2013-06-20 14:46:00,
2013-06-20 10:47:00,78.3,61.3,30.16,North,356,0.0,3.0,56,0.00,,---,0.00,VWS V14.01,2013-06-20 14:47:00,
2013-06-20 10:48:00,78.4,60.9,30.16,SE,133,3.0,3.0,55,0.00,,---,0.00,VWS V14.01,2013-06-20 14:48:00,
2013-06-20 10:49:00,78.5,60.5,30.16,SE,134,3.0,4.0,54,0.00,,---,0.00,VWS V14.01,2013-06-20 14:49:00,
2013-06-20 10:50:00,78.5,58.3,30.16,SE,134,2.0,4.0,50,0.00,,---,0.00,VWS V14.01,2013-06-20 14:50:00,
2013-06-20 10:51:00,78.5,58.9,30.16,SSE,164,1.0,4.0,51,0.00,,---,0.00,VWS V14.01,2013-06-20 14:51:00,
2013-06-20 10:52:00,78.5,58.9,30.16,SSE,164,0.0,4.0,51,0.00,,---,0.00,VWS V14.01,2013-06-20 14:52:00,
2013-06-20 10:53:00,78.6,59.5,30.16,ESE,118,3.0,4.0,52,0.00,,---,0.00,VWS V14.01,2013-06-20 14:53:00,
2013-06-20 10:54:00,78.7,60.2,30.16,SE,134,3.0,4.0,53,0.00,,---,0.00,VWS V14.01,2013-06-20 14:54:00,
2013-06-20 10:55:00,78.8,60.8,30.16,SSW,195,2.0,4.0,54,0.00,,---,0.00,VWS V14.01,2013-06-20 14:55:00,
2013-06-20 10:56:00,78.8,59.2,30.16,SE,145,1.0,4.0,51,0.00,,---,0.00,VWS V14.01,2013-06-20 14:56:00,
2013-06-20 10:57:00,79.0,61.0,30.16,SE,134,0.0,4.0,54,0.00,,---,0.00,VWS V14.01,2013-06-20 14:57:00,
2013-06-20 10:58:00,79.1,59.4,30.16,SE,134,0.0,4.0,51,0.00,,---,0.00,VWS V14.01,2013-06-20 14:58:00,
2013-06-20 10:59:00,79.2,60.6,30.16,SSW,212,1.0,4.0,53,0.00,,---,0.00,VWS V14.01,2013-06-20 14:59:00,
2013-06-20 11:00:00,79.4,58.6,30.16,SSE,156,1.0,4.0,49,0.00,,---,0.00,VWS V14.01,2013-06-20 15:00:00,
2013-06-20 11:01:00,79.5,59.2,30.16,SE,132,1.0,2.0,50,0.00,,---,0.00,VWS V14.01,2013-06-20 15:01:00,
2013-06-20 11:02:00,79.6,61.0,30.16,SE,137,1.0,2.0,53,0.00,,---,0.00,VWS V14.01,2013-06-20 15:02:00,
2013-06-20 11:03:00,79.7,60.0,30.16,SE,139,2.0,3.0,51,0.00,,---,0.00,VWS V14.01,2013-06-20 15:03:00,
2013-06-20 11:04:00,79.8,60.6,30.16,SSE,153,1.0,3.0,52,0.00,,---,0.00,VWS V14.01,2013-06-20 15:04:00,
2013-06-20 11:05:00,79.9,60.2,30.16,SE,126,2.0,3.0,51,0.00,,---,0.00,VWS V14.01,2013-06-20 15:05:00,
2013-06-20 11:06:00,80.0,59.7,30.16,East,82,1.0,3.0,50,0.00,,---,0.00,VWS V14.01,2013-06-20 15:06:00,
2013-06-20 11:07:00,80.0,59.7,30.16,SE,139,1.0,3.0,50,0.00,,---,0.00,VWS V14.01,2013-06-20 15:07:00,
2013-06-20 11:08:00,80.1,59.8,30.16,SW,229,0.0,3.0,50,0.00,,---,0.00,VWS V14.01,2013-06-20 15:08:00,
2013-06-20 11:09:00,80.2,59.9,30.16,WSW,249,0.0,3.0,50,0.00,,---,0.00,VWS V14.01,2013-06-20 15:09:00,
2013-06-20 11:10:00,80.3,61.6,30.16,WSW,250,0.0,3.0,53,0.00,,---,0.00,VWS V14.01,2013-06-20 15:10:00,
2013-06-20 11:11:00,80.5,61.3,30.16,WNW,290,3.0,4.0,52,0.00,,---,0.00,VWS V14.01,2013-06-20 15:11:00,
2013-06-20 11:12:00,80.4,59.5,30.16,West,259,1.0,4.0,49,0.00,,---,0.00,VWS V14.01,2013-06-20 15:12:00,
2013-06-20 11:13:00,80.3,59.4,30.16,West,267,1.0,4.0,49,0.00,,---,0.00,VWS V14.01,2013-06-20 15:13:00,
2013-06-20 11:14:00,80.2,59.9,30.16,WSW,239,0.0,4.0,50,0.00,,---,0.00,VWS V14.01,2013-06-20 15:14:00,
2013-06-20 11:15:00,80.2,59.9,30.16,ESE,109,0.0,4.0,50,0.00,,---,0.00,VWS V14.01,2013-06-20 15:15:00,
2013-06-20 11:16:00,80.2,61.0,30.16,WSW,242,1.0,4.0,52,0.00,,---,0.00,VWS V14.01,2013-06-20 15:16:00,
2013-06-20 11:17:00,80.3,61.6,30.16,SW,218,0.0,4.0,53,0.00,,---,0.00,VWS V14.01,2013-06-20 15:17:00,
2013-06-20 11:18:00,80.4,61.2,30.16,WSW,253,0.0,4.0,52,0.00,,---,0.00,VWS V14.01,2013-06-20 15:18:00,
2013-06-20 11:19:00,80.3,61.1,30.16,West,259,0.0,4.0,52,0.00,,---,0.00,VWS V14.01,2013-06-20 15:19:00,
2013-06-20 11:20:00,80.2,61.5,30.16,SW,221,0.0,4.0,53,0.00,,---,0.00,VWS V14.01,2013-06-20 15:20:00,
2013-06-20 11:21:00,80.1,59.2,30.16,WNW,284,3.0,4.0,49,0.00,,---,0.00,VWS V14.01,2013-06-20 15:21:00,
2013-06-20 11:22:00,80.0,60.3,30.16,SW,229,3.0,4.0,51,0.00,,---,0.00,VWS V14.01,2013-06-20 15:22:00,
2013-06-20 11:23:00,79.8,60.6,30.16,WSW,245,2.0,4.0,52,0.00,,---,0.00,VWS V14.01,2013-06-20 15:23:00,
2013-06-20 11:24:00,79.7,59.4,30.16,West,269,2.0,4.0,50,0.00,,---,0.00,VWS V14.01,2013-06-20 15:24:00,
2013-06-20 11:25:00,79.5,58.7,30.16,SW,236,1.0,4.0,49,0.00,,---,0.00,VWS V14.01,2013-06-20 15:25:00,
2013-06-20 11:26:00,79.5,59.2,30.16,SW,236,1.0,4.0,50,0.00,,---,0.00,VWS V14.01,2013-06-20 15:26:00,
2013-06-20 11:27:00,79.5,61.4,30.16,WSW,240,1.0,4.0,54,0.00,,---,0.00,VWS V14.01,2013-06-20 15:27:00,
2013-06-20 11:28:00,79.5,59.8,30.16,West,264,2.0,4.0,51,0.00,,---,0.00,VWS V14.01,2013-06-20 15:28:00,
2013-06-20 11:29:00,79.4,58.6,30.16,West,280,1.0,4.0,49,0.00,,---,0.00,VWS V14.01,2013-06-20 15:29:00,
2013-06-20 11:30:00,79.3,60.2,30.16,West,280,0.0,4.0,52,0.00,,---,0.00,VWS V14.01,2013-06-20 15:30:00,
2013-06-20 11:31:00,79.2,59.5,30.16,West,280,0.0,0.0,51,0.00,,---,0.00,VWS V14.01,2013-06-20 15:31:00,
2013-06-20 11:32:00,79.3,60.2,30.16,NNW,333,2.0,2.0,52,0.00,,---,0.00,VWS V14.01,2013-06-20 15:32:00,
2013-06-20 11:33:00,79.3,59.1,30.16,NNW,333,1.0,2.0,50,0.00,,---,0.00,VWS V14.01,2013-06-20 15:33:00,
2013-06-20 11:34:00,79.3,59.1,30.16,NNW,335,0.0,2.0,50,0.00,,---,0.00,VWS V14.01,2013-06-20 15:34:00,
2013-06-20 11:35:00,79.4,60.3,30.16,North,10,1.0,2.0,52,0.00,,---,0.00,VWS V14.01,2013-06-20 15:35:00,
2013-06-20 11:36:00,79.4,59.2,30.16,North,352,0.0,2.0,50,0.00,,---,0.00,VWS V14.01,2013-06-20 15:36:00,
2013-06-20 11:37:00,79.5,59.2,30.16,North,350,0.0,2.0,50,0.00,,---,0.00,VWS V14.01,2013-06-20 15:37:00,
2013-06-20 11:38:00,79.6,62.5,30.16,North,352,0.0,2.0,56,0.00,,---,0.00,VWS V14.01,2013-06-20 15:38:00,
2013-06-20 11:39:00,79.7,62.6,30.16,North,352,0.0,2.0,56,0.00,,---,0.00,VWS V14.01,2013-06-20 15:39:00,
2013-06-20 11:40:00,79.9,60.7,30.16,SSE,148,1.0,2.0,52,0.00,,---,0.00,VWS V14.01,2013-06-20 15:40:00,
2013-06-20 11:41:00,80.0,60.8,30.16,SE,136,1.0,2.0,52,0.00,,---,0.00,VWS V14.01,2013-06-20 15:41:00,
2013-06-20 11:42:00,80.2,62.6,30.16,WSW,242,1.0,2.0,55,0.00,,---,0.00,VWS V14.01,2013-06-20 15:42:00,
2013-06-20 11:43:00,80.5,64.9,30.16,SSE,165,1.0,2.0,59,0.00,,---,0.00,VWS V14.01,2013-06-20 15:43:00,
2013-06-20 11:44:00,80.7,65.1,30.15,SSW,201,3.0,4.0,59,0.00,,---,0.00,VWS V14.01,2013-06-20 15:44:00,
2013-06-20 11:45:00,80.7,60.3,30.16,WSW,243,1.0,4.0,50,0.00,,---,0.00,VWS V14.01,2013-06-20 15:45:00,
2013-06-20 11:46:00,80.7,59.8,30.16,South,170,0.0,4.0,49,0.00,,---,0.00,VWS V14.01,2013-06-20 15:46:00,
2013-06-20 11:47:00,80.8,59.9,30.16,NE,50,0.0,4.0,49,0.00,,---,0.00,VWS V14.01,2013-06-20 15:47:00,
2013-06-20 11:48:00,80.8,61.5,30.16,NE,49,0.0,4.0,52,0.00,,---,0.00,VWS V14.01,2013-06-20 15:48:00,
2013-06-20 11:49:00,81.0,63.8,30.16,West,277,2.0,4.0,56,0.00,,---,0.00,VWS V14.01,2013-06-20 15:49:00,
2013-06-20 11:50:00,81.1,63.9,30.16,SW,233,3.0,4.0,56,0.00,,---,0.00,VWS V14.01,2013-06-20 15:50:00,
2013-06-20 11:51:00,81.0,61.7,30.16,SW,224,2.0,4.0,52,0.00,,---,0.00,VWS V14.01,2013-06-20 15:51:00,
2013-06-20 11:52:00,80.8,60.4,30.16,SW,221,2.0,5.0,50,0.00,,---,0.00,VWS V14.01,2013-06-20 15:52:00,
2013-06-20 11:53:00,80.7,60.3,30.16,West,263,3.0,5.0,50,0.00,,---,0.00,VWS V14.01,2013-06-20 15:53:00,
2013-06-20 11:54:00,80.5,60.2,30.16,West,266,4.0,5.0,50,0.00,,---,0.00,VWS V14.01,2013-06-20 15:54:00,
2013-06-20 11:55:00,80.3,60.0,30.16,WSW,257,2.0,6.0,50,0.00,,---,0.00,VWS V14.01,2013-06-20 15:55:00,
2013-06-20 11:56:00,80.1,60.9,30.16,West,273,2.0,6.0,52,0.00,,---,0.00,VWS V14.01,2013-06-20 15:56:00,
2013-06-20 11:57:00,80.0,60.8,30.16,SW,229,3.0,6.0,52,0.00,,---,0.00,VWS V14.01,2013-06-20 15:57:00,
2013-06-20 11:58:00,79.9,61.3,30.15,WSW,252,1.0,6.0,53,0.00,,---,0.00,VWS V14.01,2013-06-20 15:58:00,
2013-06-20 11:59:00,79.8,61.2,30.15,SW,228,0.0,6.0,53,0.00,,---,0.00,VWS V14.01,2013-06-20 15:59:00,
2013-06-20 12:00:00,79.9,62.3,30.15,SW,217,0.0,6.0,55,0.00,,---,0.00,VWS V14.01,2013-06-20 16:00:00,
2013-06-20 12:01:00,80.1,61.4,30.15,SSW,194,1.0,1.0,53,0.00,,---,0.00,VWS V14.01,2013-06-20 16:01:00,
2013-06-20 12:02:00,80.3,62.2,30.15,SE,142,2.0,4.0,54,0.00,,---,0.00,VWS V14.01,2013-06-20 16:02:00,
2013-06-20 12:03:00,80.5,60.7,30.15,SSE,147,3.0,4.0,51,0.00,,---,0.00,VWS V14.01,2013-06-20 16:03:00,
2013-06-20 12:04:00,80.6,61.4,30.15,SSE,155,1.0,4.0,52,0.00,,---,0.00,VWS V14.01,2013-06-20 16:04:00,
2013-06-20 12:05:00,80.8,62.1,30.15,SW,217,2.0,4.0,53,0.00,,---,0.00,VWS V14.01,2013-06-20 16:05:00,
2013-06-20 12:06:00,80.8,61.0,30.15,SW,225,2.0,4.0,51,0.00,,---,0.00,VWS V14.01,2013-06-20 16:06:00,
2013-06-20 12:07:00,80.8,61.5,30.15,ESE,123,0.0,4.0,52,0.00,,---,0.00,VWS V14.01,2013-06-20 16:07:00,
2013-06-20 12:08:00,80.8,61.0,30.16,SE,125,1.0,4.0,51,0.00,,---,0.00,VWS V14.01,2013-06-20 16:08:00,
2013-06-20 12:09:00,80.8,61.0,30.16,SE,125,0.0,4.0,51,0.00,,---,0.00,VWS V14.01,2013-06-20 16:09:00,
2013-06-20 12:10:00,81.0,62.3,30.15,WSW,238,1.0,4.0,53,0.00,,---,0.00,VWS V14.01,2013-06-20 16:10:00,
2013-06-20 12:11:00,81.1,62.4,30.16,SW,233,3.0,4.0,53,0.00,,---,0.00,VWS V14.01,2013-06-20 16:11:00,
2013-06-20 12:12:00,81.0,60.6,30.16,SW,231,2.0,4.0,50,0.00,,---,0.00,VWS V14.01,2013-06-20 16:12:00,
2013-06-20 12:13:00,80.9,62.2,30.16,SSW,193,2.0,4.0,53,0.00,,---,0.00,VWS V14.01,2013-06-20 16:13:00,
2013-06-20 12:14:00,80.9,61.1,30.15,ESE,122,1.0,4.0,51,0.00,,---,0.00,VWS V14.01,2013-06-20 16:14:00,
2013-06-20 12:15:00,80.8,61.5,30.16,ENE,65,3.0,4.0,52,0.00,,---,0.00,VWS V14.01,2013-06-20 16:15:00,
2013-06-20 12:16:00,80.9,61.6,30.15,South,191,1.0,4.0,52,0.00,,---,0.00,VWS V14.01,2013-06-20 16:16:00,
2013-06-20 12:17:00,81.0,64.3,30.15,SW,214,0.0,4.0,57,0.00,,---,0.00,VWS V14.01,2013-06-20 16:17:00,
2013-06-20 12:18:00,81.2,63.0,30.15,SW,214,0.0,4.0,54,0.00,,---,0.00,VWS V14.01,2013-06-20 16:18:00,
2013-06-20 12:19:00,81.4,63.2,30.15,NNW,345,2.0,4.0,54,0.00,,---,0.00,VWS V14.01,2013-06-20 16:19:00,
2013-06-20 12:20:00,81.4,63.7,30.15,North,356,1.0,4.0,55,0.00,,---,0.00,VWS V14.01,2013-06-20 16:20:00,
2013-06-20 12:21:00,81.6,63.4,30.16,WSW,245,0.0,4.0,54,0.00,,---,0.00,VWS V14.01,2013-06-20 16:21:00,
2013-06-20 12:22:00,81.6,62.8,30.15,WNW,291,2.0,4.0,53,0.00,,---,0.00,VWS V14.01,2013-06-20 16:22:00,
2013-06-20 12:23:00,81.5,63.3,30.15,West,259,1.0,4.0,54,0.00,,---,0.00,VWS V14.01,2013-06-20 16:23:00,
2013-06-20 12:24:00,81.4,62.1,30.15,NNW,343,1.0,4.0,52,0.00,,---,0.00,VWS V14.01,2013-06-20 16:24:00,
2013-06-20 12:25:00,81.3,62.0,30.15,WNW,293,3.0,4.0,52,0.00,,---,0.00,VWS V14.01,2013-06-20 16:25:00,
2013-06-20 12:26:00,81.2,63.5,30.15,West,274,1.0,4.0,55,0.00,,---,0.00,VWS V14.01,2013-06-20 16:26:00,
2013-06-20 12:27:00,81.1,62.9,30.15,SSW,200,1.0,6.0,54,0.00,,---,0.00,VWS V14.01,2013-06-20 16:27:00,
2013-06-20 12:28:00,81.1,63.4,30.16,WNW,290,1.0,6.0,55,0.00,,---,0.00,VWS V14.01,2013-06-20 16:28:00,
2013-06-20 12:29:00,81.0,62.8,30.15,NNE,20,5.0,6.0,54,0.00,,---,0.00,VWS V14.01,2013-06-20 16:29:00,
2013-06-20 12:30:00,81.0,62.8,30.15,North,4,3.0,6.0,54,0.00,,---,0.00,VWS V14.01,2013-06-20 16:30:00,
2013-06-20 12:31:00,80.9,62.2,30.15,SW,224,2.0,5.0,53,0.00,,---,0.00,VWS V14.01,2013-06-20 16:31:00,
2013-06-20 12:32:00,80.8,62.1,30.15,NW,316,3.0,5.0,53,0.00,,---,0.00,VWS V14.01,2013-06-20 16:32:00,
2013-06-20 12:33:00,80.8,63.1,30.15,ENE,59,1.0,5.0,55,0.00,,---,0.00,VWS V14.01,2013-06-20 16:33:00,
2013-06-20 12:34:00,80.9,63.2,30.15,West,277,3.0,5.0,55,0.00,,---,0.00,VWS V14.01,2013-06-20 16:34:00,
2013-06-20 12:35:00,80.9,61.6,30.15,SW,218,4.0,5.0,52,0.00,,---,0.00,VWS V14.01,2013-06-20 16:35:00,
2013-06-20 12:36:00,80.8,62.1,30.15,WSW,248,2.0,6.0,53,0.00,,---,0.00,VWS V14.01,2013-06-20 16:36:00,
2013-06-20 12:37:00,80.8,62.6,30.15,WNW,297,1.0,6.0,54,0.00,,---,0.00,VWS V14.01,2013-06-20 16:37:00,
2013-06-20 12:38:00,80.8,63.7,30.15,NNW,335,2.0,6.0,56,0.00,,---,0.00,VWS V14.01,2013-06-20 16:38:00,
2013-06-20 12:39:00,80.8,63.7,30.15,NW,326,4.0,6.0,56,0.00,,---,0.00,VWS V14.01,2013-06-20 16:39:00,
2013-06-20 12:40:00,80.8,64.7,30.15,SW,222,6.0,6.0,58,0.00,,---,0.00,VWS V14.01,2013-06-20 16:40:00,
2013-06-20 12:41:00,80.8,63.1,30.15,SSW,201,3.0,6.0,55,0.00,,---,0.00,VWS V14.01,2013-06-20 16:41:00,
2013-06-20 12:42:00,80.7,62.0,30.15,WSW,242,2.0,6.0,53,0.00,,---,0.00,VWS V14.01,2013-06-20 16:42:00,
2013-06-20 12:43:00,80.8,63.7,30.15,WSW,240,0.0,6.0,56,0.00,,---,0.00,VWS V14.01,2013-06-20 16:43:00,
2013-06-20 12:44:00,80.9,63.8,30.15,West,278,1.0,6.0,56,0.00,,---,0.00,VWS V14.01,2013-06-20 16:44:00,
2013-06-20 12:45:00,80.9,62.2,30.15,North,354,3.0,6.0,53,0.00,,---,0.00,VWS V14.01,2013-06-20 16:45:00,
2013-06-20 12:46:00,81.0,63.3,30.15,NNW,335,2.0,6.0,55,0.00,,---,0.00,VWS V14.01,2013-06-20 16:46:00,
2013-06-20 12:47:00,81.0,62.3,30.15,East,97,3.0,6.0,53,0.00,,---,0.00,VWS V14.01,2013-06-20 16:47:00,
2013-06-20 12:48:00,81.0,62.8,30.16,SW,226,1.0,6.0,54,0.00,,---,0.00,VWS V14.01,2013-06-20 16:48:00,
2013-06-20 12:49:00,81.0,64.3,30.16,SSW,194,3.0,6.0,57,0.00,,---,0.00,VWS V14.01,2013-06-20 16:49:00,
2013-06-20 12:50:00,81.0,61.7,30.16,SE,139,1.0,6.0,52,0.00,,---,0.00,VWS V14.01,2013-06-20 16:50:00,
2013-06-20 12:51:00,81.1,62.4,30.15,SE,136,1.0,6.0,53,0.00,,---,0.00,VWS V14.01,2013-06-20 16:51:00,
2013-06-20 12:52:00,81.2,64.0,30.15,SSE,158,0.0,6.0,56,0.00,,---,0.00,VWS V14.01,2013-06-20 16:52:00,
2013-06-20 12:53:00,81.1,62.4,30.15,SW,225,3.0,6.0,53,0.00,,---,0.00,VWS V14.01,2013-06-20 16:53:00,
2013-06-20 12:54:00,81.0,61.7,30.15,NNW,343,1.0,6.0,52,0.00,,---,0.00,VWS V14.01,2013-06-20 16:54:00,
2013-06-20 12:55:00,80.9,62.7,30.15,NNW,345,2.0,6.0,54,0.00,,---,0.00,VWS V14.01,2013-06-20 16:55:00,
2013-06-20 12:56:00,80.9,62.7,30.15,North,349,0.0,6.0,54,0.00,,---,0.00,VWS V14.01,2013-06-20 16:56:00,
2013-06-20 12:57:00,80.8,64.2,30.15,West,262,1.0,6.0,57,0.00,,---,0.00,VWS V14.01,2013-06-20 16:57:00,
2013-06-20 12:58:00,80.8,64.2,30.15,WNW,295,0.0,6.0,57,0.00,,---,0.00,VWS V14.01,2013-06-20 16:58:00,
2013-06-20 12:59:00,80.8,64.2,30.15,WNW,295,0.0,6.0,57,0.00,,---,0.00,VWS V14.01,2013-06-20 16:59:00,
2013-06-20 13:00:00,80.9,64.8,30.15,WNW,283,3.0,6.0,58,0.00,,---,0.00,VWS V14.01,2013-06-20 17:00:00,
2013-06-20 13:01:00,80.8,64.2,30.15,SSW,213,2.0,4.0,57,0.00,,---,0.00,VWS V14.01,2013-06-20 17:01:00,
2013-06-20 13:02:00,80.8,63.1,30.15,WSW,257,2.0,4.0,55,0.00,,---,0.00,VWS V14.01,2013-06-20 17:02:00,
2013-06-20 13:03:00,80.6,63.5,30.15,SSW,201,2.0,4.0,56,0.00,,---,0.00,VWS V14.01,2013-06-20 17:03:00,
2013-06-20 13:04:00,80.6,61.9,30.15,SW,231,2.0,4.0,53,0.00,,---,0.00,VWS V14.01,2013-06-20 17:04:00,
2013-06-20 13:05:00,80.5,62.3,30.15,SW,217,0.0,4.0,54,0.00,,---,0.00,VWS V14.01,2013-06-20 17:05:00,
2013-06-20 13:06:00,80.5,63.4,30.15,SW,217,0.0,4.0,56,0.00,,---,0.00,VWS V14.01,2013-06-20 17:06:00,
2013-06-20 13:07:00,80.6,63.0,30.15,WSW,242,2.0,4.0,55,0.00,,---,0.00,VWS V14.01,2013-06-20 17:07:00,
2013-06-20 13:08:00,80.5,62.3,30.15,WSW,242,0.0,4.0,54,0.00,,---,0.00,VWS V14.01,2013-06-20 17:08:00,
2013-06-20 13:09:00,80.6,64.5,30.15,WNW,302,1.0,4.0,58,0.00,,---,0.00,VWS V14.01,2013-06-20 17:09:00,
2013-06-20 13:10:00,80.7,63.6,30.15,NNE,26,1.0,4.0,56,0.00,,---,0.00,VWS V14.01,2013-06-20 17:10:00,
2013-06-20 13:11:00,80.6,63.5,30.15,North,10,6.0,6.0,56,0.00,,---,0.00,VWS V14.01,2013-06-20 17:11:00,
2013-06-20 13:12:00,80.5,62.9,30.15,North,360,4.0,6.0,55,0.00,,---,0.00,VWS V14.01,2013-06-20 17:12:00,
2013-06-20 13:13:00,80.3,63.7,30.15,West,280,0.0,6.0,57,0.00,,---,0.00,VWS V14.01,2013-06-20 17:13:00,
2013-06-20 13:14:00,80.2,64.1,30.15,North,354,2.0,6.0,58,0.00,,---,0.00,VWS V14.01,2013-06-20 17:14:00,
2013-06-20 13:15:00,80.1,65.0,30.15,NW,307,2.0,6.0,60,0.00,,---,0.00,VWS V14.01,2013-06-20 17:15:00,
2013-06-20 13:16:00,80.0,63.9,30.15,NNW,339,3.0,6.0,58,0.00,,---,0.00,VWS V14.01,2013-06-20 17:16:00,
2013-06-20 13:17:00,79.9,63.8,30.15,West,264,1.0,6.0,58,0.00,,---,0.00,VWS V14.01,2013-06-20 17:17:00,
2013-06-20 13:18:00,79.8,62.7,30.15,NNW,337,2.0,6.0,56,0.00,,---,0.00,VWS V14.01,2013-06-20 17:18:00,
2013-06-20 13:19:00,79.8,63.2,30.15,West,276,1.0,6.0,57,0.00,,---,0.00,VWS V14.01,2013-06-20 17:19:00,
2013-06-20 13:20:00,79.9,64.3,30.15,West,277,0.0,6.0,59,0.00,,---,0.00,VWS V14.01,2013-06-20 17:20:00,
2013-06-20 13:21:00,79.9,62.3,30.15,WNW,290,0.0,6.0,55,0.00,,---,0.00,VWS V14.01,2013-06-20 17:21:00,
2013-06-20 13:22:00,80.0,62.4,30.15,NW,307,0.0,6.0,55,0.00,,---,0.00,VWS V14.01,2013-06-20 17:22:00,
2013-06-20 13:23:00,80.0,63.4,30.15,NNW,338,1.0,6.0,57,0.00,,---,0.00,VWS V14.01,2013-06-20 17:23:00,
2013-06-20 13:24:00,80.1,63.0,30.15,NNW,342,2.0,6.0,56,0.00,,---,0.00,VWS V14.01,2013-06-20 17:24:00,
2013-06-20 13:25:00,80.1,63.0,30.15,NNW,335,0.0,6.0,56,0.00,,---,0.00,VWS V14.01,2013-06-20 17:25:00,
2013-06-20 13:26:00,80.1,64.5,30.14,NNW,331,3.0,6.0,59,0.00,,---,0.00,VWS V14.01,2013-06-20 17:26:00,
2013-06-20 13:27:00,80.2,64.1,30.14,NW,316,2.0,6.0,58,0.00,,---,0.00,VWS V14.01,2013-06-20 17:27:00,
2013-06-20 13:28:00,80.2,65.5,30.15,NNW,339,3.0,6.0,61,0.00,,---,0.00,VWS V14.01,2013-06-20 17:28:00,
2013-06-20 13:29:00,80.1,64.0,30.15,North,1,3.0,6.0,58,0.00,,---,0.00,VWS V14.01,2013-06-20 17:29:00,
2013-06-20 13:30:00,80.1,63.0,30.14,NNW,346,0.0,6.0,56,0.00,,---,0.00,VWS V14.01,2013-06-20 17:30:00,
2013-06-20 13:31:00,80.0,63.9,30.15,NW,326,2.0,3.0,58,0.00,,---,0.00,VWS V14.01,2013-06-20 17:31:00,
2013-06-20 13:32:00,80.0,63.9,30.15,WNW,284,1.0,3.0,58,0.00,,---,0.00,VWS V14.01,2013-06-20 17:32:00,
2013-06-20 13:33:00,79.9,63.8,30.14,WNW,284,0.0,3.0,58,0.00,,---,0.00,VWS V14.01,2013-06-20 17:33:00,
2013-06-20 13:34:00,80.0,64.9,30.15,WNW,283,0.0,3.0,60,0.00,,---,0.00,VWS V14.01,2013-06-20 17:34:00,
2013-06-20 13:35:00,80.1,65.4,30.15,SW,219,1.0,3.0,61,0.00,,---,0.00,VWS V14.01,2013-06-20 17:35:00,
2013-06-20 13:36:00,80.1,64.0,30.15,SW,225,2.0,3.0,58,0.00,,---,0.00,VWS V14.01,2013-06-20 17:36:00,
2013-06-20 13:37:00,80.1,63.0,30.15,SW,232,1.0,3.0,56,0.00,,---,0.00,VWS V14.01,2013-06-20 17:37:00,
2013-06-20 13:38:00,80.1,63.0,30.15,SSW,204,1.0,3.0,56,0.00,,---,0.00,VWS V14.01,2013-06-20 17:38:00,
2013-06-20 13:39:00,80.1,63.0,30.15,West,259,2.0,3.0,56,0.00,,---,0.00,VWS V14.01,2013-06-20 17:39:00,
2013-06-20 13:40:00,80.1,63.5,30.15,NNW,340,0.0,3.0,57,0.00,,---,0.00,VWS V14.01,2013-06-20 17:40:00,
2013-06-20 13:41:00,80.1,64.0,30.15,NW,315,1.0,3.0,58,0.00,,---,0.00,VWS V14.01,2013-06-20 17:41:00,
2013-06-20 13:42:00,80.1,64.5,30.15,NNE,12,2.0,3.0,59,0.00,,---,0.00,VWS V14.01,2013-06-20 17:42:00,
2013-06-20 13:43:00,80.1,64.0,30.15,North,355,0.0,3.0,58,0.00,,---,0.00,VWS V14.01,2013-06-20 17:43:00,
2013-06-20 13:44:00,80.1,64.0,30.15,NNW,330,1.0,3.0,58,0.00,,---,0.00,VWS V14.01,2013-06-20 17:44:00,
2013-06-20 13:45:00,80.0,64.4,30.15,NNW,344,2.0,3.0,59,0.00,,---,0.00,VWS V14.01,2013-06-20 17:45:00,
2013-06-20 13:46:00,79.9,63.8,30.15,North,4,3.0,3.0,58,0.00,,---,0.00,VWS V14.01,2013-06-20 17:46:00,
2013-06-20 13:47:00,79.8,64.2,30.15,NNE,15,3.0,4.0,59,0.00,,---,0.00,VWS V14.01,2013-06-20 17:47:00,
2013-06-20 13:48:00,79.6,63.0,30.15,NNW,346,1.0,4.0,57,0.00,,---,0.00,VWS V14.01,2013-06-20 17:48:00,
2013-06-20 13:49:00,79.5,63.0,30.15,NNW,330,1.0,4.0,57,0.00,,---,0.00,VWS V14.01,2013-06-20 17:49:00,
2013-06-20 13:50:00,79.4,64.8,30.15,NNW,333,1.0,4.0,61,0.00,,---,0.00,VWS V14.01,2013-06-20 17:50:00,
2013-06-20 13:51:00,79.4,64.8,30.15,NNW,331,0.0,4.0,61,0.00,,---,0.00,VWS V14.01,2013-06-20 17:51:00,
2013-06-20 13:52:00,79.3,62.8,30.15,North,10,1.0,4.0,57,0.00,,---,0.00,VWS V14.01,2013-06-20 17:52:00,
2013-06-20 13:53:00,79.2,63.2,30.15,NW,316,2.0,4.0,58,0.00,,---,0.00,VWS V14.01,2013-06-20 17:53:00,
2013-06-20 13:54:00,79.2,63.7,30.15,NW,314,0.0,4.0,59,0.00,,---,0.00,VWS V14.01,2013-06-20 17:54:00,
2013-06-20 13:55:00,79.2,63.7,30.15,NW,315,0.0,4.0,59,0.00,,---,0.00,VWS V14.01,2013-06-20 17:55:00,
2013-06-20 13:56:00,79.2,63.7,30.15,NW,315,1.0,4.0,59,0.00,,---,0.00,VWS V14.01,2013-06-20 17:56:00,
2013-06-20 13:57:00,79.1,63.1,30.16,NNW,333,1.0,4.0,58,0.00,,---,0.00,VWS V14.01,2013-06-20 17:57:00,
2013-06-20 13:58:00,79.1,63.1,30.16,North,359,2.0,4.0,58,0.00,,---,0.00,VWS V14.01,2013-06-20 17:58:00,
2013-06-20 13:59:00,79.1,63.6,30.15,West,263,1.0,4.0,59,0.00,,---,0.00,VWS V14.01,2013-06-20 17:59:00,
2013-06-20 14:00:00,79.1,64.0,30.15,NNW,330,1.0,4.0,60,0.00,,---,0.00,VWS V14.01,2013-06-20 18:00:00,
2013-06-20 14:01:00,79.1,63.6,30.15,NW,316,1.0,2.0,59,0.00,,---,0.00,VWS V14.01,2013-06-20 18:01:00,
2013-06-20 14:02:00,79.1,64.0,30.15,NW,315,0.0,2.0,60,0.00,,---,0.00,VWS V14.01,2013-06-20 18:02:00,
2013-06-20 14:03:00,79.2,63.7,30.15,NE,36,2.0,2.0,59,0.00,,---,0.00,VWS V14.01,2013-06-20 18:03:00,
2013-06-20 14:04:00,79.3,64.7,30.15,NNW,335,5.0,5.0,61,0.00,,---,0.00,VWS V14.01,2013-06-20 18:04:00,
2013-06-20 14:05:00,79.3,63.3,30.15,NNW,347,3.0,5.0,58,0.00,,---,0.00,VWS V14.01,2013-06-20 18:05:00,
2013-06-20 14:06:00,79.3,64.2,30.15,North,350,1.0,5.0,60,0.00,,---,0.00,VWS V14.01,2013-06-20 18:06:00,
2013-06-20 14:07:00,79.4,65.7,30.15,SSW,211,2.0,5.0,63,0.00,,---,0.00,VWS V14.01,2013-06-20 18:07:00,
2013-06-20 14:08:00,79.5,64.9,30.15,ENE,64,1.0,5.0,61,0.00,,---,0.00,VWS V14.01,2013-06-20 18:08:00,
2013-06-20 14:09:00,79.6,65.0,30.15,NNW,327,0.0,5.0,61,0.00,,---,0.00,VWS V14.01,2013-06-20 18:09:00,
2013-06-20 14:10:00,79.8,65.2,30.15,NW,326,0.0,5.0,61,0.00,,---,0.00,VWS V14.01,2013-06-20 18:10:00,
2013-06-20 14:11:00,79.9,66.7,30.15,WNW,295,1.0,5.0,64,0.00,,---,0.00,VWS V14.01,2013-06-20 18:11:00,
2013-06-20 14:12:00,79.9,64.8,30.15,North,9,1.0,5.0,60,0.00,,---,0.00,VWS V14.01,2013-06-20 18:12:00,
2013-06-20 14:13:00,80.1,65.0,30.15,NW,316,3.0,5.0,60,0.00,,---,0.00,VWS V14.01,2013-06-20 18:13:00,
2013-06-20 14:14:00,80.1,65.0,30.15,NNW,346,1.0,5.0,60,0.00,,---,0.00,VWS V14.01,2013-06-20 18:14:00,
2013-06-20 14:15:00,80.1,66.4,30.15,NW,314,1.0,5.0,63,0.00,,---,0.00,VWS V14.01,2013-06-20 18:15:00,
2013-06-20 14:16:00,80.1,65.9,30.15,WSW,244,1.0,5.0,62,0.00,,---,0.00,VWS V14.01,2013-06-20 18:16:00,
2013-06-20 14:17:00,80.1,65.0,30.15,SSW,210,1.0,5.0,60,0.00,,---,0.00,VWS V14.01,2013-06-20 18:17:00,
2013-06-20 14:18:00,80.1,64.0,30.15,West,268,2.0,5.0,58,0.00,,---,0.00,VWS V14.01,2013-06-20 18:18:00,
2013-06-20 14:19:00,80.1,63.5,30.15,WSW,255,1.0,5.0,57,0.00,,---,0.00,VWS V14.01,2013-06-20 18:19:00,
2013-06-20 14:20:00,80.1,63.5,30.15,West,264,2.0,5.0,57,0.00,,---,0.00,VWS V14.01,2013-06-20 18:20:00,
2013-06-20 14:21:00,80.1,64.5,30.15,NNW,330,1.0,5.0,59,0.00,,---,0.00,VWS V14.01,2013-06-20 18:21:00,
2013-06-20 14:22:00,80.1,64.5,30.15,West,278,0.0,5.0,59,0.00,,---,0.00,VWS V14.01,2013-06-20 18:22:00,
2013-06-20 14:23:00,80.1,65.4,30.15,NNW,347,2.0,5.0,61,0.00,,---,0.00,VWS V14.01,2013-06-20 18:23:00,
2013-06-20 14:24:00,80.3,67.5,30.15,WSW,244,2.0,5.0,65,0.00,,---,0.00,VWS V14.01,2013-06-20 18:24:00,
2013-06-20 14:25:00,80.3,67.5,30.15,SW,236,1.0,5.0,65,0.00,,---,0.00,VWS V14.01,2013-06-20 18:25:00,
2013-06-20 14:26:00,80.5,64.4,30.15,NNW,329,0.0,5.0,58,0.00,,---,0.00,VWS V14.01,2013-06-20 18:26:00,
2013-06-20 14:27:00,80.6,64.5,30.15,NW,326,1.0,5.0,58,0.00,,---,0.00,VWS V14.01,2013-06-20 18:27:00,
2013-06-20 14:28:00,80.7,64.6,30.15,North,6,3.0,5.0,58,0.00,,---,0.00,VWS V14.01,2013-06-20 18:28:00,
2013-06-20 14:29:00,80.8,65.2,30.15,NNW,335,3.0,5.0,59,0.00,,---,0.00,VWS V14.01,2013-06-20 18:29:00,
2013-06-20 14:30:00,80.9,65.2,30.15,NW,323,0.0,5.0,59,0.00,,---,0.00,VWS V14.01,2013-06-20 18:30:00,
2013-06-20 14:31:00,80.9,64.2,30.15,NW,315,2.0,3.0,57,0.00,,---,0.00,VWS V14.01,2013-06-20 18:31:00,
2013-06-20 14:32:00,81.0,66.3,30.15,NNW,348,2.0,3.0,61,0.00,,---,0.00,VWS V14.01,2013-06-20 18:32:00,
2013-06-20 14:33:00,81.1,67.3,30.14,NW,312,2.0,4.0,63,0.00,,---,0.00,VWS V14.01,2013-06-20 18:33:00,
2013-06-20 14:34:00,81.1,65.4,30.14,WNW,298,0.0,4.0,59,0.00,,---,0.00,VWS V14.01,2013-06-20 18:34:00,
2013-06-20 14:35:00,81.2,66.9,30.14,NNE,12,4.0,4.0,62,0.00,,---,0.00,VWS V14.01,2013-06-20 18:35:00,
2013-06-20 14:36:00,81.3,67.1,30.14,North,358,2.0,4.0,62,0.00,,---,0.00,VWS V14.01,2013-06-20 18:36:00,
2013-06-20 14:37:00,81.3,66.6,30.14,NNW,348,3.0,4.0,61,0.00,,---,0.00,VWS V14.01,2013-06-20 18:37:00,
2013-06-20 14:38:00,81.2,65.5,30.14,North,6,5.0,5.0,59,0.00,,---,0.00,VWS V14.01,2013-06-20 18:38:00,
2013-06-20 14:39:00,81.2,66.0,30.14,WNW,283,1.0,5.0,60,0.00,,---,0.00,VWS V14.01,2013-06-20 18:39:00,
2013-06-20 14:40:00,81.3,67.1,30.14,NW,316,2.0,5.0,62,0.00,,---,0.00,VWS V14.01,2013-06-20 18:40:00,
2013-06-20 14:41:00,81.2,64.0,30.14,WSW,250,0.0,5.0,56,0.00,,---,0.00,VWS V14.01,2013-06-20 18:41:00,
2013-06-20 14:42:00,81.3,64.1,30.14,North,359,4.0,5.0,56,0.00,,---,0.00,VWS V14.01,2013-06-20 18:42:00,
2013-06-20 14:43:00,81.2,63.5,30.14,North,8,5.0,5.0,55,0.00,,---,0.00,VWS V14.01,2013-06-20 18:43:00,
2013-06-20 14:44:00,81.1,63.4,30.14,NNE,14,4.0,5.0,55,0.00,,---,0.00,VWS V14.01,2013-06-20 18:44:00,
2013-06-20 14:45:00,81.0,63.8,30.14,NNE,22,1.0,5.0,56,0.00,,---,0.00,VWS V14.01,2013-06-20 18:45:00,
2013-06-20 14:46:00,81.0,64.8,30.14,WNW,301,1.0,5.0,58,0.00,,---,0.00,VWS V14.01,2013-06-20 18:46:00,
2013-06-20 14:47:00,81.0,64.3,30.14,WSW,253,0.0,5.0,57,0.00,,---,0.00,VWS V14.01,2013-06-20 18:47:00,
2013-06-20 14:48:00,81.0,63.8,30.14,NNE,27,3.0,6.0,56,0.00,,---,0.00,VWS V14.01,2013-06-20 18:48:00,
2013-06-20 14:49:00,81.0,64.3,30.14,North,1,2.0,6.0,57,0.00,,---,0.00,VWS V14.01,2013-06-20 18:49:00,
2013-06-20 14:50:00,81.0,65.3,30.14,NNE,12,4.0,6.0,59,0.00,,---,0.00,VWS V14.01,2013-06-20 18:50:00,
2013-06-20 14:51:00,81.0,64.8,30.14,NNW,342,2.0,6.0,58,0.00,,---,0.00,VWS V14.01,2013-06-20 18:51:00,
2013-06-20 14:52:00,81.0,64.8,30.14,NW,326,1.0,6.0,58,0.00,,---,0.00,VWS V14.01,2013-06-20 18:52:00,
2013-06-20 14:53:00,81.0,64.8,30.14,NNW,347,3.0,6.0,58,0.00,,---,0.00,VWS V14.01,2013-06-20 18:53:00,
2013-06-20 14:54:00,81.0,63.3,30.14,NNE,18,0.0,6.0,55,0.00,,---,0.00,VWS V14.01,2013-06-20 18:54:00,
2013-06-20 14:55:00,81.0,63.8,30.14,NW,308,3.0,6.0,56,0.00,,---,0.00,VWS V14.01,2013-06-20 18:55:00,
2013-06-20 14:56:00,81.1,65.9,30.14,North,6,5.0,6.0,60,0.00,,---,0.00,VWS V14.01,2013-06-20 18:56:00,
2013-06-20 14:57:00,81.1,63.9,30.14,North,354,4.0,6.0,56,0.00,,---,0.00,VWS V14.01,2013-06-20 18:57:00,
2013-06-20 14:58:00,81.1,63.9,30.14,NNW,340,3.0,6.0,56,0.00,,---,0.00,VWS V14.01,2013-06-20 18:58:00,
2013-06-20 14:59:00,81.1,62.4,30.14,NNW,335,4.0,6.0,53,0.00,,---,0.00,VWS V14.01,2013-06-20 18:59:00,
2013-06-20 15:00:00,81.0,62.3,30.14,North,4,3.0,6.0,53,0.00,,---,0.00,VWS V14.01,2013-06-20 19:00:00,
2013-06-20 15:01:00,81.0,63.8,30.14,NNW,338,2.0,4.0,56,0.00,,---,0.00,VWS V14.01,2013-06-20 19:01:00,
2013-06-20 15:02:00,81.1,65.9,30.14,NW,315,2.0,4.0,60,0.00,,---,0.00,VWS V14.01,2013-06-20 19:02:00,
2013-06-20 15:03:00,81.1,65.9,30.14,West,270,1.0,4.0,60,0.00,,---,0.00,VWS V14.01,2013-06-20 19:03:00,
2013-06-20 15:04:00,81.2,64.5,30.14,ENE,61,3.0,4.0,57,0.00,,---,0.00,VWS V14.01,2013-06-20 19:04:00,
2013-06-20 15:05:00,81.3,64.6,30.14,NNW,346,4.0,4.0,57,0.00,,---,0.00,VWS V14.01,2013-06-20 19:05:00,
2013-06-20 15:06:00,81.4,65.2,30.14,NNW,327,3.0,4.0,58,0.00,,---,0.00,VWS V14.01,2013-06-20 19:06:00,
2013-06-20 15:07:00,81.4,64.7,30.14,NNW,345,5.0,5.0,57,0.00,,---,0.00,VWS V14.01,2013-06-20 19:07:00,
2013-06-20 15:08:00,81.4,64.2,30.14,NW,324,4.0,7.0,56,0.00,,---,0.00,VWS V14.01,2013-06-20 19:08:00,
2013-06-20 15:09:00,81.4,66.2,30.14,NW,323,1.0,7.0,60,0.00,,---,0.00,VWS V14.01,2013-06-20 19:09:00,
2013-06-20 15:10:00,81.4,64.7,30.14,North,8,2.0,7.0,57,0.00,,---,0.00,VWS V14.01,2013-06-20 19:10:00,
2013-06-20 15:11:00,81.5,66.3,30.14,NNE,18,5.0,7.0,60,0.00,,---,0.00,VWS V14.01,2013-06-20 19:11:00,
2013-06-20 15:12:00,81.5,65.8,30.14,NW,318,2.0,7.0,59,0.00,,---,0.00,VWS V14.01,2013-06-20 19:12:00,
2013-06-20 15:13:00,81.6,65.4,30.14,West,273,1.0,7.0,58,0.00,,---,0.00,VWS V14.01,2013-06-20 19:13:00,
2013-06-20 15:14:00,81.6,65.4,30.14,NNW,329,2.0,7.0,58,0.00,,---,0.00,VWS V14.01,2013-06-20 19:14:00,
2013-06-20 15:15:00,81.7,64.5,30.14,NNW,344,2.0,7.0,56,0.00,,---,0.00,VWS V14.01,2013-06-20 19:15:00,
2013-06-20 15:16:00,81.7,65.5,30.14,NNW,331,2.0,7.0,58,0.00,,---,0.00,VWS V14.01,2013-06-20 19:16:00,
2013-06-20 15:17:00,81.7,64.0,30.14,NNW,343,2.0,7.0,55,0.00,,---,0.00,VWS V14.01,2013-06-20 19:17:00,
2013-06-20 15:18:00,81.8,64.1,30.14,WSW,248,1.0,7.0,55,0.00,,---,0.00,VWS V14.01,2013-06-20 19:18:00,
2013-06-20 15:19:00,81.8,64.1,30.14,WSW,257,0.0,7.0,55,0.00,,---,0.00,VWS V14.01,2013-06-20 19:19:00,
2013-06-20 15:20:00,81.8,64.6,30.14,NW,316,0.0,7.0,56,0.00,,---,0.00,VWS V14.01,2013-06-20 19:20:00,
2013-06-20 15:21:00,81.9,64.2,30.14,SW,232,1.0,7.0,55,0.00,,---,0.00,VWS V14.01,2013-06-20 19:21:00,
2013-06-20 15:22:00,81.9,63.6,30.14,NNW,328,1.0,7.0,54,0.00,,---,0.00,VWS V14.01,2013-06-20 19:22:00,
2013-06-20 15:23:00,81.9,63.6,30.14,NNW,337,1.0,7.0,54,0.00,,---,0.00,VWS V14.01,2013-06-20 19:23:00,
2013-06-20 15:24:00,81.8,63.5,30.14,NW,322,0.0,7.0,54,0.00,,---,0.00,VWS V14.01,2013-06-20 19:24:00,
2013-06-20 15:25:00,81.6,63.4,30.14,NNW,339,1.0,7.0,54,0.00,,---,0.00,VWS V14.01,2013-06-20 19:25:00,
2013-06-20 15:26:00,81.6,63.4,30.14,WSW,246,3.0,7.0,54,0.00,,---,0.00,VWS V14.01,2013-06-20 19:26:00,
2013-06-20 15:27:00,81.6,63.4,30.14,North,355,1.0,7.0,54,0.00,,---,0.00,VWS V14.01,2013-06-20 19:27:00,
2013-06-20 15:28:00,81.5,63.8,30.14,NNE,19,4.0,7.0,55,0.00,,---,0.00,VWS V14.01,2013-06-20 19:28:00,
2013-06-20 15:29:00,81.4,63.7,30.14,NNW,331,3.0,7.0,55,0.00,,---,0.00,VWS V14.01,2013-06-20 19:29:00,
2013-06-20 15:30:00,81.3,63.6,30.14,North,356,2.0,7.0,55,0.00,,---,0.00,VWS V14.01,2013-06-20 19:30:00,
2013-06-20 15:31:00,81.3,64.6,30.13,ENE,57,2.0,3.0,57,0.00,,---,0.00,VWS V14.01,2013-06-20 19:31:00,
2013-06-20 15:32:00,81.2,64.5,30.13,WSW,248,1.0,3.0,57,0.00,,---,0.00,VWS V14.01,2013-06-20 19:32:00,
2013-06-20 15:33:00,81.2,63.5,30.13,West,266,1.0,3.0,55,0.00,,---,0.00,VWS V14.01,2013-06-20 19:33:00,
2013-06-20 15:34:00,81.3,65.1,30.13,North,10,2.0,3.0,58,0.00,,---,0.00,VWS V14.01,2013-06-20 19:34:00,
2013-06-20 15:35:00,81.4,64.2,30.13,NNW,333,2.0,3.0,56,0.00,,---,0.00,VWS V14.01,2013-06-20 19:35:00,
2013-06-20 15:36:00,81.4,64.2,30.13,NNW,333,1.0,3.0,56,0.00,,---,0.00,VWS V14.01,2013-06-20 19:36:00,
2013-06-20 15:37:00,81.4,64.2,30.13,NW,315,0.0,3.0,56,0.00,,---,0.00,VWS V14.01,2013-06-20 19:37:00,
2013-06-20 15:38:00,81.4,63.7,30.13,NW,315,0.0,3.0,55,0.00,,---,0.00,VWS V14.01,2013-06-20 19:38:00,
2013-06-20 15:39:00,81.5,63.8,30.13,NW,315,0.0,3.0,55,0.00,,---,0.00,VWS V14.01,2013-06-20 19:39:00,
2013-06-20 15:40:00,81.6,62.8,30.13,NW,316,0.0,3.0,53,0.00,,---,0.00,VWS V14.01,2013-06-20 19:40:00,
2013-06-20 15:41:00,81.6,63.9,30.13,NW,316,0.0,3.0,55,0.00,,---,0.00,VWS V14.01,2013-06-20 19:41:00,
2013-06-20 15:42:00,81.7,62.9,30.13,NW,323,0.0,3.0,53,0.00,,---,0.00,VWS V14.01,2013-06-20 19:42:00,
2013-06-20 15:43:00,81.8,62.5,30.13,NW,323,0.0,3.0,52,0.00,,---,0.00,VWS V14.01,2013-06-20 19:43:00,
2013-06-20 15:44:00,81.9,63.6,30.13,NW,326,0.0,3.0,54,0.00,,---,0.00,VWS V14.01,2013-06-20 19:44:00,
2013-06-20 15:45:00,82.0,63.2,30.13,NNW,340,1.0,3.0,53,0.00,,---,0.00,VWS V14.01,2013-06-20 19:45:00,
2013-06-20 15:46:00,82.0,62.7,30.13,North,1,1.0,3.0,52,0.00,,---,0.00,VWS V14.01,2013-06-20 19:46:00,
2013-06-20 15:47:00,82.0,63.2,30.13,North,1,1.0,3.0,53,0.00,,---,0.00,VWS V14.01,2013-06-20 19:47:00,
2013-06-20 15:48:00,82.1,64.3,30.13,North,1,0.0,3.0,55,0.00,,---,0.00,VWS V14.01,2013-06-20 19:48:00,
2013-06-20 15:49:00,82.1,64.3,30.13,NNW,331,2.0,3.0,55,0.00,,---,0.00,VWS V14.01,2013-06-20 19:49:00,
2013-06-20 15:50:00,82.1,64.3,30.13,North,350,3.0,3.0,55,0.00,,---,0.00,VWS V14.01,2013-06-20 19:50:00,
2013-06-20 15:51:00,82.1,63.8,30.13,NNE,26,3.0,4.0,54,0.00,,---,0.00,VWS V14.01,2013-06-20 19:51:00,
2013-06-20 15:52:00,81.9,63.1,30.13,NNE,23,3.0,4.0,53,0.00,,---,0.00,VWS V14.01,2013-06-20 19:52:00,
2013-06-20 15:53:00,81.8,65.1,30.13,NNE,30,1.0,4.0,57,0.00,,---,0.00,VWS V14.01,2013-06-20 19:53:00,
2013-06-20 15:54:00,81.7,64.0,30.13,NNE,30,0.0,4.0,55,0.00,,---,0.00,VWS V14.01,2013-06-20 19:54:00,
2013-06-20 15:55:00,81.7,64.5,30.13,NNE,30,0.0,4.0,56,0.00,,---,0.00,VWS V14.01,2013-06-20 19:55:00,
2013-06-20 15:56:00,81.8,64.1,30.13,NNE,30,0.0,4.0,55,0.00,,---,0.00,VWS V14.01,2013-06-20 19:56:00,
2013-06-20 15:57:00,81.9,63.6,30.13,NNE,30,0.0,4.0,54,0.00,,---,0.00,VWS V14.01,2013-06-20 19:57:00,
2013-06-20 15:58:00,82.1,65.4,30.13,NW,323,1.0,4.0,57,0.00,,---,0.00,VWS V14.01,2013-06-20 19:58:00,
2013-06-20 15:59:00,82.3,65.6,30.13,WSW,256,3.0,4.0,57,0.00,,---,0.00,VWS V14.01,2013-06-20 19:59:00,
2013-06-20 16:00:00,82.4,64.6,30.13,West,262,1.0,4.0,55,0.00,,---,0.00,VWS V14.01,2013-06-20 20:00:00,
2013-06-20 16:01:00,82.4,64.1,30.13,SW,233,3.0,3.0,54,0.00,,---,0.00,VWS V14.01,2013-06-20 20:01:00,
2013-06-20 16:02:00,82.4,63.6,30.13,NW,323,2.0,3.0,53,0.00,,---,0.00,VWS V14.01,2013-06-20 20:02:00,
2013-06-20 16:03:00,82.3,62.9,30.13,North,10,4.0,5.0,52,0.00,,---,0.00,VWS V14.01,2013-06-20 20:03:00,
2013-06-20 16:04:00,82.2,63.4,30.12,NNE,20,3.0,5.0,53,0.00,,---,0.00,VWS V14.01,2013-06-20 20:04:00,
2013-06-20 16:05:00,82.1,65.4,30.12,NNE,20,7.0,7.0,57,0.00,,---,0.00,VWS V14.01,2013-06-20 20:05:00,
2013-06-20 16:06:00,82.0,64.8,30.12,North,8,5.0,7.0,56,0.00,,---,0.00,VWS V14.01,2013-06-20 20:06:00,
2013-06-20 16:07:00,81.9,64.7,30.12,NNW,330,4.0,7.0,56,0.00,,---,0.00,VWS V14.01,2013-06-20 20:07:00,
2013-06-20 16:08:00,81.9,64.7,30.12,North,352,2.0,7.0,56,0.00,,---,0.00,VWS V14.01,2013-06-20 20:08:00,
2013-06-20 16:09:00,81.9,65.2,30.12,NNE,16,2.0,7.0,57,0.00,,---,0.00,VWS V14.01,2013-06-20 20:09:00,
2013-06-20 16:10:00,81.8,64.1,30.12,NNW,344,3.0,7.0,55,0.00,,---,0.00,VWS V14.01,2013-06-20 20:10:00,
2013-06-20 16:11:00,81.8,63.5,30.12,NW,326,2.0,7.0,54,0.00,,---,0.00,VWS V14.01,2013-06-20 20:11:00,
2013-06-20 16:12:00,81.8,65.1,30.12,NNW,328,1.0,7.0,57,0.00,,---,0.00,VWS V14.01,2013-06-20 20:12:00,
2013-06-20 16:13:00,81.7,62.9,30.12,NNE,23,2.0,7.0,53,0.00,,---,0.00,VWS V14.01,2013-06-20 20:13:00,
2013-06-20 16:14:00,81.7,64.0,30.12,NNW,348,2.0,7.0,55,0.00,,---,0.00,VWS V14.01,2013-06-20 20:14:00,
2013-06-20 16:15:00,81.7,64.5,30.12,North,360,2.0,7.0,56,0.00,,---,0.00,VWS V14.01,2013-06-20 20:15:00,
2013-06-20 16:16:00,81.7,62.9,30.12,NW,319,2.0,7.0,53,0.00,,---,0.00,VWS V14.01,2013-06-20 20:16:00,
2013-06-20 16:17:00,81.7,62.9,30.12,NNW,327,0.0,7.0,53,0.00,,---,0.00,VWS V14.01,2013-06-20 20:17:00,
2013-06-20 16:18:00,81.8,64.6,30.12,NNW,327,0.0,7.0,56,0.00,,---,0.00,VWS V14.01,2013-06-20 20:18:00,
2013-06-20 16:19:00,81.9,63.6,30.12,NW,326,0.0,7.0,54,0.00,,---,0.00,VWS V14.01,2013-06-20 20:19:00,
2013-06-20 16:20:00,82.1,64.9,30.12,WSW,252,1.0,7.0,56,0.00,,---,0.00,VWS V14.01,2013-06-20 20:20:00,
2013-06-20 16:21:00,82.2,65.5,30.12,SW,221,1.0,7.0,57,0.00,,---,0.00,VWS V14.01,2013-06-20 20:21:00,
2013-06-20 16:22:00,82.3,65.1,30.12,SW,214,1.0,7.0,56,0.00,,---,0.00,VWS V14.01,2013-06-20 20:22:00,
2013-06-20 16:23:00,82.4,64.1,30.12,SSE,156,1.0,7.0,54,0.00,,---,0.00,VWS V14.01,2013-06-20 20:23:00,
2013-06-20 16:24:00,82.5,64.2,30.12,SSW,197,3.0,7.0,54,0.00,,---,0.00,VWS V14.01,2013-06-20 20:24:00,
2013-06-20 16:25:00,82.6,64.3,30.12,SW,217,2.0,7.0,54,0.00,,---,0.00,VWS V14.01,2013-06-20 20:25:00,
2013-06-20 16:26:00,82.7,63.3,30.12,SE,143,1.0,7.0,52,0.00,,---,0.00,VWS V14.01,2013-06-20 20:26:00,
2013-06-20 16:27:00,82.7,63.3,30.12,SSE,147,1.0,7.0,52,0.00,,---,0.00,VWS V14.01,2013-06-20 20:27:00,
2013-06-20 16:28:00,82.7,63.3,30.12,SE,146,0.0,7.0,52,0.00,,---,0.00,VWS V14.01,2013-06-20 20:28:00,
2013-06-20 16:29:00,82.9,63.5,30.12,SSE,147,0.0,7.0,52,0.00,,---,0.00,VWS V14.01,2013-06-20 20:29:00,
2013-06-20 16:30:00,83.1,64.8,30.12,SE,146,1.0,7.0,54,0.00,,---,0.00,VWS V14.01,2013-06-20 20:30:00,
2013-06-20 16:31:00,83.3,63.9,30.12,SE,128,4.0,4.0,52,0.00,,---,0.00,VWS V14.01,2013-06-20 20:31:00,
2013-06-20 16:32:00,83.4,64.0,30.12,SW,236,2.0,4.0,52,0.00,,---,0.00,VWS V14.01,2013-06-20 20:32:00,
2013-06-20 16:33:00,83.4,64.0,30.12,SW,215,2.0,4.0,52,0.00,,---,0.00,VWS V14.01,2013-06-20 20:33:00,
2013-06-20 16:34:00,83.5,62.9,30.12,SE,135,3.0,5.0,50,0.00,,---,0.00,VWS V14.01,2013-06-20 20:34:00,
2013-06-20 16:35:00,83.5,62.9,30.12,SSW,192,1.0,5.0,50,0.00,,---,0.00,VWS V14.01,2013-06-20 20:35:00,
2013-06-20 16:36:00,83.6,63.6,30.12,WSW,237,2.0,5.0,51,0.00,,---,0.00,VWS V14.01,2013-06-20 20:36:00,
2013-06-20 16:37:00,83.5,63.5,30.12,SW,229,2.0,5.0,51,0.00,,---,0.00,VWS V14.01,2013-06-20 20:37:00,
2013-06-20 16:38:00,83.4,63.4,30.11,SSE,153,3.0,5.0,51,0.00,,---,0.00,VWS V14.01,2013-06-20 20:38:00,
2013-06-20 16:39:00,83.4,63.4,30.12,SSW,212,2.0,5.0,51,0.00,,---,0.00,VWS V14.01,2013-06-20 20:39:00,
2013-06-20 16:40:00,83.3,62.7,30.12,ESE,113,2.0,5.0,50,0.00,,---,0.00,VWS V14.01,2013-06-20 20:40:00,
2013-06-20 16:41:00,83.3,63.9,30.11,SSW,193,1.0,5.0,52,0.00,,---,0.00,VWS V14.01,2013-06-20 20:41:00,
2013-06-20 16:42:00,83.4,64.0,30.11,SSE,167,1.0,5.0,52,0.00,,---,0.00,VWS V14.01,2013-06-20 20:42:00,
2013-06-20 16:43:00,83.4,62.8,30.11,SW,225,2.0,5.0,50,0.00,,---,0.00,VWS V14.01,2013-06-20 20:43:00,
2013-06-20 16:44:00,83.4,63.4,30.11,SSW,211,0.0,5.0,51,0.00,,---,0.00,VWS V14.01,2013-06-20 20:44:00,
2013-06-20 16:45:00,83.4,64.0,30.11,West,266,3.0,5.0,52,0.00,,---,0.00,VWS V14.01,2013-06-20 20:45:00,
2013-06-20 16:46:00,83.4,63.4,30.11,SSW,197,2.0,5.0,51,0.00,,---,0.00,VWS V14.01,2013-06-20 20:46:00,
2013-06-20 16:47:00,83.4,64.0,30.11,SE,138,1.0,5.0,52,0.00,,---,0.00,VWS V14.01,2013-06-20 20:47:00,
2013-06-20 16:48:00,83.4,64.5,30.11,SE,139,0.0,5.0,53,0.00,,---,0.00,VWS V14.01,2013-06-20 20:48:00,
2013-06-20 16:49:00,83.5,64.0,30.11,ESE,116,3.0,5.0,52,0.00,,---,0.00,VWS V14.01,2013-06-20 20:49:00,
2013-06-20 16:50:00,83.5,63.5,30.11,South,172,0.0,5.0,51,0.00,,---,0.00,VWS V14.01,2013-06-20 20:50:00,
2013-06-20 16:51:00,83.6,64.7,30.11,SW,217,2.0,5.0,53,0.00,,---,0.00,VWS V14.01,2013-06-20 20:51:00,
2013-06-20 16:52:00,83.6,63.0,30.11,SE,126,1.0,5.0,50,0.00,,---,0.00,VWS V14.01,2013-06-20 20:52:00,
2013-06-20 16:53:00,83.7,63.7,30.11,ESE,121,2.0,5.0,51,0.00,,---,0.00,VWS V14.01,2013-06-20 20:53:00,
2013-06-20 16:54:00,83.6,63.6,30.11,SE,124,2.0,5.0,51,0.00,,---,0.00,VWS V14.01,2013-06-20 20:54:00,
2013-06-20 16:55:00,83.5,62.9,30.11,ESE,120,0.0,5.0,50,0.00,,---,0.00,VWS V14.01,2013-06-20 20:55:00,
2013-06-20 16:56:00,83.5,65.1,30.11,South,188,1.0,5.0,54,0.00,,---,0.00,VWS V14.01,2013-06-20 20:56:00,
2013-06-20 16:57:00,83.6,63.6,30.11,WSW,245,2.0,5.0,51,0.00,,---,0.00,VWS V14.01,2013-06-20 20:57:00,
2013-06-20 16:58:00,83.6,63.0,30.11,SE,145,1.0,5.0,50,0.00,,---,0.00,VWS V14.01,2013-06-20 20:58:00,
2013-06-20 16:59:00,83.6,63.6,30.11,SE,131,3.0,5.0,51,0.00,,---,0.00,VWS V14.01,2013-06-20 20:59:00,
2013-06-20 17:00:00,83.6,64.1,30.11,SSE,149,2.0,5.0,52,0.00,,---,0.00,VWS V14.01,2013-06-20 21:00:00,
2013-06-20 17:01:00,83.6,64.7,30.11,SE,125,4.0,4.0,53,0.00,,---,0.00,VWS V14.01,2013-06-20 21:01:00,
2013-06-20 17:02:00,83.5,62.9,30.11,SE,138,4.0,6.0,50,0.00,,---,0.00,VWS V14.01,2013-06-20 21:02:00,
2013-06-20 17:03:00,83.3,62.7,30.11,SSE,162,0.0,6.0,50,0.00,,---,0.00,VWS V14.01,2013-06-20 21:03:00,
2013-06-20 17:04:00,83.3,63.3,30.11,SE,131,0.0,6.0,51,0.00,,---,0.00,VWS V14.01,2013-06-20 21:04:00,
2013-06-20 17:05:00,83.4,64.0,30.11,SE,131,0.0,6.0,52,0.00,,---,0.00,VWS V14.01,2013-06-20 21:05:00,
2013-06-20 17:06:00,83.4,64.5,30.11,SE,131,2.0,6.0,53,0.00,,---,0.00,VWS V14.01,2013-06-20 21:06:00,
2013-06-20 17:07:00,83.5,64.0,30.11,SSW,201,0.0,6.0,52,0.00,,---,0.00,VWS V14.01,2013-06-20 21:07:00,
2013-06-20 17:08:00,83.6,64.7,30.11,SSE,162,1.0,6.0,53,0.00,,---,0.00,VWS V14.01,2013-06-20 21:08:00,
2013-06-20 17:09:00,83.7,64.2,30.11,SE,132,1.0,6.0,52,0.00,,---,0.00,VWS V14.01,2013-06-20 21:09:00,
2013-06-20 17:10:00,83.7,63.7,30.11,ESE,122,2.0,6.0,51,0.00,,---,0.00,VWS V14.01,2013-06-20 21:10:00,
2013-06-20 17:11:00,83.8,62.6,30.11,SW,226,2.0,6.0,49,0.00,,---,0.00,VWS V14.01,2013-06-20 21:11:00,
2013-06-20 17:12:00,83.7,63.1,30.11,WSW,252,2.0,6.0,50,0.00,,---,0.00,VWS V14.01,2013-06-20 21:12:00,
2013-06-20 17:13:00,83.6,63.6,30.11,WSW,249,0.0,6.0,51,0.00,,---,0.00,VWS V14.01,2013-06-20 21:13:00,
2013-06-20 17:14:00,83.6,64.7,30.11,WSW,248,1.0,6.0,53,0.00,,---,0.00,VWS V14.01,2013-06-20 21:14:00,
2013-06-20 17:15:00,83.7,63.1,30.11,WSW,249,0.0,6.0,50,0.00,,---,0.00,VWS V14.01,2013-06-20 21:15:00,
2013-06-20 17:16:00,83.7,63.7,30.11,WSW,249,0.0,6.0,51,0.00,,---,0.00,VWS V14.01,2013-06-20 21:16:00,
2013-06-20 17:17:00,83.9,63.3,30.11,SW,222,1.0,6.0,50,0.00,,---,0.00,VWS V14.01,2013-06-20 21:17:00,
2013-06-20 17:18:00,84.0,63.4,30.11,ESE,113,0.0,6.0,50,0.00,,---,0.00,VWS V14.01,2013-06-20 21:18:00,
2013-06-20 17:19:00,84.1,63.5,30.10,ESE,113,0.0,6.0,50,0.00,,---,0.00,VWS V14.01,2013-06-20 21:19:00,
2013-06-20 17:20:00,84.1,63.5,30.10,ESE,110,1.0,6.0,50,0.00,,---,0.00,VWS V14.01,2013-06-20 21:20:00,
2013-06-20 17:21:00,84.0,64.5,30.10,ESE,110,1.0,6.0,52,0.00,,---,0.00,VWS V14.01,2013-06-20 21:21:00,
2013-06-20 17:22:00,83.9,63.3,30.10,ESE,112,0.0,6.0,50,0.00,,---,0.00,VWS V14.01,2013-06-20 21:22:00,
2013-06-20 17:23:00,83.9,63.8,30.10,ESE,111,0.0,6.0,51,0.00,,---,0.00,VWS V14.01,2013-06-20 21:23:00,
2013-06-20 17:24:00,84.0,63.9,30.10,ESE,112,0.0,6.0,51,0.00,,---,0.00,VWS V14.01,2013-06-20 21:24:00,
2013-06-20 17:25:00,84.1,64.0,30.10,ESE,110,0.0,6.0,51,0.00,,---,0.00,VWS V14.01,2013-06-20 21:25:00,
2013-06-20 17:26:00,84.3,64.8,30.10,WSW,250,0.0,6.0,52,0.00,,---,0.00,VWS V14.01,2013-06-20 21:26:00,
2013-06-20 17:27:00,84.5,65.0,30.11,SW,215,1.0,6.0,52,0.00,,---,0.00,VWS V14.01,2013-06-20 21:27:00,
2013-06-20 17:28:00,84.6,63.9,30.11,SSW,211,1.0,6.0,50,0.00,,---,0.00,VWS V14.01,2013-06-20 21:28:00,
2013-06-20 17:29:00,84.6,63.9,30.11,SSW,211,0.0,6.0,50,0.00,,---,0.00,VWS V14.01,2013-06-20 21:29:00,
2013-06-20 17:30:00,84.7,65.1,30.11,SSW,211,0.0,6.0,52,0.00,,---,0.00,VWS V14.01,2013-06-20 21:30:00,
2013-06-20 17:31:00,84.7,64.6,30.11,WSW,256,2.0,2.0,51,0.00,,---,0.00,VWS V14.01,2013-06-20 21:31:00,
2013-06-20 17:32:00,84.6,64.5,30.11,WSW,248,1.0,2.0,51,0.00,,---,0.00,VWS V14.01,2013-06-20 21:32:00,
2013-06-20 17:33:00,84.4,64.9,30.11,South,179,3.0,3.0,52,0.00,,---,0.00,VWS V14.01,2013-06-20 21:33:00,
2013-06-20 17:34:00,84.2,64.1,30.11,SW,215,2.0,3.0,51,0.00,,---,0.00,VWS V14.01,2013-06-20 21:34:00,
2013-06-20 17:35:00,84.1,64.6,30.11,SSW,210,2.0,3.0,52,0.00,,---,0.00,VWS V14.01,2013-06-20 21:35:00,
2013-06-20 17:36:00,84.1,64.0,30.10,South,178,1.0,3.0,51,0.00,,---,0.00,VWS V14.01,2013-06-20 21:36:00,
2013-06-20 17:37:00,84.0,64.5,30.10,South,185,0.0,3.0,52,0.00,,---,0.00,VWS V14.01,2013-06-20 21:37:00,
2013-06-20 17:38:00,84.0,66.6,30.10,SW,219,0.0,3.0,56,0.00,,---,0.00,VWS V14.01,2013-06-20 21:38:00,
2013-06-20 17:39:00,84.1,66.2,30.10,NW,308,1.0,3.0,55,0.00,,---,0.00,VWS V14.01,2013-06-20 21:39:00,
2013-06-20 17:40:00,84.0,66.1,30.10,WSW,237,0.0,3.0,55,0.00,,---,0.00,VWS V14.01,2013-06-20 21:40:00,
2013-06-20 17:41:00,84.0,65.6,30.10,WSW,238,0.0,3.0,54,0.00,,---,0.00,VWS V14.01,2013-06-20 21:41:00,
2013-06-20 17:42:00,83.9,65.5,30.11,SSW,210,2.0,3.0,54,0.00,,---,0.00,VWS V14.01,2013-06-20 21:42:00,
2013-06-20 17:43:00,83.9,63.8,30.10,SW,225,1.0,3.0,51,0.00,,---,0.00,VWS V14.01,2013-06-20 21:43:00,
2013-06-20 17:44:00,83.9,63.8,30.10,SSW,205,1.0,3.0,51,0.00,,---,0.00,VWS V14.01,2013-06-20 21:44:00,
2013-06-20 17:45:00,83.9,64.4,30.10,SSW,204,0.0,3.0,52,0.00,,---,0.00,VWS V14.01,2013-06-20 21:45:00,
2013-06-20 17:46:00,83.9,65.5,30.10,SSW,204,0.0,3.0,54,0.00,,---,0.00,VWS V14.01,2013-06-20 21:46:00,
2013-06-20 17:47:00,83.9,64.4,30.10,SSW,204,0.0,3.0,52,0.00,,---,0.00,VWS V14.01,2013-06-20 21:47:00,
2013-06-20 17:48:00,84.0,65.1,30.10,SSW,203,0.0,3.0,53,0.00,,---,0.00,VWS V14.01,2013-06-20 21:48:00,
2013-06-20 17:49:00,84.1,65.1,30.10,SE,140,0.0,3.0,53,0.00,,---,0.00,VWS V14.01,2013-06-20 21:49:00,
2013-06-20 17:50:00,84.1,65.1,30.10,SE,136,1.0,3.0,53,0.00,,---,0.00,VWS V14.01,2013-06-20 21:50:00,
2013-06-20 17:51:00,84.1,65.7,30.10,South,180,1.0,3.0,54,0.00,,---,0.00,VWS V14.01,2013-06-20 21:51:00,
2013-06-20 17:52:00,84.1,64.6,30.10,South,181,0.0,3.0,52,0.00,,---,0.00,VWS V14.01,2013-06-20 21:52:00,
2013-06-20 17:53:00,84.1,65.1,30.10,South,186,1.0,3.0,53,0.00,,---,0.00,VWS V14.01,2013-06-20 21:53:00,
2013-06-20 17:54:00,84.2,65.8,30.10,South,186,0.0,3.0,54,0.00,,---,0.00,VWS V14.01,2013-06-20 21:54:00,
2013-06-20 17:55:00,84.2,65.2,30.10,South,186,0.0,3.0,53,0.00,,---,0.00,VWS V14.01,2013-06-20 21:55:00,
2013-06-20 17:56:00,84.2,65.2,30.10,South,183,0.0,3.0,53,0.00,,---,0.00,VWS V14.01,2013-06-20 21:56:00,
2013-06-20 17:57:00,84.1,64.6,30.10,South,183,0.0,3.0,52,0.00,,---,0.00,VWS V14.01,2013-06-20 21:57:00,
2013-06-20 17:58:00,84.0,65.1,30.10,South,183,0.0,3.0,53,0.00,,---,0.00,VWS V14.01,2013-06-20 21:58:00,
2013-06-20 17:59:00,83.9,64.9,30.10,South,183,0.0,3.0,53,0.00,,---,0.00,VWS V14.01,2013-06-20 21:59:00,
2013-06-20 18:00:00,83.9,63.8,30.10,South,183,0.0,3.0,51,0.00,,---,0.00,VWS V14.01,2013-06-20 22:00:00,
2013-06-20 18:01:00,83.9,66.0,30.10,South,183,0.0,0.0,55,0.00,,---,0.00,VWS V14.01,2013-06-20 22:01:00,
2013-06-20 18:02:00,83.9,64.9,30.10,South,183,0.0,0.0,53,0.00,,---,0.00,VWS V14.01,2013-06-20 22:02:00,
2013-06-20 18:03:00,83.9,64.4,30.10,SSW,208,0.0,1.0,52,0.00,,---,0.00,VWS V14.01,2013-06-20 22:03:00,
2013-06-20 18:04:00,84.0,65.1,30.10,SSW,209,0.0,1.0,53,0.00,,---,0.00,VWS V14.01,2013-06-20 22:04:00,
2013-06-20 18:05:00,84.1,66.2,30.10,SSW,207,1.0,1.0,55,0.00,,---,0.00,VWS V14.01,2013-06-20 22:05:00,
2013-06-20 18:06:00,84.1,65.7,30.10,SSW,209,0.0,1.0,54,0.00,,---,0.00,VWS V14.01,2013-06-20 22:06:00,
2013-06-20 18:07:00,84.1,66.2,30.10,SSW,209,0.0,1.0,55,0.00,,---,0.00,VWS V14.01,2013-06-20 22:07:00,
2013-06-20 18:08:00,84.1,65.7,30.10,SSW,208,0.0,1.0,54,0.00,,---,0.00,VWS V14.01,2013-06-20 22:08:00,
2013-06-20 18:09:00,84.1,66.2,30.10,SW,229,1.0,1.0,55,0.00,,---,0.00,VWS V14.01,2013-06-20 22:09:00,
2013-06-20 18:10:00,84.0,65.6,30.10,South,176,1.0,2.0,54,0.00,,---,0.00,VWS V14.01,2013-06-20 22:10:00,
2013-06-20 18:11:00,84.0,66.1,30.10,South,176,0.0,2.0,55,0.00,,---,0.00,VWS V14.01,2013-06-20 22:11:00,
2013-06-20 18:12:00,83.9,66.5,30.10,SSE,149,0.0,2.0,56,0.00,,---,0.00,VWS V14.01,2013-06-20 22:12:00,
2013-06-20 18:13:00,83.8,67.0,30.10,SE,141,1.0,2.0,57,0.00,,---,0.00,VWS V14.01,2013-06-20 22:13:00,
2013-06-20 18:14:00,83.7,66.3,30.10,SSE,158,0.0,2.0,56,0.00,,---,0.00,VWS V14.01,2013-06-20 22:14:00,
2013-06-20 18:15:00,83.6,66.8,30.10,SSE,158,0.0,2.0,57,0.00,,---,0.00,VWS V14.01,2013-06-20 22:15:00,
2013-06-20 18:16:00,83.7,66.3,30.10,SSE,158,0.0,2.0,56,0.00,,---,0.00,VWS V14.01,2013-06-20 22:16:00,
2013-06-20 18:17:00,83.7,67.4,30.10,SSE,158,0.0,2.0,58,0.00,,---,0.00,VWS V14.01,2013-06-20 22:17:00,
2013-06-20 18:18:00,83.8,67.0,30.10,SSE,158,0.0,2.0,57,0.00,,---,0.00,VWS V14.01,2013-06-20 22:18:00,
2013-06-20 18:19:00,83.9,68.5,30.10,SSE,158,0.0,2.0,60,0.00,,---,0.00,VWS V14.01,2013-06-20 22:19:00,
2013-06-20 18:20:00,84.1,68.7,30.10,SSE,158,0.0,2.0,60,0.00,,---,0.00,VWS V14.01,2013-06-20 22:20:00,
2013-06-20 18:21:00,84.1,69.2,30.10,SSE,158,0.0,2.0,61,0.00,,---,0.00,VWS V14.01,2013-06-20 22:21:00,
2013-06-20 18:22:00,84.1,68.7,30.10,SSE,158,0.0,2.0,60,0.00,,---,0.00,VWS V14.01,2013-06-20 22:22:00,
2013-06-20 18:23:00,84.0,68.1,30.10,ENE,60,1.0,2.0,59,0.00,,---,0.00,VWS V14.01,2013-06-20 22:23:00,
2013-06-20 18:24:00,83.8,65.9,30.10,ENE,60,0.0,2.0,55,0.00,,---,0.00,VWS V14.01,2013-06-20 22:24:00,
2013-06-20 18:25:00,83.6,67.3,30.10,SSE,147,1.0,2.0,58,0.00,,---,0.00,VWS V14.01,2013-06-20 22:25:00,
2013-06-20 18:26:00,83.5,66.7,30.10,SSE,147,0.0,2.0,57,0.00,,---,0.00,VWS V14.01,2013-06-20 22:26:00,
2013-06-20 18:27:00,83.4,67.1,30.10,SE,146,0.0,2.0,58,0.00,,---,0.00,VWS V14.01,2013-06-20 22:27:00,
2013-06-20 18:28:00,83.2,65.9,30.10,SE,146,0.0,2.0,56,0.00,,---,0.00,VWS V14.01,2013-06-20 22:28:00,
2013-06-20 18:29:00,83.1,66.8,30.10,WSW,245,1.0,2.0,58,0.00,,---,0.00,VWS V14.01,2013-06-20 22:29:00,
2013-06-20 18:30:00,83.0,67.7,30.10,WSW,245,0.0,2.0,60,0.00,,---,0.00,VWS V14.01,2013-06-20 22:30:00,
2013-06-20 18:31:00,82.9,66.6,30.10,WSW,245,0.0,0.0,58,0.00,,---,0.00,VWS V14.01,2013-06-20 22:31:00,
2013-06-20 18:32:00,82.8,66.5,30.10,WSW,245,0.0,0.0,58,0.00,,---,0.00,VWS V14.01,2013-06-20 22:32:00,
2013-06-20 18:33:00,82.7,66.9,30.10,West,259,0.0,1.0,59,0.00,,---,0.00,VWS V14.01,2013-06-20 22:33:00,
2013-06-20 18:34:00,82.7,67.4,30.10,WSW,258,0.0,1.0,60,0.00,,---,0.00,VWS V14.01,2013-06-20 22:34:00,
2013-06-20 18:35:00,82.6,67.3,30.10,West,259,0.0,1.0,60,0.00,,---,0.00,VWS V14.01,2013-06-20 22:35:00,
2013-06-20 18:36:00,82.7,68.4,30.10,West,259,0.0,1.0,62,0.00,,---,0.00,VWS V14.01,2013-06-20 22:36:00,
2013-06-20 18:37:00,82.7,68.8,30.10,West,259,0.0,1.0,63,0.00,,---,0.00,VWS V14.01,2013-06-20 22:37:00,
2013-06-20 18:38:00,82.6,68.3,30.10,West,259,0.0,1.0,62,0.00,,---,0.00,VWS V14.01,2013-06-20 22:38:00,
2013-06-20 18:39:00,82.5,66.7,30.10,WSW,258,0.0,1.0,59,0.00,,---,0.00,VWS V14.01,2013-06-20 22:39:00,
2013-06-20 18:40:00,82.4,66.7,30.10,West,259,0.0,1.0,59,0.00,,---,0.00,VWS V14.01,2013-06-20 22:40:00,
2013-06-20 18:41:00,82.3,67.0,30.10,West,259,0.0,1.0,60,0.00,,---,0.00,VWS V14.01,2013-06-20 22:41:00,
2013-06-20 18:42:00,82.1,67.8,30.10,WSW,258,0.0,1.0,62,0.00,,---,0.00,VWS V14.01,2013-06-20 22:42:00,
2013-06-20 18:43:00,82.1,67.8,30.10,West,259,0.0,1.0,62,0.00,,---,0.00,VWS V14.01,2013-06-20 22:43:00,
2013-06-20 18:44:00,82.1,67.8,30.10,WSW,258,0.0,1.0,62,0.00,,---,0.00,VWS V14.01,2013-06-20 22:44:00,
2013-06-20 18:45:00,82.2,66.9,30.10,West,259,0.0,1.0,60,0.00,,---,0.00,VWS V14.01,2013-06-20 22:45:00,
2013-06-20 18:46:00,82.2,67.9,30.10,West,259,0.0,1.0,62,0.00,,---,0.00,VWS V14.01,2013-06-20 22:46:00,
2013-06-20 18:47:00,82.2,66.9,30.10,West,259,0.0,1.0,60,0.00,,---,0.00,VWS V14.01,2013-06-20 22:47:00,
2013-06-20 18:48:00,82.2,66.9,30.10,West,259,0.0,1.0,60,0.00,,---,0.00,VWS V14.01,2013-06-20 22:48:00,
2013-06-20 18:49:00,82.1,66.8,30.10,West,259,0.0,1.0,60,0.00,,---,0.00,VWS V14.01,2013-06-20 22:49:00,
2013-06-20 18:50:00,81.9,66.2,30.10,West,259,0.0,1.0,59,0.00,,---,0.00,VWS V14.01,2013-06-20 22:50:00,
2013-06-20 18:51:00,81.8,66.1,30.10,WSW,258,0.0,1.0,59,0.00,,---,0.00,VWS V14.01,2013-06-20 22:51:00,
2013-06-20 18:52:00,81.7,67.4,30.10,West,259,0.0,1.0,62,0.00,,---,0.00,VWS V14.01,2013-06-20 22:52:00,
2013-06-20 18:53:00,81.6,67.3,30.10,West,259,0.0,1.0,62,0.00,,---,0.00,VWS V14.01,2013-06-20 22:53:00,
2013-06-20 18:54:00,81.5,66.8,30.10,West,259,0.0,1.0,61,0.00,,---,0.00,VWS V14.01,2013-06-20 22:54:00,
2013-06-20 18:55:00,81.5,67.7,30.10,West,259,0.0,1.0,63,0.00,,---,0.00,VWS V14.01,2013-06-20 22:55:00,
2013-06-20 18:56:00,81.6,67.3,30.10,West,259,0.0,1.0,62,0.00,,---,0.00,VWS V14.01,2013-06-20 22:56:00,
2013-06-20 18:57:00,81.6,67.8,30.10,West,259,0.0,1.0,63,0.00,,---,0.00,VWS V14.01,2013-06-20 22:57:00,
2013-06-20 18:58:00,81.7,67.4,30.10,WSW,258,0.0,1.0,62,0.00,,---,0.00,VWS V14.01,2013-06-20 22:58:00,
2013-06-20 18:59:00,81.7,66.5,30.10,West,259,0.0,1.0,60,0.00,,---,0.00,VWS V14.01,2013-06-20 22:59:00,
2013-06-20 19:00:00,81.6,65.9,30.10,West,259,0.0,1.0,59,0.00,,---,0.00,VWS V14.01,2013-06-20 23:00:00,
2013-06-20 19:01:00,81.4,66.2,30.10,WSW,258,0.0,0.0,60,0.00,,---,0.00,VWS V14.01,2013-06-20 23:01:00,
2013-06-20 19:02:00,81.3,67.1,30.10,West,259,0.0,0.0,62,0.00,,---,0.00,VWS V14.01,2013-06-20 23:02:00,
2013-06-20 19:03:00,81.3,66.6,30.10,West,259,0.0,0.0,61,0.00,,---,0.00,VWS V14.01,2013-06-20 23:03:00,
2013-06-20 19:04:00,81.2,66.9,30.10,West,259,0.0,0.0,62,0.00,,---,0.00,VWS V14.01,2013-06-20 23:04:00,
2013-06-20 19:05:00,81.2,67.4,30.10,WSW,258,0.0,0.0,63,0.00,,---,0.00,VWS V14.01,2013-06-20 23:05:00,
2013-06-20 19:06:00,81.2,67.4,30.10,WSW,258,0.0,0.0,63,0.00,,---,0.00,VWS V14.01,2013-06-20 23:06:00,
2013-06-20 19:07:00,81.2,67.9,30.10,West,259,0.0,0.0,64,0.00,,---,0.00,VWS V14.01,2013-06-20 23:07:00,
2013-06-20 19:08:00,81.3,67.1,30.10,West,259,0.0,0.0,62,0.00,,---,0.00,VWS V14.01,2013-06-20 23:08:00,
2013-06-20 19:09:00,81.3,67.1,30.10,West,259,0.0,0.0,62,0.00,,---,0.00,VWS V14.01,2013-06-20 23:09:00,
2013-06-20 19:10:00,81.3,67.1,30.10,West,259,0.0,0.0,62,0.00,,---,0.00,VWS V14.01,2013-06-20 23:10:00,
2013-06-20 19:11:00,81.3,67.1,30.10,West,259,0.0,0.0,62,0.00,,---,0.00,VWS V14.01,2013-06-20 23:11:00,
2013-06-20 19:12:00,81.2,66.9,30.10,West,259,0.0,0.0,62,0.00,,---,0.00,VWS V14.01,2013-06-20 23:12:00,
2013-06-20 19:13:00,81.2,66.9,30.10,WSW,258,0.0,0.0,62,0.00,,---,0.00,VWS V14.01,2013-06-20 23:13:00,
2013-06-20 19:14:00,81.1,66.9,30.10,West,259,0.0,0.0,62,0.00,,---,0.00,VWS V14.01,2013-06-20 23:14:00,
2013-06-20 19:15:00,81.0,66.8,30.10,West,259,0.0,0.0,62,0.00,,---,0.00,VWS V14.01,2013-06-20 23:15:00,
2013-06-20 19:16:00,80.8,67.0,30.10,WSW,258,0.0,0.0,63,0.00,,---,0.00,VWS V14.01,2013-06-20 23:16:00,
2013-06-20 19:17:00,80.7,66.9,30.10,West,259,0.0,0.0,63,0.00,,---,0.00,VWS V14.01,2013-06-20 23:17:00,
2013-06-20 19:18:00,80.5,66.8,30.10,West,259,0.0,0.0,63,0.00,,---,0.00,VWS V14.01,2013-06-20 23:18:00,
2013-06-20 19:19:00,80.3,66.6,30.10,West,259,0.0,0.0,63,0.00,,---,0.00,VWS V14.01,2013-06-20 23:19:00,
2013-06-20 19:20:00,80.1,66.4,30.10,WSW,258,0.0,0.0,63,0.00,,---,0.00,VWS V14.01,2013-06-20 23:20:00,
2013-06-20 19:21:00,79.9,66.7,30.10,West,259,0.0,0.0,64,0.00,,---,0.00,VWS V14.01,2013-06-20 23:21:00,
2013-06-20 19:22:00,79.7,66.5,30.10,West,259,0.0,0.0,64,0.00,,---,0.00,VWS V14.01,2013-06-20 23:22:00,
2013-06-20 19:23:00,79.4,66.6,30.10,WSW,258,0.0,0.0,65,0.00,,---,0.00,VWS V14.01,2013-06-20 23:23:00,
2013-06-20 19:24:00,79.2,66.9,30.10,WSW,258,0.0,0.0,66,0.00,,---,0.00,VWS V14.01,2013-06-20 23:24:00,
2013-06-20 19:25:00,78.8,66.1,30.10,West,259,0.0,0.0,65,0.00,,---,0.00,VWS V14.01,2013-06-20 23:25:00,
2013-06-20 19:26:00,78.6,66.3,30.10,WSW,258,0.0,0.0,66,0.00,,---,0.00,VWS V14.01,2013-06-20 23:26:00,
2013-06-20 19:27:00,78.4,66.6,30.10,West,259,0.0,0.0,67,0.00,,---,0.00,VWS V14.01,2013-06-20 23:27:00,
2013-06-20 19:28:00,78.1,66.3,30.10,WSW,258,0.0,0.0,67,0.00,,---,0.00,VWS V14.01,2013-06-20 23:28:00,
2013-06-20 19:29:00,78.0,66.6,30.10,WSW,258,0.0,0.0,68,0.00,,---,0.00,VWS V14.01,2013-06-20 23:29:00,
2013-06-20 19:30:00,77.8,66.4,30.10,West,259,0.0,0.0,68,0.00,,---,0.00,VWS V14.01,2013-06-20 23:30:00,
2013-06-20 19:31:00,77.6,66.6,30.10,West,259,0.0,0.0,69,0.00,,---,0.00,VWS V14.01,2013-06-20 23:31:00,
2013-06-20 19:32:00,77.4,66.9,30.10,West,259,0.0,0.0,70,0.00,,---,0.00,VWS V14.01,2013-06-20 23:32:00,
2013-06-20 19:33:00,77.2,66.2,30.10,West,259,0.0,0.0,69,0.00,,---,0.00,VWS V14.01,2013-06-20 23:33:00,
2013-06-20 19:34:00,77.0,66.1,30.10,WSW,258,0.0,0.0,69,0.00,,---,0.00,VWS V14.01,2013-06-20 23:34:00,
2013-06-20 19:35:00,76.8,66.3,30.10,West,259,0.0,0.0,70,0.00,,---,0.00,VWS V14.01,2013-06-20 23:35:00,
2013-06-20 19:36:00,76.6,66.1,30.10,WSW,258,0.0,0.0,70,0.00,,---,0.00,VWS V14.01,2013-06-20 23:36:00,
2013-06-20 19:37:00,76.4,65.5,30.10,WSW,258,0.0,0.0,69,0.00,,---,0.00,VWS V14.01,2013-06-20 23:37:00,
2013-06-20 19:38:00,76.3,65.8,30.10,West,259,0.0,0.0,70,0.00,,---,0.00,VWS V14.01,2013-06-20 23:38:00,
2013-06-20 19:39:00,76.1,65.6,30.10,West,259,0.0,0.0,70,0.00,,---,0.00,VWS V14.01,2013-06-20 23:39:00,
2013-06-20 19:40:00,76.0,65.9,30.10,West,259,0.0,0.0,71,0.00,,---,0.00,VWS V14.01,2013-06-20 23:40:00,
2013-06-20 19:41:00,75.9,66.2,30.10,West,259,0.0,0.0,72,0.00,,---,0.00,VWS V14.01,2013-06-20 23:41:00,
2013-06-20 19:42:00,75.8,66.1,30.10,West,259,0.0,0.0,72,0.00,,---,0.00,VWS V14.01,2013-06-20 23:42:00,
2013-06-20 19:43:00,75.7,66.0,30.10,West,259,0.0,0.0,72,0.00,,---,0.00,VWS V14.01,2013-06-20 23:43:00,
2013-06-20 19:44:00,75.6,66.3,30.10,WSW,258,0.0,0.0,73,0.00,,---,0.00,VWS V14.01,2013-06-20 23:44:00,
2013-06-20 19:45:00,75.5,66.2,30.10,West,259,0.0,0.0,73,0.00,,---,0.00,VWS V14.01,2013-06-20 23:45:00,
2013-06-20 19:46:00,75.3,66.1,30.10,WSW,258,0.0,0.0,73,0.00,,---,0.00,VWS V14.01,2013-06-20 23:46:00,
2013-06-20 19:47:00,75.1,65.5,30.10,West,259,0.0,0.0,72,0.00,,---,0.00,VWS V14.01,2013-06-20 23:47:00,
2013-06-20 19:48:00,75.0,65.8,30.10,WSW,258,0.0,0.0,73,0.00,,---,0.00,VWS V14.01,2013-06-20 23:48:00,
2013-06-20 19:49:00,74.8,65.6,30.10,West,259,0.0,0.0,73,0.00,,---,0.00,VWS V14.01,2013-06-20 23:49:00,
2013-06-20 19:50:00,74.6,65.4,30.10,West,259,0.0,0.0,73,0.00,,---,0.00,VWS V14.01,2013-06-20 23:50:00,
2013-06-20 19:51:00,74.4,65.2,30.10,West,259,0.0,0.0,73,0.00,,---,0.00,VWS V14.01,2013-06-20 23:51:00,
2013-06-20 19:52:00,74.3,65.5,30.10,West,259,0.0,0.0,74,0.00,,---,0.00,VWS V14.01,2013-06-20 23:52:00,
2013-06-20 19:53:00,74.2,65.4,30.10,West,259,0.0,0.0,74,0.00,,---,0.00,VWS V14.01,2013-06-20 23:53:00,
2013-06-20 19:54:00,74.0,65.6,30.10,West,259,0.0,0.0,75,0.00,,---,0.00,VWS V14.01,2013-06-20 23:54:00,
2013-06-20 19:55:00,73.9,65.1,30.10,West,259,0.0,0.0,74,0.00,,---,0.00,VWS V14.01,2013-06-20 23:55:00,
2013-06-20 19:56:00,73.7,65.3,30.10,West,259,0.0,0.0,75,0.00,,---,0.00,VWS V14.01,2013-06-20 23:56:00,
2013-06-20 19:57:00,73.6,65.2,30.10,West,259,0.0,0.0,75,0.00,,---,0.00,VWS V14.01,2013-06-20 23:57:00,
2013-06-20 19:58:00,73.4,65.0,30.10,West,259,0.0,0.0,75,0.00,,---,0.00,VWS V14.01,2013-06-20 23:58:00,
2013-06-20 19:59:00,73.3,65.3,30.10,West,259,0.0,0.0,76,0.00,,---,0.00,VWS V14.01,2013-06-20 23:59:00,
2013-06-20 20:00:00,73.2,65.2,30.10,West,259,0.0,0.0,76,0.00,,---,0.00,VWS V14.01,2013-06-21 00:00:00,
2013-06-20 20:01:00,73.1,65.1,30.10,WSW,258,0.0,0.0,76,0.00,,---,0.00,VWS V14.01,2013-06-21 00:01:00,
2013-06-20 20:02:00,72.9,65.3,30.10,West,259,0.0,0.0,77,0.00,,---,0.00,VWS V14.01,2013-06-21 00:02:00,
2013-06-20 20:03:00,72.8,65.2,30.10,West,259,0.0,0.0,77,0.00,,---,0.00,VWS V14.01,2013-06-21 00:03:00,
2013-06-20 20:04:00,72.7,65.1,30.10,WSW,258,0.0,0.0,77,0.00,,---,0.00,VWS V14.01,2013-06-21 00:04:00,
2013-06-20 20:05:00,72.5,64.9,30.10,WSW,258,0.0,0.0,77,0.00,,---,0.00,VWS V14.01,2013-06-21 00:05:00,
2013-06-20 20:06:00,72.4,65.2,30.10,West,259,0.0,0.0,78,0.00,,---,0.00,VWS V14.01,2013-06-21 00:06:00,
2013-06-20 20:07:00,72.3,65.1,30.10,WSW,258,0.0,0.0,78,0.00,,---,0.00,VWS V14.01,2013-06-21 00:07:00,
2013-06-20 20:08:00,72.2,65.0,30.10,West,259,0.0,0.0,78,0.00,,---,0.00,VWS V14.01,2013-06-21 00:08:00,
2013-06-20 20:09:00,72.0,64.8,30.10,West,259,0.0,0.0,78,0.00,,---,0.00,VWS V14.01,2013-06-21 00:09:00,
2013-06-20 20:10:00,71.9,65.0,30.10,West,259,0.0,0.0,79,0.00,,---,0.00,VWS V14.01,2013-06-21 00:10:00,
2013-06-20 20:11:00,71.7,64.8,30.10,West,259,0.0,0.0,79,0.00,,---,0.00,VWS V14.01,2013-06-21 00:11:00,
2013-06-20 20:12:00,71.6,64.8,30.10,West,259,0.0,0.0,79,0.00,,---,0.00,VWS V14.01,2013-06-21 00:12:00,
2013-06-20 20:13:00,71.5,64.7,30.10,West,259,0.0,0.0,79,0.00,,---,0.00,VWS V14.01,2013-06-21 00:13:00,
2013-06-20 20:14:00,71.4,64.6,30.10,West,259,0.0,0.0,79,0.00,,---,0.00,VWS V14.01,2013-06-21 00:14:00,
2013-06-20 20:15:00,71.2,64.7,30.10,West,259,0.0,0.0,80,0.00,,---,0.00,VWS V14.01,2013-06-21 00:15:00,
2013-06-20 20:16:00,71.2,64.7,30.10,West,259,0.0,0.0,80,0.00,,---,0.00,VWS V14.01,2013-06-21 00:16:00,
2013-06-20 20:17:00,71.1,64.6,30.10,West,259,0.0,0.0,80,0.00,,---,0.00,VWS V14.01,2013-06-21 00:17:00,
2013-06-20 20:18:00,71.0,64.5,30.11,West,259,0.0,0.0,80,0.00,,---,0.00,VWS V14.01,2013-06-21 00:18:00,
2013-06-20 20:19:00,70.9,64.4,30.11,WSW,258,0.0,0.0,80,0.00,,---,0.00,VWS V14.01,2013-06-21 00:19:00,
2013-06-20 20:20:00,70.7,64.6,30.11,West,259,0.0,0.0,81,0.00,,---,0.00,VWS V14.01,2013-06-21 00:20:00,
2013-06-20 20:21:00,70.7,64.6,30.10,West,259,0.0,0.0,81,0.00,,---,0.00,VWS V14.01,2013-06-21 00:21:00,
2013-06-20 20:22:00,70.5,64.4,30.11,West,259,0.0,0.0,81,0.00,,---,0.00,VWS V14.01,2013-06-21 00:22:00,
2013-06-20 20:23:00,70.5,64.4,30.11,West,259,0.0,0.0,81,0.00,,---,0.00,VWS V14.01,2013-06-21 00:23:00,
2013-06-20 20:24:00,70.3,64.2,30.11,West,259,0.0,0.0,81,0.00,,---,0.00,VWS V14.01,2013-06-21 00:24:00,
2013-06-20 20:25:00,70.2,64.1,30.11,West,259,0.0,0.0,81,0.00,,---,0.00,VWS V14.01,2013-06-21 00:25:00,
2013-06-20 20:26:00,70.1,64.0,30.11,West,259,0.0,0.0,81,0.00,,---,0.00,VWS V14.01,2013-06-21 00:26:00,
2013-06-20 20:27:00,70.1,64.4,30.11,West,259,0.0,0.0,82,0.00,,---,0.00,VWS V14.01,2013-06-21 00:27:00,
2013-06-20 20:28:00,70.0,64.3,30.11,West,259,0.0,0.0,82,0.00,,---,0.00,VWS V14.01,2013-06-21 00:28:00,
2013-06-20 20:29:00,69.9,64.2,30.11,WSW,258,0.0,0.0,82,0.00,,---,0.00,VWS V14.01,2013-06-21 00:29:00,
2013-06-20 20:30:00,69.8,64.1,30.11,West,259,0.0,0.0,82,0.00,,---,0.00,VWS V14.01,2013-06-21 00:30:00,
2013-06-20 20:31:00,69.7,64.3,30.11,West,259,0.0,0.0,83,0.00,,---,0.00,VWS V14.01,2013-06-21 00:31:00,
2013-06-20 20:32:00,69.6,64.2,30.11,West,259,0.0,0.0,83,0.00,,---,0.00,VWS V14.01,2013-06-21 00:32:00,
2013-06-20 20:33:00,69.6,64.2,30.11,West,259,0.0,0.0,83,0.00,,---,0.00,VWS V14.01,2013-06-21 00:33:00,
2013-06-20 20:34:00,69.5,64.1,30.11,West,259,0.0,0.0,83,0.00,,---,0.00,VWS V14.01,2013-06-21 00:34:00,
2013-06-20 20:35:00,69.4,64.4,30.11,West,259,0.0,0.0,84,0.00,,---,0.00,VWS V14.01,2013-06-21 00:35:00,
2013-06-20 20:36:00,69.4,64.4,30.11,WSW,258,0.0,0.0,84,0.00,,---,0.00,VWS V14.01,2013-06-21 00:36:00,
2013-06-20 20:37:00,69.3,64.3,30.11,West,259,0.0,0.0,84,0.00,,---,0.00,VWS V14.01,2013-06-21 00:37:00,
2013-06-20 20:38:00,69.3,64.3,30.11,West,259,0.0,0.0,84,0.00,,---,0.00,VWS V14.01,2013-06-21 00:38:00,
2013-06-20 20:39:00,69.2,64.2,30.11,West,259,0.0,0.0,84,0.00,,---,0.00,VWS V14.01,2013-06-21 00:39:00,
2013-06-20 20:40:00,69.2,64.2,30.11,West,259,0.0,0.0,84,0.00,,---,0.00,VWS V14.01,2013-06-21 00:40:00,
2013-06-20 20:41:00,69.1,64.1,30.11,West,259,0.0,0.0,84,0.00,,---,0.00,VWS V14.01,2013-06-21 00:41:00,
2013-06-20 20:42:00,69.1,64.4,30.11,West,259,0.0,0.0,85,0.00,,---,0.00,VWS V14.01,2013-06-21 00:42:00,
2013-06-20 20:43:00,69.1,64.4,30.11,West,259,0.0,0.0,85,0.00,,---,0.00,VWS V14.01,2013-06-21 00:43:00,
2013-06-20 20:44:00,69.1,64.4,30.11,West,259,0.0,0.0,85,0.00,,---,0.00,VWS V14.01,2013-06-21 00:44:00,
2013-06-20 20:45:00,69.1,64.4,30.11,West,259,0.0,0.0,85,0.00,,---,0.00,VWS V14.01,2013-06-21 00:45:00,
2013-06-20 20:46:00,69.1,64.4,30.11,West,259,0.0,0.0,85,0.00,,---,0.00,VWS V14.01,2013-06-21 00:46:00,
2013-06-20 20:47:00,69.1,64.4,30.11,West,259,0.0,0.0,85,0.00,,---,0.00,VWS V14.01,2013-06-21 00:47:00,
2013-06-20 20:48:00,69.1,64.4,30.11,West,259,0.0,0.0,85,0.00,,---,0.00,VWS V14.01,2013-06-21 00:48:00,
2013-06-20 20:49:00,69.0,64.3,30.11,West,259,0.0,0.0,85,0.00,,---,0.00,VWS V14.01,2013-06-21 00:49:00,
2013-06-20 20:50:00,69.0,64.3,30.11,WSW,258,0.0,0.0,85,0.00,,---,0.00,VWS V14.01,2013-06-21 00:50:00,
2013-06-20 20:51:00,68.9,64.2,30.11,West,259,0.0,0.0,85,0.00,,---,0.00,VWS V14.01,2013-06-21 00:51:00,
2013-06-20 20:52:00,68.9,64.2,30.11,West,259,0.0,0.0,85,0.00,,---,0.00,VWS V14.01,2013-06-21 00:52:00,
2013-06-20 20:53:00,68.8,64.1,30.11,West,259,0.0,0.0,85,0.00,,---,0.00,VWS V14.01,2013-06-21 00:53:00,
2013-06-20 20:54:00,68.8,64.1,30.11,West,259,0.0,0.0,85,0.00,,---,0.00,VWS V14.01,2013-06-21 00:54:00,
2013-06-20 20:55:00,68.7,64.0,30.11,West,259,0.0,0.0,85,0.00,,---,0.00,VWS V14.01,2013-06-21 00:55:00,
2013-06-20 20:56:00,68.6,64.2,30.11,West,259,0.0,0.0,86,0.00,,---,0.00,VWS V14.01,2013-06-21 00:56:00,
2013-06-20 20:57:00,68.6,64.2,30.11,West,259,0.0,0.0,86,0.00,,---,0.00,VWS V14.01,2013-06-21 00:57:00,
2013-06-20 20:58:00,68.6,64.2,30.11,West,259,0.0,0.0,86,0.00,,---,0.00,VWS V14.01,2013-06-21 00:58:00,
2013-06-20 20:59:00,68.5,64.2,30.11,WSW,258,0.0,0.0,86,0.00,,---,0.00,VWS V14.01,2013-06-21 00:59:00,
2013-06-20 21:00:00,68.5,64.2,30.11,West,259,0.0,0.0,86,0.00,,---,0.00,VWS V14.01,2013-06-21 01:00:00,
2013-06-20 21:01:00,68.4,64.1,30.11,West,259,0.0,0.0,86,0.00,,---,0.00,VWS V14.01,2013-06-21 01:01:00,
2013-06-20 21:02:00,68.4,64.4,30.11,West,259,0.0,0.0,87,0.00,,---,0.00,VWS V14.01,2013-06-21 01:02:00,
2013-06-20 21:03:00,68.3,64.3,30.11,West,259,0.0,0.0,87,0.00,,---,0.00,VWS V14.01,2013-06-21 01:03:00,
2013-06-20 21:04:00,68.2,64.2,30.11,West,259,0.0,0.0,87,0.00,,---,0.00,VWS V14.01,2013-06-21 01:04:00,
2013-06-20 21:05:00,68.2,64.2,30.11,West,259,0.0,0.0,87,0.00,,---,0.00,VWS V14.01,2013-06-21 01:05:00,
2013-06-20 21:06:00,68.1,64.1,30.12,West,259,0.0,0.0,87,0.00,,---,0.00,VWS V14.01,2013-06-21 01:06:00,
2013-06-20 21:07:00,68.1,64.1,30.12,West,259,0.0,0.0,87,0.00,,---,0.00,VWS V14.01,2013-06-21 01:07:00,
2013-06-20 21:08:00,68.0,64.3,30.12,West,259,0.0,0.0,88,0.00,,---,0.00,VWS V14.01,2013-06-21 01:08:00,
2013-06-20 21:09:00,68.0,64.3,30.12,West,259,0.0,0.0,88,0.00,,---,0.00,VWS V14.01,2013-06-21 01:09:00,
2013-06-20 21:10:00,67.9,64.2,30.12,West,259,0.0,0.0,88,0.00,,---,0.00,VWS V14.01,2013-06-21 01:10:00,
2013-06-20 21:11:00,67.9,64.2,30.12,West,259,0.0,0.0,88,0.00,,---,0.00,VWS V14.01,2013-06-21 01:11:00,
2013-06-20 21:12:00,67.8,64.1,30.12,West,259,0.0,0.0,88,0.00,,---,0.00,VWS V14.01,2013-06-21 01:12:00,
2013-06-20 21:13:00,67.8,64.4,30.12,WSW,258,0.0,0.0,89,0.00,,---,0.00,VWS V14.01,2013-06-21 01:13:00,
2013-06-20 21:14:00,67.8,64.4,30.12,West,259,0.0,0.0,89,0.00,,---,0.00,VWS V14.01,2013-06-21 01:14:00,
2013-06-20 21:15:00,67.7,64.3,30.12,West,259,0.0,0.0,89,0.00,,---,0.00,VWS V14.01,2013-06-21 01:15:00,
2013-06-20 21:16:00,67.7,64.3,30.12,West,259,0.0,0.0,89,0.00,,---,0.00,VWS V14.01,2013-06-21 01:16:00,
2013-06-20 21:17:00,67.7,64.3,30.12,West,259,0.0,0.0,89,0.00,,---,0.00,VWS V14.01,2013-06-21 01:17:00,
2013-06-20 21:18:00,67.7,64.3,30.12,West,259,0.0,0.0,89,0.00,,---,0.00,VWS V14.01,2013-06-21 01:18:00,
2013-06-20 21:19:00,67.6,64.2,30.12,West,259,0.0,0.0,89,0.00,,---,0.00,VWS V14.01,2013-06-21 01:19:00,
2013-06-20 21:20:00,67.6,64.2,30.12,West,259,0.0,0.0,89,0.00,,---,0.00,VWS V14.01,2013-06-21 01:20:00,
2013-06-20 21:21:00,67.6,64.2,30.12,WSW,258,0.0,0.0,89,0.00,,---,0.00,VWS V14.01,2013-06-21 01:21:00,
2013-06-20 21:22:00,67.5,64.2,30.12,West,259,0.0,0.0,89,0.00,,---,0.00,VWS V14.01,2013-06-21 01:22:00,
2013-06-20 21:23:00,67.4,64.1,30.12,West,259,0.0,0.0,89,0.00,,---,0.00,VWS V14.01,2013-06-21 01:23:00,
2013-06-20 21:24:00,67.4,64.1,30.12,West,259,0.0,0.0,89,0.00,,---,0.00,VWS V14.01,2013-06-21 01:24:00,
2013-06-20 21:25:00,67.3,64.0,30.12,West,259,0.0,0.0,89,0.00,,---,0.00,VWS V14.01,2013-06-21 01:25:00,
2013-06-20 21:26:00,67.3,64.0,30.12,West,259,0.0,0.0,89,0.00,,---,0.00,VWS V14.01,2013-06-21 01:26:00,
2013-06-20 21:27:00,67.3,64.3,30.12,West,259,0.0,0.0,90,0.00,,---,0.00,VWS V14.01,2013-06-21 01:27:00,
2013-06-20 21:28:00,67.2,64.2,30.12,West,259,0.0,0.0,90,0.00,,---,0.00,VWS V14.01,2013-06-21 01:28:00,
2013-06-20 21:29:00,67.2,64.2,30.12,West,259,0.0,0.0,90,0.00,,---,0.00,VWS V14.01,2013-06-21 01:29:00,
2013-06-20 21:30:00,67.2,64.2,30.12,WSW,258,0.0,0.0,90,0.00,,---,0.00,VWS V14.01,2013-06-21 01:30:00,
2013-06-20 21:31:00,67.3,64.3,30.12,West,259,0.0,0.0,90,0.00,,---,0.00,VWS V14.01,2013-06-21 01:31:00,
2013-06-20 21:32:00,67.3,64.3,30.12,West,259,0.0,0.0,90,0.00,,---,0.00,VWS V14.01,2013-06-21 01:32:00,
2013-06-20 21:33:00,67.4,64.4,30.12,WSW,258,0.0,0.0,90,0.00,,---,0.00,VWS V14.01,2013-06-21 01:33:00,
2013-06-20 21:34:00,67.4,64.4,30.12,West,259,0.0,0.0,90,0.00,,---,0.00,VWS V14.01,2013-06-21 01:34:00,
2013-06-20 21:35:00,67.4,64.4,30.12,West,259,0.0,0.0,90,0.00,,---,0.00,VWS V14.01,2013-06-21 01:35:00,
2013-06-20 21:36:00,67.5,64.5,30.12,West,259,0.0,0.0,90,0.00,,---,0.00,VWS V14.01,2013-06-21 01:36:00,
2013-06-20 21:37:00,67.5,64.5,30.12,West,259,0.0,0.0,90,0.00,,---,0.00,VWS V14.01,2013-06-21 01:37:00,
2013-06-20 21:38:00,67.5,64.5,30.12,WSW,258,0.0,0.0,90,0.00,,---,0.00,VWS V14.01,2013-06-21 01:38:00,
2013-06-20 21:39:00,67.5,64.5,30.12,WSW,258,0.0,0.0,90,0.00,,---,0.00,VWS V14.01,2013-06-21 01:39:00,
2013-06-20 21:40:00,67.6,64.6,30.12,West,259,0.0,0.0,90,0.00,,---,0.00,VWS V14.01,2013-06-21 01:40:00,
2013-06-20 21:41:00,67.6,64.6,30.12,West,259,0.0,0.0,90,0.00,,---,0.00,VWS V14.01,2013-06-21 01:41:00,
2013-06-20 21:42:00,67.6,64.6,30.13,West,259,0.0,0.0,90,0.00,,---,0.00,VWS V14.01,2013-06-21 01:42:00,
2013-06-20 21:43:00,67.7,64.7,30.13,West,259,0.0,0.0,90,0.00,,---,0.00,VWS V14.01,2013-06-21 01:43:00,
2013-06-20 21:44:00,67.7,64.7,30.13,West,259,0.0,0.0,90,0.00,,---,0.00,VWS V14.01,2013-06-21 01:44:00,
2013-06-20 21:45:00,67.7,64.7,30.13,West,259,0.0,0.0,90,0.00,,---,0.00,VWS V14.01,2013-06-21 01:45:00,
2013-06-20 21:46:00,67.7,64.7,30.13,WSW,258,0.0,0.0,90,0.00,,---,0.00,VWS V14.01,2013-06-21 01:46:00,
2013-06-20 21:47:00,67.7,64.7,30.13,WSW,258,0.0,0.0,90,0.00,,---,0.00,VWS V14.01,2013-06-21 01:47:00,
2013-06-20 21:48:00,67.6,64.6,30.13,West,259,0.0,0.0,90,0.00,,---,0.00,VWS V14.01,2013-06-21 01:48:00,
2013-06-20 21:49:00,67.6,64.6,30.13,WSW,258,0.0,0.0,90,0.00,,---,0.00,VWS V14.01,2013-06-21 01:49:00,
2013-06-20 21:50:00,67.6,64.6,30.13,West,259,0.0,0.0,90,0.00,,---,0.00,VWS V14.01,2013-06-21 01:50:00,
2013-06-20 21:51:00,67.5,64.5,30.12,West,259,0.0,0.0,90,0.00,,---,0.00,VWS V14.01,2013-06-21 01:51:00,
2013-06-20 21:52:00,67.5,64.5,30.13,WSW,258,0.0,0.0,90,0.00,,---,0.00,VWS V14.01,2013-06-21 01:52:00,
2013-06-20 21:53:00,67.5,64.5,30.13,West,259,0.0,0.0,90,0.00,,---,0.00,VWS V14.01,2013-06-21 01:53:00,
2013-06-20 21:54:00,67.5,64.5,30.13,West,259,0.0,0.0,90,0.00,,---,0.00,VWS V14.01,2013-06-21 01:54:00,
2013-06-20 21:55:00,67.4,64.4,30.13,West,259,0.0,0.0,90,0.00,,---,0.00,VWS V14.01,2013-06-21 01:55:00,
2013-06-20 21:56:00,67.3,64.3,30.13,West,259,0.0,0.0,90,0.00,,---,0.00,VWS V14.01,2013-06-21 01:56:00,
2013-06-20 21:57:00,67.4,64.7,30.13,West,259,0.0,0.0,91,0.00,,---,0.00,VWS V14.01,2013-06-21 01:57:00,
2013-06-20 21:58:00,67.4,64.7,30.13,West,259,0.0,0.0,91,0.00,,---,0.00,VWS V14.01,2013-06-21 01:58:00,
2013-06-20 21:59:00,67.5,64.8,30.13,West,259,0.0,0.0,91,0.00,,---,0.00,VWS V14.01,2013-06-21 01:59:00,
2013-06-20 22:00:00,67.5,64.8,30.13,West,259,0.0,0.0,91,0.00,,---,0.00,VWS V14.01,2013-06-21 02:00:00,
2013-06-20 22:01:00,67.5,64.8,30.13,West,259,0.0,0.0,91,0.00,,---,0.00,VWS V14.01,2013-06-21 02:01:00,
2013-06-20 22:02:00,67.6,64.9,30.13,West,259,0.0,0.0,91,0.00,,---,0.00,VWS V14.01,2013-06-21 02:02:00,
2013-06-20 22:03:00,67.6,64.9,30.13,West,259,0.0,0.0,91,0.00,,---,0.00,VWS V14.01,2013-06-21 02:03:00,
2013-06-20 22:04:00,67.6,64.9,30.13,West,259,0.0,0.0,91,0.00,,---,0.00,VWS V14.01,2013-06-21 02:04:00,
2013-06-20 22:05:00,67.7,65.0,30.13,West,259,0.0,0.0,91,0.00,,---,0.00,VWS V14.01,2013-06-21 02:05:00,
2013-06-20 22:06:00,67.7,65.0,30.13,West,259,0.0,0.0,91,0.00,,---,0.00,VWS V14.01,2013-06-21 02:06:00,
2013-06-20 22:07:00,67.8,64.8,30.13,West,259,0.0,0.0,90,0.00,,---,0.00,VWS V14.01,2013-06-21 02:07:00,
2013-06-20 22:08:00,67.8,64.8,30.13,WSW,258,0.0,0.0,90,0.00,,---,0.00,VWS V14.01,2013-06-21 02:08:00,
2013-06-20 22:09:00,67.8,64.8,30.13,WSW,258,0.0,0.0,90,0.00,,---,0.00,VWS V14.01,2013-06-21 02:09:00,
2013-06-20 22:10:00,67.8,64.8,30.13,West,259,0.0,0.0,90,0.00,,---,0.00,VWS V14.01,2013-06-21 02:10:00,
2013-06-20 22:11:00,67.8,64.8,30.13,West,259,0.0,0.0,90,0.00,,---,0.00,VWS V14.01,2013-06-21 02:11:00,
2013-06-20 22:12:00,67.8,64.8,30.13,West,259,0.0,0.0,90,0.00,,---,0.00,VWS V14.01,2013-06-21 02:12:00,
2013-06-20 22:13:00,67.7,64.7,30.13,West,259,0.0,0.0,90,0.00,,---,0.00,VWS V14.01,2013-06-21 02:13:00,
2013-06-20 22:14:00,67.7,64.7,30.13,West,259,0.0,0.0,90,0.00,,---,0.00,VWS V14.01,2013-06-21 02:14:00,
2013-06-20 22:15:00,67.7,64.7,30.13,West,259,0.0,0.0,90,0.00,,---,0.00,VWS V14.01,2013-06-21 02:15:00,
2013-06-20 22:16:00,67.7,64.7,30.13,West,259,0.0,0.0,90,0.00,,---,0.00,VWS V14.01,2013-06-21 02:16:00,
2013-06-20 22:17:00,67.6,64.6,30.13,West,259,0.0,0.0,90,0.00,,---,0.00,VWS V14.01,2013-06-21 02:17:00,
2013-06-20 22:18:00,67.6,64.6,30.13,West,259,0.0,0.0,90,0.00,,---,0.00,VWS V14.01,2013-06-21 02:18:00,
2013-06-20 22:19:00,67.6,64.6,30.13,West,259,0.0,0.0,90,0.00,,---,0.00,VWS V14.01,2013-06-21 02:19:00,
2013-06-20 22:20:00,67.6,64.9,30.13,West,259,0.0,0.0,91,0.00,,---,0.00,VWS V14.01,2013-06-21 02:20:00,
2013-06-20 22:21:00,67.6,64.9,30.13,West,259,0.0,0.0,91,0.00,,---,0.00,VWS V14.01,2013-06-21 02:21:00,
2013-06-20 22:22:00,67.7,65.0,30.13,West,259,0.0,0.0,91,0.00,,---,0.00,VWS V14.01,2013-06-21 02:22:00,
2013-06-20 22:23:00,67.8,65.1,30.13,West,259,0.0,0.0,91,0.00,,---,0.00,VWS V14.01,2013-06-21 02:23:00,
2013-06-20 22:24:00,67.8,65.1,30.13,West,259,0.0,0.0,91,0.00,,---,0.00,VWS V14.01,2013-06-21 02:24:00,
2013-06-20 22:25:00,67.9,65.2,30.13,West,259,0.0,0.0,91,0.00,,---,0.00,VWS V14.01,2013-06-21 02:25:00,
2013-06-20 22:26:00,67.9,65.2,30.13,West,259,0.0,0.0,91,0.00,,---,0.00,VWS V14.01,2013-06-21 02:26:00,
2013-06-20 22:27:00,67.9,65.2,30.13,West,259,0.0,0.0,91,0.00,,---,0.00,VWS V14.01,2013-06-21 02:27:00,
2013-06-20 22:28:00,67.9,65.2,30.13,West,259,0.0,0.0,91,0.00,,---,0.00,VWS V14.01,2013-06-21 02:28:00,
2013-06-20 22:29:00,67.9,64.9,30.13,West,259,0.0,0.0,90,0.00,,---,0.00,VWS V14.01,2013-06-21 02:29:00,
2013-06-20 22:30:00,67.8,64.8,30.13,West,259,0.0,0.0,90,0.00,,---,0.00,VWS V14.01,2013-06-21 02:30:00,
2013-06-20 22:31:00,67.8,65.1,30.13,West,259,0.0,0.0,91,0.00,,---,0.00,VWS V14.01,2013-06-21 02:31:00,
2013-06-20 22:32:00,67.8,65.1,30.13,West,259,0.0,0.0,91,0.00,,---,0.00,VWS V14.01,2013-06-21 02:32:00,
2013-06-20 22:33:00,67.9,65.2,30.13,West,259,0.0,0.0,91,0.00,,---,0.00,VWS V14.01,2013-06-21 02:33:00,
2013-06-20 22:34:00,67.9,65.2,30.13,West,259,0.0,0.0,91,0.00,,---,0.00,VWS V14.01,2013-06-21 02:34:00,
2013-06-20 22:35:00,67.9,65.2,30.13,West,259,0.0,0.0,91,0.00,,---,0.00,VWS V14.01,2013-06-21 02:35:00,
2013-06-20 22:36:00,67.9,65.2,30.13,West,259,0.0,0.0,91,0.00,,---,0.00,VWS V14.01,2013-06-21 02:36:00,
2013-06-20 22:37:00,67.9,64.9,30.13,West,259,0.0,0.0,90,0.00,,---,0.00,VWS V14.01,2013-06-21 02:37:00,
2013-06-20 22:38:00,67.9,64.9,30.13,West,259,0.0,0.0,90,0.00,,---,0.00,VWS V14.01,2013-06-21 02:38:00,
2013-06-20 22:39:00,67.9,65.2,30.13,WSW,258,0.0,0.0,91,0.00,,---,0.00,VWS V14.01,2013-06-21 02:39:00,
2013-06-20 22:40:00,67.9,65.2,30.13,West,259,0.0,0.0,91,0.00,,---,0.00,VWS V14.01,2013-06-21 02:40:00,
2013-06-20 22:41:00,67.9,65.2,30.13,West,259,0.0,0.0,91,0.00,,---,0.00,VWS V14.01,2013-06-21 02:41:00,
2013-06-20 22:42:00,67.9,65.2,30.13,West,259,0.0,0.0,91,0.00,,---,0.00,VWS V14.01,2013-06-21 02:42:00,
2013-06-20 22:43:00,68.0,65.3,30.13,West,259,0.0,0.0,91,0.00,,---,0.00,VWS V14.01,2013-06-21 02:43:00,
2013-06-20 22:44:00,68.0,65.3,30.13,West,259,0.0,0.0,91,0.00,,---,0.00,VWS V14.01,2013-06-21 02:44:00,
2013-06-20 22:45:00,68.0,65.3,30.13,West,259,0.0,0.0,91,0.00,,---,0.00,VWS V14.01,2013-06-21 02:45:00,
2013-06-20 22:46:00,68.1,65.4,30.13,West,259,0.0,0.0,91,0.00,,---,0.00,VWS V14.01,2013-06-21 02:46:00,
2013-06-20 22:47:00,68.1,65.4,30.13,WSW,257,0.0,0.0,91,0.00,,---,0.00,VWS V14.01,2013-06-21 02:47:00,
2013-06-20 22:48:00,68.1,65.4,30.13,WSW,257,0.0,0.0,91,0.00,,---,0.00,VWS V14.01,2013-06-21 02:48:00,
2013-06-20 22:49:00,68.1,65.4,30.13,WSW,257,0.0,0.0,91,0.00,,---,0.00,VWS V14.01,2013-06-21 02:49:00,
2013-06-20 22:50:00,68.1,65.4,30.13,WSW,257,0.0,0.0,91,0.00,,---,0.00,VWS V14.01,2013-06-21 02:50:00,
2013-06-20 22:51:00,68.1,65.1,30.13,WSW,257,0.0,0.0,90,0.00,,---,0.00,VWS V14.01,2013-06-21 02:51:00,
2013-06-20 22:52:00,68.1,65.4,30.13,WSW,257,0.0,0.0,91,0.00,,---,0.00,VWS V14.01,2013-06-21 02:52:00,
2013-06-20 22:53:00,68.1,65.4,30.13,WSW,257,0.0,0.0,91,0.00,,---,0.00,VWS V14.01,2013-06-21 02:53:00,
2013-06-20 22:54:00,68.1,65.4,30.13,WSW,257,0.0,0.0,91,0.00,,---,0.00,VWS V14.01,2013-06-21 02:54:00,
2013-06-20 22:55:00,68.1,65.4,30.13,WSW,257,0.0,0.0,91,0.00,,---,0.00,VWS V14.01,2013-06-21 02:55:00,
2013-06-20 22:56:00,68.1,65.1,30.13,WSW,257,0.0,0.0,90,0.00,,---,0.00,VWS V14.01,2013-06-21 02:56:00,
2013-06-20 22:57:00,68.1,65.1,30.13,WSW,257,0.0,0.0,90,0.00,,---,0.00,VWS V14.01,2013-06-21 02:57:00,
2013-06-20 22:58:00,68.0,65.0,30.14,WSW,257,0.0,0.0,90,0.00,,---,0.00,VWS V14.01,2013-06-21 02:58:00,
2013-06-20 22:59:00,68.0,65.0,30.14,WSW,257,0.0,0.0,90,0.00,,---,0.00,VWS V14.01,2013-06-21 02:59:00,
2013-06-20 23:00:00,68.0,65.0,30.14,WSW,257,0.0,0.0,90,0.00,,---,0.00,VWS V14.01,2013-06-21 03:00:00,
2013-06-20 23:01:00,68.0,65.0,30.14,WSW,257,0.0,0.0,90,0.00,,---,0.00,VWS V14.01,2013-06-21 03:01:00,
2013-06-20 23:02:00,68.0,65.0,30.14,WSW,257,0.0,0.0,90,0.00,,---,0.00,VWS V14.01,2013-06-21 03:02:00,
2013-06-20 23:03:00,67.9,64.9,30.14,WSW,257,0.0,0.0,90,0.00,,---,0.00,VWS V14.01,2013-06-21 03:03:00,
2013-06-20 23:04:00,67.9,65.2,30.14,WSW,257,0.0,0.0,91,0.00,,---,0.00,VWS V14.01,2013-06-21 03:04:00,
2013-06-20 23:05:00,67.9,64.9,30.14,WSW,257,0.0,0.0,90,0.00,,---,0.00,VWS V14.01,2013-06-21 03:05:00,
2013-06-20 23:06:00,67.9,64.9,30.14,WSW,257,0.0,0.0,90,0.00,,---,0.00,VWS V14.01,2013-06-21 03:06:00,
2013-06-20 23:07:00,67.9,64.9,30.14,WSW,257,0.0,0.0,90,0.00,,---,0.00,VWS V14.01,2013-06-21 03:07:00,
2013-06-20 23:08:00,67.9,64.9,30.14,WSW,257,0.0,0.0,90,0.00,,---,0.00,VWS V14.01,2013-06-21 03:08:00,
2013-06-20 23:09:00,67.8,64.8,30.14,WSW,257,0.0,0.0,90,0.00,,---,0.00,VWS V14.01,2013-06-21 03:09:00,
2013-06-20 23:10:00,67.8,64.8,30.14,WSW,257,0.0,0.0,90,0.00,,---,0.00,VWS V14.01,2013-06-21 03:10:00,
2013-06-20 23:11:00,67.8,64.8,30.14,WSW,257,0.0,0.0,90,0.00,,---,0.00,VWS V14.01,2013-06-21 03:11:00,
2013-06-20 23:12:00,67.7,64.3,30.14,WSW,257,0.0,0.0,89,0.00,,---,0.00,VWS V14.01,2013-06-21 03:12:00,
2013-06-20 23:13:00,67.7,64.3,30.14,WSW,257,0.0,0.0,89,0.00,,---,0.00,VWS V14.01,2013-06-21 03:13:00,
2013-06-20 23:14:00,67.7,64.3,30.14,WSW,257,0.0,0.0,89,0.00,,---,0.00,VWS V14.01,2013-06-21 03:14:00,
2013-06-20 23:15:00,67.6,64.2,30.14,WSW,257,0.0,0.0,89,0.00,,---,0.00,VWS V14.01,2013-06-21 03:15:00,
2013-06-20 23:16:00,67.6,64.2,30.14,WSW,257,0.0,0.0,89,0.00,,---,0.00,VWS V14.01,2013-06-21 03:16:00,
2013-06-20 23:17:00,67.5,64.2,30.14,WSW,257,0.0,0.0,89,0.00,,---,0.00,VWS V14.01,2013-06-21 03:17:00,
2013-06-20 23:18:00,67.4,64.1,30.14,WSW,257,0.0,0.0,89,0.00,,---,0.00,VWS V14.01,2013-06-21 03:18:00,
2013-06-20 23:19:00,67.3,64.0,30.14,WSW,257,0.0,0.0,89,0.00,,---,0.00,VWS V14.01,2013-06-21 03:19:00,
2013-06-20 23:20:00,67.2,63.8,30.14,WSW,257,0.0,0.0,89,0.00,,---,0.00,VWS V14.01,2013-06-21 03:20:00,
2013-06-20 23:21:00,67.2,63.8,30.14,WSW,257,0.0,0.0,89,0.00,,---,0.00,VWS V14.01,2013-06-21 03:21:00,
2013-06-20 23:22:00,67.1,63.8,30.14,WSW,257,0.0,0.0,89,0.00,,---,0.00,VWS V14.01,2013-06-21 03:22:00,
2013-06-20 23:23:00,67.1,64.1,30.14,WSW,257,0.0,0.0,90,0.00,,---,0.00,VWS V14.01,2013-06-21 03:23:00,
2013-06-20 23:24:00,67.0,64.0,30.14,WSW,257,0.0,0.0,90,0.00,,---,0.00,VWS V14.01,2013-06-21 03:24:00,
2013-06-20 23:25:00,66.9,63.9,30.14,WSW,257,0.0,0.0,90,0.00,,---,0.00,VWS V14.01,2013-06-21 03:25:00,
2013-06-20 23:26:00,66.9,63.9,30.14,WSW,257,0.0,0.0,90,0.00,,---,0.00,VWS V14.01,2013-06-21 03:26:00,
2013-06-20 23:27:00,66.8,63.8,30.14,WSW,257,0.0,0.0,90,0.00,,---,0.00,VWS V14.01,2013-06-21 03:27:00,
2013-06-20 23:28:00,66.8,63.8,30.14,WSW,257,0.0,0.0,90,0.00,,---,0.00,VWS V14.01,2013-06-21 03:28:00,
2013-06-20 23:29:00,66.8,64.1,30.14,WSW,257,0.0,0.0,91,0.00,,---,0.00,VWS V14.01,2013-06-21 03:29:00,
2013-06-20 23:30:00,66.8,64.1,30.14,SW,232,0.0,0.0,91,0.00,,---,0.00,VWS V14.01,2013-06-21 03:30:00,
2013-06-20 23:31:00,66.8,64.1,30.14,SSW,203,0.0,0.0,91,0.00,,---,0.00,VWS V14.01,2013-06-21 03:31:00,
2013-06-20 23:32:00,66.8,64.1,30.14,SSW,203,0.0,0.0,91,0.00,,---,0.00,VWS V14.01,2013-06-21 03:32:00,
2013-06-20 23:33:00,66.8,64.1,30.14,SSW,203,0.0,0.0,91,0.00,,---,0.00,VWS V14.01,2013-06-21 03:33:00,
2013-06-20 23:34:00,66.8,64.1,30.14,SSW,203,0.0,0.0,91,0.00,,---,0.00,VWS V14.01,2013-06-21 03:34:00,
2013-06-20 23:35:00,66.8,64.1,30.14,SSW,203,0.0,0.0,91,0.00,,---,0.00,VWS V14.01,2013-06-21 03:35:00,
2013-06-20 23:36:00,66.8,64.1,30.14,SSW,203,0.0,0.0,91,0.00,,---,0.00,VWS V14.01,2013-06-21 03:36:00,
2013-06-20 23:37:00,66.8,64.1,30.14,SSW,203,0.0,0.0,91,0.00,,---,0.00,VWS V14.01,2013-06-21 03:37:00,
2013-06-20 23:38:00,66.8,64.1,30.14,SSW,203,0.0,0.0,91,0.00,,---,0.00,VWS V14.01,2013-06-21 03:38:00,
2013-06-20 23:39:00,66.8,64.1,30.14,SSW,203,0.0,0.0,91,0.00,,---,0.00,VWS V14.01,2013-06-21 03:39:00,
2013-06-20 23:40:00,66.8,64.1,30.14,SSW,203,0.0,0.0,91,0.00,,---,0.00,VWS V14.01,2013-06-21 03:40:00,
2013-06-20 23:41:00,66.8,64.1,30.14,SSW,203,0.0,0.0,91,0.00,,---,0.00,VWS V14.01,2013-06-21 03:41:00,
2013-06-20 23:42:00,66.8,64.1,30.14,SSW,203,0.0,0.0,91,0.00,,---,0.00,VWS V14.01,2013-06-21 03:42:00,
2013-06-20 23:43:00,66.8,64.1,30.14,SSW,203,0.0,0.0,91,0.00,,---,0.00,VWS V14.01,2013-06-21 03:43:00,
2013-06-20 23:44:00,66.8,64.1,30.14,SSW,203,0.0,0.0,91,0.00,,---,0.00,VWS V14.01,2013-06-21 03:44:00,
2013-06-20 23:45:00,66.7,64.0,30.14,SSW,203,0.0,0.0,91,0.00,,---,0.00,VWS V14.01,2013-06-21 03:45:00,
2013-06-20 23:46:00,66.7,64.0,30.14,SSW,203,0.0,0.0,91,0.00,,---,0.00,VWS V14.01,2013-06-21 03:46:00,
2013-06-20 23:47:00,66.7,64.0,30.14,SSW,203,0.0,0.0,91,0.00,,---,0.00,VWS V14.01,2013-06-21 03:47:00,
2013-06-20 23:48:00,66.7,64.0,30.14,SSW,203,0.0,0.0,91,0.00,,---,0.00,VWS V14.01,2013-06-21 03:48:00,
2013-06-20 23:49:00,66.7,64.0,30.14,SSW,203,0.0,0.0,91,0.00,,---,0.00,VWS V14.01,2013-06-21 03:49:00,
2013-06-20 23:50:00,66.7,64.0,30.14,SSW,203,0.0,0.0,91,0.00,,---,0.00,VWS V14.01,2013-06-21 03:50:00,
2013-06-20 23:51:00,66.7,64.0,30.14,SSW,203,0.0,0.0,91,0.00,,---,0.00,VWS V14.01,2013-06-21 03:51:00,
2013-06-20 23:52:00,66.7,64.0,30.14,SSW,203,0.0,0.0,91,0.00,,---,0.00,VWS V14.01,2013-06-21 03:52:00,
2013-06-20 23:53:00,66.7,64.0,30.14,SSW,203,0.0,0.0,91,0.00,,---,0.00,VWS V14.01,2013-06-21 03:53:00,
2013-06-20 23:54:00,66.7,64.0,30.14,SSW,203,0.0,0.0,91,0.00,,---,0.00,VWS V14.01,2013-06-21 03:54:00,
2013-06-20 23:55:00,66.8,64.1,30.14,SSW,203,0.0,0.0,91,0.00,,---,0.00,VWS V14.01,2013-06-21 03:55:00,
2013-06-20 23:56:00,66.8,64.1,30.14,SSW,203,0.0,0.0,91,0.00,,---,0.00,VWS V14.01,2013-06-21 03:56:00,
2013-06-20 23:57:00,66.8,64.1,30.14,SSW,203,0.0,0.0,91,0.00,,---,0.00,VWS V14.01,2013-06-21 03:57:00,
2013-06-20 23:58:00,66.8,63.8,30.14,SSW,203,0.0,0.0,90,0.00,,---,0.00,VWS V14.01,2013-06-21 03:58:00,
2013-06-20 23:59:00,66.7,63.7,30.14,SSW,203,0.0,0.0,90,0.00,,---,0.00,VWS V14.01,2013-06-21 03:59:00,